     2.11           OBSERVATION DATA    G (GPS)             RINEX VERSION / TYPE
teqc 2010Oct21 OPUS Account 20111027 15:26:41UTC            PGM / RUN BY / DATE
P 1524                                                      MARKER NAME
1218                                                        MARKER NUMBER
CSMIDDLETON NGS                                             OBSERVER / AGENCY
0220390624 TRIMBLE R7 2.32                                  REC # / TYPE / VERS
60125046 TRM41249.00 NONE                                   ANT # / TYPE
  -760154.7849 -5532077.0445  3071862.5870                  APPROX POSITION XYZ
        2.0040        0.0000        0.0000                  ANTENNA: DELTA H/E/N
     1     1                                                WAVELENGTH FACT L1/2
     5    L1    L2    C1    P1    P2                        # / TYPES OF OBSERV
    15                                                      LEAP SECONDS
  2011     8    15     0     0   30.0000000     GPS         TIME OF FIRST OBS
                                                            END OF HEADER
 11  8 15  0  0 30.0000000  0  8G28G12G10G17G05G04G09G02
-108312850.85756 -83253678.36252  23695414.0554                   23695414.6564
 -22567581.33657 -17546868.12555  22410337.4304                   22410335.6024
 -38890255.39857 -29719439.87555  21153665.2194                   21153664.0394
 -91493470.25057 -71246866.37955  22288480.9454                   22288479.8054
 -11561363.67656  -8950488.96154  23405365.6484                   23405366.9964
 -71541244.03958 -52333716.79756  20479264.9694                   20479263.6484
 -39026770.47357 -30360260.28554  22477342.3984                   22477341.7344
 -50028867.30558 -38925943.71156  20667759.1954                   20667755.5164
 11  8 15  0  1  0.0000000  0  8G28G12G10G17G05G04G09G02
-106735299.37946 -82024417.56243  23995612.9454                   23995613.4064
 -21172738.75847 -16459977.78545  22675766.8834                   22675764.6764
 -37458400.75047 -28603708.95745  21426137.9304                   21426136.7774
 -89970082.75047 -70059811.21545  22578372.0164                   22578370.3554
 -10185602.78947  -7878467.35544  23667164.1024                   23667165.2114
 -70002548.55148 -51134733.32046  20772069.0704                   20772067.7774
 -37491097.78147 -29163632.26644  22769571.1484                   22769570.5044
 -48575480.94548 -37793434.83246  20944329.0704                   20944325.3674
 11  8 15  0  1 30.0000000  0  8G28G12G10G17G05G04G09G02
-106732848.02046 -82022507.52042  23996078.8054                   23996079.7544
 -21353011.32847 -16600449.91445  22641462.8134                   22641460.5234
 -37601373.47747 -28715116.24245  21398930.9064                   21398929.9104
 -90021926.47747 -70100208.94145  22568506.5704                   22568504.9224
 -10385125.22346  -8033939.24244  23629195.7814                   23629197.1374
 -70038868.48448 -51163034.58246  20765157.5474                   20765156.2424
 -37530334.73847 -29194206.57044  22762104.4614                   22762104.6214
 -48697077.06248 -37888185.03546  20921190.0394                   20921186.6804
 11  8 15  0  2  0.0000000  0  8G28G12G10G17G05G04G09G02
-106730091.32446 -82020359.55943  23996603.6024                   23996605.0274
 -21532983.21147 -16740687.72345  22607214.9064                   22607213.1414
 -37743759.19547 -28826066.12945  21371836.0864                   21371834.7424
 -90073591.85247 -70140467.69144  22558675.1954                   22558673.5554
 -10584514.35946  -8189307.23444  23591253.4144                   23591254.0084
 -70074797.93748 -51191031.58646  20758320.3754                   20758319.1564
 -37569075.72346 -29224394.39144  22754732.4454                   22754732.4924
 -48818244.85548 -37982601.46946  20898132.7114                   20898128.9144
 11  8 15  0  2 30.0000000  0  8G28G12G10G17G05G04G09G02
-106727031.48446 -82017975.38143  23997185.9774                   23997187.2544
 -21712651.77747 -16880689.18045  22573025.0864                   22573022.9534
 -37885555.57047 -28936556.78545  21344853.3284                   21344852.1844
 -90125078.34447 -70180587.04745  22548877.6334                   22548875.9304
 -10783766.95747  -8344568.84844  23553337.5704                   23553337.5084
 -70110339.25448 -51218726.13746  20751557.2114                   20751555.6054
 -37607323.59847 -29254197.97744  22747453.4454                   22747453.7854
 -48938984.67648 -38076684.42246  20875156.5634                   20875152.6374
 11  8 15  0  3  0.0000000  0  8G28G12G10G17G05G04G09G02
-106723669.71946 -82015355.94543  23997825.1724                   23997826.4184
 -21892013.66047 -17020451.66045  22538893.5944                   22538891.2344
 -38026759.45748 -29046585.76245  21317982.7894                   21317981.2234
 -90176384.59047 -70220565.95345  22539114.3054                   22539112.8714
 -10982879.62147  -8499721.42644  23515447.2424                   23515447.6454
 -70145494.14548 -51246119.57446  20744867.8054                   20744865.6764
 -37645081.38347 -29283619.66444  22740269.6094                   22740268.7704
 -49059296.55948 -38170433.91446  20852262.1174                   20852258.1174
 11  8 15  0  3 30.0000000  0  8G28G12G10G17G05G04G09G02
-106720004.87146 -82012500.31243  23998523.2344                   23998524.3714
 -22071063.43047 -17159970.93745  22504821.5634                   22504819.8714
 -38167365.46947 -29156148.86345  21291225.9694                   21291224.6764
 -90227507.17247 -70260401.75045  22529386.6254                   22529384.5904
 -11181846.51247  -8654760.42644  23477584.7814                   23477585.3674
 -70180262.09448 -51273211.49646  20738251.5314                   20738249.9844
 -37682348.84047 -29312659.26644  22733177.3054                   22733176.9454
 -49179178.09848 -38263848.07846  20829449.5164                   20829445.8134
 11  8 15  0  4  0.0000000  0  8G28G12G10G17G05G04G09G02
-106716041.43046 -82009412.06243  23999277.6094                   23999277.8524
 -22249801.22347 -17299247.10945  22470808.9534                   22470806.8204
 -38307373.59447 -29265246.06645  21264583.8284                   21264581.9304
 -90278448.16447 -70300096.05545  22519692.5634                   22519691.1174
 -11380667.28147  -8809685.57444  23439750.1174                   23439751.0044
 -70214647.88348 -51300005.63346  20731708.0004                   20731706.1804
 -37719131.35246 -29341321.01244  22726176.9614                   22726177.5354
 -49298631.96148 -38356928.97746  20806718.1484                   20806714.1994
 11  8 15  0  4 30.0000000  0  8G28G12G10G17G05G04G09G02
-106711772.41446 -82006085.66843  24000090.1564                   24000090.0634
 -22428215.55147 -17438271.21545  22436857.3444                   22436855.8204
 -38446773.07447 -29373869.01245  21238057.0164                   21238055.1454
 -90329198.14147 -70339641.51245  22510035.2424                   22510033.5664
 -11579330.09047  -8964487.64844  23401945.9614                   23401946.6024
 -70248645.28948 -51326497.14546  20725238.4064                   20725237.2114
 -37755423.40647 -29369600.57444  22719271.7504                   22719271.9264
 -49417650.03148 -38449670.31246  20784069.6254                   20784065.9694
 11  8 15  0  5  0.0000000  0  8G28G12G10G17G05G04G09G02
-106707200.84846 -82002523.52343  24000960.4614                   24000961.0944
 -22606305.02347 -17577042.19145  22402968.1564                   22402966.5434
 -38585562.96147 -29482016.95345  21211646.0944                   21211644.4614
 -90379757.56647 -70379038.49245  22500413.8204                   22500412.3444
 -11777833.42247  -9119165.42244  23364171.8444                   23364172.6804
 -70282257.95348 -51352688.84846  20718842.2584                   20718841.0864
 -37791229.46946 -29397501.44944  22712458.0634                   22712458.2114
 -49536234.18748 -38542073.52746  20761503.5164                   20761499.6764
 11  8 15  0  5 30.0000000  0  8G28G12G10G17G05G04G09G02
-106702325.67646 -81998724.84843  24001888.2194                   24001888.7114
 -22784063.65647 -17715555.36345  22369142.0004                   22369140.0204
 -38723737.62947 -29589685.50045  21185352.1804                   21185350.7704
 -90430122.81247 -70418284.18045  22490829.8204                   22490828.0864
 -11976171.09447  -9273714.09844  23326429.3364                   23326430.1254
 -70315484.69948 -51378579.83246  20712519.5084                   20712518.1844
 -37826549.22347 -29425023.37944  22705736.9534                   22705737.0394
 -49654381.57848 -38634136.40646  20739021.0314                   20739016.8984
 11  8 15  0  6  0.0000000  0  8G28G12G10G17G05G04G09G02
-106697148.93445 -81994691.16043  24002872.7974                   24002874.4804
 -22961489.73047 -17853809.41045  22335379.0004                   22335377.0474
 -38861295.37947 -29696873.33645  21159175.8134                   21159174.2034
 -90480293.78147 -70457378.46545  22481282.2584                   22481281.0004
 -12174340.25446  -9428131.47744  23288718.3674                   23288719.0664
 -70348328.41848 -51404172.36346  20706269.7734                   20706268.3094
 -37861386.29747 -29452169.18044  22699107.8204                   22699107.3594
 -49772093.46948 -38725859.94546  20716621.2504                   20716617.3594
 11  8 15  0  6 30.0000000  0  8G28G12G10G17G05G04G09G02
-106691672.14845 -81990423.63343  24003915.4534                   24003916.4534
 -23138580.11747 -17991801.88345  22301679.5474                   22301678.0394
 -38998233.62548 -29803578.43445  21133117.2114                   21133115.9184
 -90530269.13347 -70496320.32445  22471772.5314                   22471771.1334
 -12372338.43047  -9582415.66844  23251041.2664                   23251041.3244
 -70380791.27048 -51429468.10546  20700092.2114                   20700090.7504
 -37895743.46947 -29478941.05144  22692569.9384                   22692569.5744
 -49889369.60948 -38817243.91846  20694304.1954                   20694300.4024
 11  8 15  0  7  0.0000000  0  8G28G12G10G17G05G04G09G02
-106685893.00045 -81985920.48442  24005014.8284                   24005016.9844
 -23315327.57047 -18129527.13345  22268045.7114                   22268043.7734
 -39134545.35947 -29909795.35245  21107178.0004                   21107176.5824
 -90580044.12547 -70535106.07445  22462300.8524                   22462299.4024
 -12570157.29346  -9736560.12544  23213397.1804                   23213397.7304
 -70412870.99248 -51454465.30946  20693987.5944                   20693985.9534
 -37929618.93447 -29505337.56244  22686123.5944                   22686123.6884
 -50006206.43748 -38908285.58646  20672070.7974                   20672066.9454
 11  8 15  0  7 30.0000000  0  8G28G12G10G17G05G04G09G02
-106679819.66045 -81981188.23442  24006171.5314                   24006173.5164
 -23491735.73047 -18266987.98845  22234476.5784                   22234474.0434
 -39270234.74648 -30015527.32445  21081356.9144                   21081355.8404
 -90629624.47747 -70573740.16045  22452865.8284                   22452864.1764
 -12767800.06647  -9890567.34844  23175786.7194                   23175787.2194
 -70444576.09048 -51479170.59446  20687954.2894                   20687952.8834
 -37963022.46147 -29531366.33244  22679766.6024                   22679767.1174
 -50122610.54748 -38998990.07046  20649919.9694                   20649916.0984
 11  8 15  0  8  0.0000000  0  8G28G12G10G17G05G04G09G02
-106673451.10546 -81976225.78942  24007382.4224                   24007385.7894
 -23667799.38747 -18404180.41445  22200972.5704                   22200970.5314
 -39405296.85547 -30120770.50845  21055655.5004                   21055653.9304
 -90679006.56647 -70612219.76245  22443468.8984                   22443467.6604
 -12965261.81647 -10044433.53544  23138211.1024                   23138211.5274
 -70475906.28948 -51503583.75446  20681992.5474                   20681991.0984
 -37995954.30547 -29557027.53944  22673500.4144                   22673500.0664
 -50238579.96548 -39089355.82846  20627851.7584                   20627847.9104
 11  8 15  0  8 30.0000000  0  8G28G12G10G17G05G04G09G02
-106666788.31246 -81971034.04742  24008650.6334                   24008653.2504
 -23843514.44547 -18541101.19945  22167535.0394                   22167532.9184
 -39539728.18747 -30225522.18045  21030074.2584                   21030072.7664
 -90728188.87547 -70650543.67645  22434109.5704                   22434108.4104
 -13162537.89547 -10198155.05144  23100670.8524                   23100670.3794
 -70506862.68748 -51527705.63746  20676101.6884                   20676099.5124
 -38028416.23847 -29582322.61344  22667323.0004                   22667323.5124
 -50354113.96948 -39179382.30946  20605866.1644                   20605862.3524
 11  8 15  0  9  0.0000000  0  8G28G12G10G17G05G04G09G02
-106659834.41046 -81965615.53942  24009975.1564                   24009976.6134
 -24018879.63347 -18677749.35945  22134164.0004                   22134161.8914
 -39673528.07847 -30329781.81645  21004612.9064                   21004611.9844
 -90777171.43047 -70688711.94945  22424788.7194                   22424787.5004
 -13359626.18047 -10351730.24244  23063167.0234                   23063166.2344
 -70537448.83248 -51551539.01646  20670281.4534                   20670279.5204
 -38060412.47746 -29607254.79744  22661234.7194                   22661234.9964
 -50469214.06648 -39269070.69146  20583963.5634                   20583959.7114
 11  8 15  0  9 30.0000000  0  8G28G12G10G17G05G04G09G02
-105077161.50046 -80732364.00442  24311147.3284                   24311148.5234
 -22618456.78947 -17586510.75045  22400656.0634                   22400653.7974
 -38231260.02347 -29205936.55945  21279067.6884                   21279066.1604
 -89250522.52747 -69499115.46545  22715300.6644                   22715299.3444
 -11981087.94547  -9277544.50844  23325493.3204                   23325493.1094
 -68992236.08648 -50347477.15246  20964325.6644                   20964323.9884
 -36516515.59047 -28404218.30944  22955028.2034                   22955028.3554
 -49008447.53148 -38130811.04346  20861938.0314                   20861934.3014
 11  8 15  0 10  0.0000000  0  8G28G12G10G17G05G04G09G02
-105069616.87546 -80726485.22343  24312583.7504                   24312583.9304
 -22793100.64847 -17722596.85245  22367422.4384                   22367419.9964
 -38363776.83647 -29309196.38745  21253850.5784                   21253849.2424
 -89299090.56247 -69536960.72345  22706058.0164                   22706056.8324
 -12177778.86347  -9430810.07444  23288064.1564                   23288064.2934
 -69022074.77748 -50370728.09846  20958647.3834                   20958645.5904
 -36547576.73447 -28428421.85244  22949117.4924                   22949117.4414
 -49122668.31648 -38219814.24246  20840202.7194                   20840198.8984
 11  8 15  0 10 30.0000000  0  8G28G12G10G17G05G04G09G02
-105061781.92246 -80720380.10543  24314073.7664                   24314074.8754
 -22967382.02747 -17858400.49245  22334257.4144                   22334255.5164
 -38495650.80947 -29411955.30545  21228755.1484                   21228753.6804
 -89347452.36747 -69574645.30545  22696855.6804                   22696854.0044
 -12374268.39147  -9583918.68744  23250673.5164                   23250673.2624
 -69051545.22748 -50393692.09046  20953039.0944                   20953037.6334
 -36578176.71147 -28452266.02744  22943294.4304                   22943294.7774
 -49236452.40648 -38308477.15246  20818550.0704                   20818546.4304
 11  8 15  0 11  0.0000000  0  8G28G12G10G17G05G04G09G02
-105053656.88346 -80714049.02043  24315620.4454                   24315621.3954
 -23141296.54347 -17993918.27745  22301162.8444                   22301160.7344
 -38626878.17647 -29514210.36345  21203783.6644                   21203782.4264
 -89395605.31647 -69612167.13745  22687692.6024                   22687691.1994
 -12570551.98847  -9736866.82444  23213321.6644                   23213321.3794
 -69080648.16848 -50416369.73046  20947501.3834                   20947500.1214
 -36608317.28147 -28475752.25044  22937557.5474                   22937559.0164
 -49349798.65648 -38396798.89846  20796981.1254                   20796977.4534
 11  8 15  0 11 30.0000000  0  8G28G12G10G17G05G04G09G02
-105045243.52746 -80707493.23843  24317221.3364                   24317222.4024
 -23314841.31247 -18129147.94545  22268137.9144                   22268135.8524
 -38757457.00848 -29615960.09045  21178935.3754                   21178933.9184
 -89443549.07047 -69649525.94945  22678568.9694                   22678567.3714
 -12766626.57847  -9889652.12144  23176009.9304                   23176009.9964
 -69109385.80948 -50438762.71146  20942032.5554                   20942031.1374
 -36638001.60247 -28498882.94144  22931910.4924                   22931910.8134
 -49462707.69548 -38484779.95346  20775495.2424                   20775491.4224
 11  8 15  0 12  0.0000000  0  8G28G12G10G17G05G04G09G02
-105036538.94946 -80700710.52743  24318877.1644                   24318878.9844
 -23488008.88747 -18264083.69145  22235184.8984                   22235183.1174
 -38887380.03147 -29717198.78545  21154211.9614                   21154210.4964
 -89491278.14847 -69686717.48044  22669486.6564                   22669484.5904
 -12962484.03947 -10042268.20744  23138739.2974                   23138739.4694
 -69137755.09848 -50460868.66846  20936634.2424                   20936632.8794
 -36667227.69946 -28521656.60244  22926349.2734                   22926349.3524
 -49575174.90248 -38572416.72746  20754093.5234                   20754089.3874
 11  8 15  0 12 30.0000000  0  8G28G12G10G17G05G04G09G02
-105027545.86346 -80693703.07043  24320589.0944                   24320591.2814
 -23660797.41047 -18398724.07845  22202304.9694                   22202302.2774
 -39016646.93047 -29817926.21145  21129612.9534                   21129611.7114
 -89538792.62947 -69723741.79344  22660444.7274                   22660442.9734
 -13158122.58247 -10194713.71144  23101510.5004                   23101510.3834
 -69165759.61348 -50482690.39146  20931305.0704                   20931303.4304
 -36696000.06647 -28544076.67644  22920873.8284                   22920873.7974
 -49687202.12548 -38659710.64846  20732775.2114                   20732771.3404
 11  8 15  0 13  0.0000000  0  8G28G12G10G17G05G04G09G02
-105018266.15645 -80686472.21942  24322355.1564                   24322356.5314
 -23833203.64147 -18533066.58645  22169496.3674                   22169494.7194
 -39145254.83247 -29918140.14545  21105139.7584                   21105138.4414
 -89586091.21147 -69760597.87544  22651444.1334                   22651442.2624
 -13353538.00447 -10346985.37544  23064324.7344                   23064324.1644
 -69193401.14548 -50504229.26645  20926045.0704                   20926043.3794
 -36724320.92247 -28566144.93744  22915484.5704                   22915484.7424
 -49798789.31248 -38746661.68446  20711540.9224                   20711537.2034
 11  8 15  0 13 30.0000000  0  7G12G10G17G05G04G09G02
 -24005220.71947 -18667105.84445  22136762.8134                   22136761.0744
 -39273196.96548 -30017835.28945  21080793.1174                   21080791.5704
 -89633168.71147 -69797281.68044  22642485.7114                   22642483.8134
 -13548723.16447 -10499077.59844  23027182.0554                   23027181.4384
 -69220677.46548 -50525483.55945  20920854.3834                   20920853.4614
 -36752189.11747 -28587860.48444  22910181.3054                   22910181.9694
 -49909932.83648 -38833267.01646  20690391.2274                   20690387.2114
 11  8 15  0 14  0.0000000  0  7G12G10G17G05G04G09G02
 -24176843.66847 -18800838.01245  22104104.2974                   22104102.4344
 -39400469.39547 -30117008.59845  21056574.3204                   21056572.7304
 -89680022.42647 -69833791.10545  22633570.0234                   22633567.9104
 -13743673.14547 -10650986.58244  22990083.7894                   22990083.1684
 -69247588.68748 -50546453.35946  20915733.5634                   20915731.9344
 -36779605.68447 -28609224.10944  22904964.4924                   22904964.7814
 -50020631.01648 -38919525.31646  20669326.1884                   20669321.8094
 11  8 15  0 14 30.0000000  0  7G12G10G17G05G04G09G02
 -24348069.59047 -18934260.78945  22071520.8834                   22071519.1684
 -39527070.12547 -30215658.49245  21032482.4534                   21032481.0234
 -89726651.73047 -69870125.66045  22624696.7664                   22624695.2234
 -13938384.58247 -10802709.67244  22953030.8674                   22953030.9224
 -69274136.90648 -50567140.30545  20910681.5474                   20910679.9574
 -36806573.71547 -28630238.23444  22899832.4614                   22899833.1094
 -50130884.40248 -39005437.02746  20648345.2034                   20648341.1644
 11  8 15  0 15  0.0000000  0  7G12G10G17G05G04G09G02
 -24518885.44547 -19067364.04745  22039016.0004                   22039013.9344
 -39652986.73047 -30313775.31245  21008521.7584                   21008520.1024
 -89773044.86747 -69906276.18744  22615867.9694                   22615866.3834
 -14132843.79747 -10954236.21944  22916026.7814                   22916026.4964
 -69300313.93048 -50587538.00045  20905700.3524                   20905698.6374
 -36833085.93047 -28650897.17244  22894787.3754                   22894787.5944
 -50240683.11348 -39090994.44946  20627451.5784                   20627447.6764
 11  8 15  0 15 30.0000000  0  7G12G10G17G05G04G09G02
 -24689287.08647 -19200144.53145  22006589.5394                   22006587.5044
 -39778215.98848 -30411356.53945  20984691.5164                   20984689.7734
 -89819200.51247 -69942241.66045  22607085.3284                   22607083.8524
 -14327046.56247 -11105562.96144  22879071.1804                   22879071.1644
 -69326120.71548 -50607647.19946  20900789.3754                   20900788.1254
 -36859144.33647 -28671202.48044  22889828.4304                   22889828.9304
 -50350026.43448 -39176197.01646  20606643.9384                   20606640.0904
 11  8 15  0 16  0.0000000  0  7G12G10G17G05G04G09G02
 -24859271.50447 -19332599.91445  21974242.7274                   21974240.6374
 -39902755.50047 -30508400.29745  20960992.3284                   20960990.6174
 -89865116.75047 -69978020.58245  22598347.2034                   22598346.2274
 -14520988.95747 -11256686.81644  22842164.8364                   22842164.6484
 -69351558.62548 -50627468.96145  20895948.8834                   20895947.1524
 -36884751.12947 -28691155.89544  22884956.4774                   22884956.2114
 -50458914.48448 -39261044.82046  20585923.2974                   20585919.5004
 11  8 15  0 16 30.0000000  0  7G12G10G17G05G04G09G02
 -25028837.07447 -19464728.91845  21941975.3524                   21941973.2774
 -40026604.46547 -30604905.96145  20937424.5314                   20937423.4184
 -89910794.61347 -70013613.74244  22589655.6644                   22589654.1844
 -14714669.30947 -11407606.45344  22805308.6564                   22805308.8404
 -69376631.37948 -50647006.19146  20891177.7344                   20891176.2734
 -36909911.12947 -28710761.17244  22880168.6254                   22880168.3164
 -50567349.27348 -39345539.44946  20565288.4694                   20565284.7464
 11  8 15  0 17  0.0000000  0  7G12G10G17G05G04G09G02
 -25197984.54747 -19596532.12545  21909787.6174                   21909785.5474
 -40149764.60248 -30700874.87545  20913988.1024                   20913986.0164
 -89956236.61747 -70049023.12544  22581008.1484                   22581006.5044
 -14908087.91047 -11558322.16444  22768502.5164                   22768502.4884
 -69401344.48848 -50666263.17646  20886475.1724                   20886473.0984
 -36934630.67247 -28730023.22744  22875463.9454                   22875464.6684
 -50675334.78148 -39429683.98446  20544739.9694                   20544735.6764
 11  8 15  0 17 30.0000000  0  7G12G10G17G05G04G09G02
 -25366707.11747 -19728004.24245  21877680.6254                   21877679.0274
 -40272230.28947 -30796302.67245  20890683.5634                   20890681.9304
 -90001438.22346 -70084245.19144  22572406.7114                   22572405.1334
 -15101237.91047 -11708828.59044  22731747.8364                   22731747.1564
 -69425696.41448 -50685238.71945  20881840.5164                   20881839.1024
 -36958909.20347 -28748941.60944  22870844.8204                   22870844.4924
 -50782867.94548 -39513476.04746  20524276.9224                   20524272.9694
 11  8 15  0 18  0.0000000  0  7G12G10G17G05G04G09G02
 -23959584.53947 -18631545.07845  22145447.4614                   22145445.1524
 -38818583.16847 -29663590.61345  21167303.6884                   21167301.8444
 -88470984.73047 -68891684.05145  22863642.3054                   22863640.9964
 -13718697.28947 -10631524.10945  22994836.3364                   22994835.6994
 -67874276.04348 -49476339.73846  21177066.3914                   21177065.1174
 -35407336.58247 -27539924.03544  23166098.4064                   23166099.5634
 -49314533.23448 -38369319.11346  20803691.4694                   20803687.5634
 11  8 15  0 18 30.0000000  0  7G12G10G17G05G04G09G02
 -24127463.06647 -18762359.49645  22113501.2034                   22113498.9574
 -38939667.73848 -29757942.21145  21144261.6414                   21144260.3914
 -88515716.43747 -68926539.96544  22855129.6724                   22855128.8984
 -13911313.57847 -10781614.65244  22958182.2814                   22958181.7424
 -67897925.22348 -49494767.68445  21172566.1484                   21172564.8244
 -35430756.03947 -27558173.02344  23161642.6254                   23161642.7034
 -49421176.85248 -38452418.02046  20783398.2734                   20783393.9454
 11  8 15  0 19  0.0000000  0  7G12G10G17G05G04G09G02
 -24294915.38347 -18892841.80545  22081635.6804                   22081633.6604
 -39060059.03147 -29851753.59445  21121351.9614                   21121350.2814
 -88560211.94947 -68961211.81644  22846662.3134                   22846661.5234
 -14103658.57047 -10931493.77345  22921579.7734                   22921579.9614
 -67921225.99248 -49512924.13745  21168132.4454                   21168130.6524
 -35453750.54347 -27576090.88344  23157266.7344                   23157266.9844
 -49527376.35248 -38535170.86346  20763188.9384                   20763184.7894
 11  8 15  0 19 30.0000000  0  7G12G10G17G05G04G09G02
 -24461938.91447 -19022990.00445  22049852.2034                   22049850.0784
 -39179755.75847 -29945023.74245  21098574.5944                   21098573.2544
 -88604470.98447 -68995699.41444  22838240.1254                   22838239.5514
 -14295729.24647 -11081159.13744  22885029.2814                   22885029.8874
 -67944181.33248 -49530811.41845  21163763.6334                   21163762.8094
 -35476323.80147 -27593680.52044  23152971.3444                   23152971.1764
 -49633132.84048 -38617578.50446  20743064.1804                   20743060.2504
 11  8 15  0 20  0.0000000  0  7G12G10G17G05G04G09G02
 -24628533.68447 -19152804.09045  22018150.5864                   22018148.5434
 -39298758.83247 -30037753.39545  21075928.7974                   21075927.4414
 -88648495.27047 -69030004.07445  22829863.2344                   22829862.0004
 -14487524.91047 -11230610.23045  22848532.6254                   22848532.0864
 -67966795.65248 -49548432.96945  21159460.4694                   21159459.0984
 -35498481.62147 -27610946.37544  23148754.7814                   23148754.4694
 -49738450.37948 -38699644.11746  20723022.8364                   20723018.8674
 11  8 15  0 20 30.0000000  0  7G12G10G17G05G04G09G02
 -24794704.77747 -19282288.03945  21986529.4694                   21986527.0704
 -39417074.26248 -30129947.21545  21053414.0704                   21053412.4304
 -88692291.79347 -69064131.27044  22821528.7734                   22821528.0864
 -14679050.29747 -11379850.70345  22812086.2194                   22812086.4414
 -67989078.94948 -49565796.58645  21155220.1644                   21155219.1094
 -35520234.78947 -27627896.95344  23144615.3134                   23144615.5084
 -49843336.43048 -38781373.49246  20703063.3674                   20703059.9884
 11  8 15  0 21  0.0000000  0  7G12G10G17G05G04G09G02
 -24960444.34047 -19411435.73845  21954990.2424                   21954987.5784
 -39534695.32447 -30221599.97345  21031031.4774                   21031029.7504
 -88735854.91047 -69098076.60244  22813239.4614                   22813237.1764
 -14870297.23447 -11528874.20745  22775693.4534                   22775693.0634
 -68011028.18748 -49582899.88345  21151043.4694                   21151041.8524
 -35541581.44947 -27644530.77344  23140552.8284                   23140554.0554
 -49947786.68048 -38862763.30146  20683187.6484                   20683183.7424
 11  8 15  0 21 30.0000000  0  7G12G10G17G05G04G09G02
 -25125748.99647 -19540244.54345  21923533.4534                   21923531.5314
 -39651619.73048 -30312709.87145  21008781.3914                   21008780.5354
 -88779183.45747 -69131839.13344  22804994.0634                   22804992.0664
 -15061262.33247 -11677678.09445  22739353.1094                   22739353.2704
 -68032645.16448 -49599744.28945  21146929.5704                   21146928.4384
 -35562524.37147 -27660849.97344  23136568.0634                   23136568.2544
 -50051801.37548 -38943813.70346  20663394.0864                   20663390.5204
 11  8 15  0 22  0.0000000  0  7G12G10G17G05G04G09G02
 -25290612.71947 -19668709.76645  21892161.1414                   21892158.9804
 -39767842.60547 -30403273.13345  20986665.0394                   20986663.3054
 -88822272.71947 -69165415.21944  22796794.3524                   22796792.6954
 -15251938.69547 -11826257.00045  22703068.9304                   22703069.0124
 -68053928.34048 -49616328.58645  21142879.7274                   21142878.3054
 -35583062.73846 -27676853.96144  23132659.2814                   23132660.0594
 -50155378.09448 -39024522.83246  20643684.2584                   20643680.4614
 11  8 15  0 22 30.0000000  0  7G12G10G17G05G04G09G02
 -25455040.00047 -19796834.91445  21860871.6884                   21860869.5594
 -39883369.17248 -30493293.81645  20964681.0084                   20964679.7194
 -88865129.21947 -69198809.93744  22788639.4534                   22788637.7934
 -15442330.30947 -11974614.03145  22666838.5474                   22666838.4804
 -68074887.11748 -49632660.10945  21138891.3594                   21138889.9774
 -35603207.38347 -27692551.14844  23128826.1644                   23128826.7584
 -50258524.39148 -39104896.57046  20624056.2424                   20624051.8204
 11  8 15  0 23  0.0000000  0  7G12G10G17G05G04G09G02
 -25619027.80547 -19924617.60545  21829665.3364                   21829663.2114
 -39998197.87548 -30582770.72345  20942829.7274                   20942828.4734
 -88907752.46947 -69232022.91044  22780528.0084                   22780527.1564
 -15632433.88347 -12122746.60545  22630663.1724                   22630662.9924
 -68095523.62548 -49648740.51645  21134964.1094                   21134963.0904
 -35622961.53547 -27707944.06644  23125067.1484                   23125068.0514
 -50361241.14848 -39184935.60946  20604509.9304                   20604505.7344
 11  8 15  0 23 30.0000000  0  7G12G10G17G05G04G09G02
 -25782580.32047 -20052061.09045  21798542.5474                   21798540.6334
 -40112334.37148 -30671708.23045  20921110.4614                   20921108.8674
 -88950148.15247 -69265058.53144  22772460.4384                   22772459.0824
 -15822253.42247 -12270657.85545  22594541.6724                   22594541.6334
 -68115846.66447 -49664576.66045  21131097.2814                   21131095.5744
 -35642335.44947 -27723040.68044  23121381.2114                   23121381.2934
 -50463536.00048 -39264645.87946  20585043.9454                   20585039.6454
 11  8 15  0 24  0.0000000  0  7G12G10G17G05G04G09G02
 -25945687.21147 -20179157.34845  21767504.4924                   21767502.5434
 -40225769.04747 -30760098.87545  20899524.5084                   20899523.2664
 -88992307.93747 -69297910.35244  22764437.7974                   22764436.5084
 -16011777.39847 -12418338.80145  22558477.0554                   22558476.0634
 -68135850.47747 -49680164.06245  21127290.3674                   21127288.6134
 -35661324.07047 -27737837.06644  23117767.3134                   23117767.4144
 -50565401.41448 -39344021.53146  20565659.7584                   20565655.2234
 11  8 15  0 24 30.0000000  0  7G12G10G17G05G04G09G02
 -26108349.28947 -20305907.00045  21736550.9144                   21736548.9884
 -40338504.40247 -30847944.59445  20878071.5784                   20878069.9024
 -89034234.75047 -69330580.64144  22756459.9144                   22756458.2194
 -16201006.80547 -12565790.21545  22522467.1564                   22522467.1844
 -68155540.98447 -49695507.32445  21123543.5004                   21123542.0004
 -35679934.53147 -27752338.79344  23114225.7814                   23114226.6484
 -50666842.23448 -39423066.32046  20546356.0164                   20546351.7974
 11  8 15  0 25  0.0000000  0  7G12G10G17G05G04G09G02
 -26270565.79347 -20432309.46145  21705681.9694                   21705680.2074
 -40450540.08647 -30935245.11345  20856751.8444                   20856750.6564
 -89075929.32447 -69363069.95744  22748525.4304                   22748524.1804
 -16389940.32447 -12713011.07045  22486514.5314                   22486514.2114
 -68174921.71147 -49710609.21545  21119855.7194                   21119854.3014
 -35698171.57447 -27766549.53944  23110755.6174                   23110756.5474
 -50767860.60548 -39501781.93746  20527132.6024                   20527128.6804
 11  8 15  0 25 30.0000000  0  7G12G10G17G05G04G09G02
 -26432335.81647 -20558364.00445  21674897.9534                   21674896.5704
 -40561877.22747 -31022001.30945  20835564.9844                   20835563.8914
 -89117393.02346 -69395379.39844  22740635.0314                   22740633.7814
 -16578576.67247 -12860000.35545  22450618.5314                   22450618.1214
 -68193997.02047 -49725473.10545  21116225.7584                   21116224.1454
 -35716040.75447 -27780473.67244  23107355.3364                   23107355.9344
 -50868459.59848 -39580170.76646  20507989.4064                   20507985.3444
 11  8 15  0 26  0.0000000  0  7G12G10G17G05G04G09G02
 -26593659.27747 -20684070.57445  21644199.2894                   21644197.1484
 -40672516.85547 -31108213.99645  20814510.8364                   20814509.4304
 -89158627.75446 -69427510.39544  22732788.1024                   22732787.0634
 -16766915.10547 -13006757.51245  22414778.5864                   22414778.1914
 -68212771.66847 -49740102.72745  21112652.8834                   21112651.3874
 -35733547.96546 -27794115.72344  23104023.8204                   23104024.2774
 -50968642.58648 -39658235.42646  20488925.3674                   20488921.1764
 11  8 15  0 26 30.0000000  0  7G12G10G17G05G04G09G02
 -25179105.71147 -19581821.02745  21913379.8364                   21913377.7544
 -39207031.65647 -29966277.48045  21093383.8134                   21093382.2624
 -87624208.93747 -68231859.41444  23024778.2664                   23024777.4024
 -15379524.13347 -11925673.56245  22678790.0084                   22678789.2814
 -66655824.52347 -48526897.18445  21408930.4844                   21408929.0204
 -34175273.24247 -26579875.74244  23400553.6804                   23400553.8554
 -49492984.27748 -38508371.80146  20769733.5704                   20769729.9804
 11  8 15  0 27  0.0000000  0  8G25G12G10G17G05G04G09G02
   6015739.96156   4724754.28553  24774411.2814                   24774413.1644
 -25339525.68047 -19706823.58645  21882853.0474                   21882850.8674
 -39316270.29747 -30051398.48045  21072596.0554                   21072595.3324
 -87664981.06247 -68263629.93044  23017019.8674                   23017018.6054
 -15567255.43747 -12071957.62945  22643066.2194                   22643065.6174
 -66674001.40648 -48541061.01245  21405471.1884                   21405469.3164
 -34192063.55146 -26592959.16444  23397358.4924                   23397359.1644
 -49592334.71948 -38585787.73046  20750827.9694                   20750824.0044
 11  8 15  0 27 30.0000000  0  8G25G12G10G17G05G04G09G02
   5822731.74246   4574358.28142  24737683.2194                   24737684.4844
 -25499496.67247 -19831476.28945  21852411.4844                   21852409.5434
 -39424812.98447 -30135977.18745  21051941.5394                   21051940.3404
 -87705527.43047 -68295224.53144  23009304.3054                   23009303.4924
 -15754685.07447 -12218006.62945  22607399.0084                   22607398.7814
 -66691889.12148 -48554999.52045  21402067.2114                   21402065.8914
 -34208506.59046 -26605771.99244  23394229.9774                   23394230.8914
 -49691276.77348 -38662885.43446  20731999.9774                   20731995.8554
 11  8 15  0 28  0.0000000  0  8G25G12G10G17G05G04G09G02
   5629908.65646   4424106.55542  24700989.4774                   24700991.5594
 -25659022.68447 -19955782.25445  21822054.8444                   21822053.0944
 -39532664.89548 -30220017.62945  21031417.7734                   21031416.4964
 -87745853.94947 -68326647.83244  23001630.4694                   23001629.3134
 -15941816.47747 -12363823.23445  22571789.7114                   22571788.6914
 -66709496.46148 -48568719.54745  21398716.4614                   21398715.3094
 -34224612.64546 -26618322.23044  23391165.1484                   23391165.0634
 -49789817.91048 -38739670.71546  20713248.1254                   20713243.8444
 11  8 15  0 28 30.0000000  0  8G25G12G10G17G05G04G09G02
   5437271.41446   4273999.69543  24664331.3444                   24664333.4884
 -25818102.93047 -20079740.89545  21791782.6564                   21791780.6054
 -39639826.82448 -30303520.41845  21011025.4144                   21011024.4884
 -87785961.77047 -68357900.71144  22993998.0704                   22993996.7544
 -16128648.51247 -12509406.58245  22536236.4384                   22536235.8714
 -66726827.55548 -48582224.32045  21395418.9614                   21395417.7934
 -34240386.77046 -26630613.81644  23388163.1644                   23388163.5904
 -49887960.93048 -38816145.80146  20694571.9534                   20694567.9964
 11  8 15  0 29  0.0000000  0  8G25G12G10G17G05G04G09G02
   5244826.28146   4124042.52743  24627711.8204                   24627713.0514
 -25976730.80147 -20203347.01645  21761596.9384                   21761594.7974
 -39746293.90248 -30386481.77045  20990765.7894                   20990764.0554
 -87825846.30947 -68388979.60944  22986408.5944                   22986407.0124
 -16315174.32447 -12654751.30945  22500741.1254                   22500740.9924
 -66743880.47747 -48595512.34445  21392174.0554                   21392172.7774
 -34255828.68746 -26642646.54343  23385224.9224                   23385224.6524
 -49985702.98448 -38892308.43046  20675972.4304                   20675968.2584
 11  8 15  0 29 30.0000000  0  8G25G12G10G17G05G04G09G02
   5052571.32046   3974233.55143  24591126.1724                   24591128.2424
 -26134908.56647 -20326602.40646  21731496.3134                   21731494.4304
 -39852069.61748 -30468904.40245  20970637.0864                   20970635.5594
 -87865511.51647 -68419887.59844  22978860.5944                   22978859.6054
 -16501395.42647 -12799858.60245  22465305.0784                   22465304.7034
 -66760662.08248 -48608588.94145  21388980.2504                   21388979.1454
 -34270946.24647 -26654426.52744  23382347.8914                   23382348.6294
 -50083049.43048 -38968162.79746  20657447.8204                   20657444.1134
 11  8 15  0 30  0.0000000  0  8G25G12G10G17G05G04G09G02
   4860509.71146   3824575.19943  24554578.1484                   24554580.4304
 -26292632.83247 -20449504.42246  21701482.8134                   21701480.6334
 -39957152.28547 -30550786.99245  20950640.4614                   20950639.2384
 -87904956.33647 -68450623.85944  22971354.5784                   22971353.7074
 -16687308.20347 -12944725.63345  22429927.1334                   22429925.8834
 -66777173.63347 -48621455.11745  21385838.1334                   21385837.0474
 -34285742.10946 -26665955.83244  23379532.6254                   23379533.6134
 -50180000.64148 -39043709.18746  20638999.0944                   20638994.7384
 11  8 15  0 30 30.0000000  0  8G25G12G10G17G05G04G09G02
   4668644.88746   3675070.20344  24518067.3524                   24518068.8954
 -26449900.15647 -20572050.38345  21671555.2034                   21671554.0164
 -40061539.61348 -30632127.75445  20930776.3834                   20930774.8134
 -87944178.95747 -68481186.98844  22963890.7814                   22963889.7544
 -16872908.64847 -13089349.30145  22394608.5394                   22394607.5234
 -66793416.51248 -48634111.93745  21382747.0164                   21382745.8874
 -34300218.52047 -26677236.21944  23376777.2974                   23376778.4344
 -50276556.53548 -39118947.53946  20620624.8754                   20620621.1374
 11  8 15  0 31  0.0000000  0  8G25G12G10G17G05G04G09G02
   4476977.25046   3525718.86344  24481594.6564                   24481596.9344
 -26606710.34047 -20694240.12945  21641715.7974                   21641713.8954
 -40165233.11747 -30712927.88345  20911043.9534                   20911042.5634
 -87983181.15247 -68511578.35244  22956468.6724                   22956467.7234
 -17058195.98447 -13233728.98045  22359349.1804                   22359348.5394
 -66809395.13747 -48646562.84845  21379706.7034                   21379705.5354
 -34314381.47346 -26688272.34844  23374082.6564                   23374082.8444
 -50372720.27048 -39193880.30546  20602325.4144                   20602321.3714
 11  8 15  0 31 30.0000000  0  8G25G12G10G17G05G04G09G02
   4285511.53147   3376524.84843  24445159.9534                   24445161.6994
 -26763058.52747 -20816069.87546  21611963.3754                   21611961.5394
 -40268229.67247 -30793184.93445  20891444.5474                   20891443.1294
 -88021959.91846 -68541795.62544  22949089.8754                   22949088.0824
 -17243164.87947 -13377860.53545  22324150.6414                   22324149.8714
 -66825109.08247 -48658807.51245  21376716.7424                   21376715.4964
 -34328231.94946 -26699064.98044  23371447.4924                   23371447.4344
 -50468490.19148 -39268506.20346  20584101.2114                   20584097.5274
 11  8 15  0 32  0.0000000  0  8G25G12G10G17G05G04G09G02
   4094251.93046   3227491.44144  24408764.5004                   24408766.2664
 -26918940.55147 -20937536.36346  21582300.2974                   21582298.3014
 -40370526.57847 -30872896.79345  20871977.8134                   20871976.3134
 -88060512.94547 -68571837.00044  22941753.2424                   22941752.0354
 -17427810.69947 -13521740.34445  22289013.2664                   22289012.7194
 -66840559.12547 -48670846.55145  21373776.9534                   21373775.3554
 -34341771.66046 -26709615.44943  23368870.2734                   23368871.2074
 -50563866.00848 -39342825.02046  20565951.6094                   20565947.3714
 11  8 15  0 32 30.0000000  0  8G25G12G10G17G05G04G09G02
   3903201.02347   3078620.63744  24372408.0004                   24372410.3834
 -27074353.87547 -21058637.64546  21552725.7274                   21552723.6334
 -40472122.95747 -30952062.78945  20852644.5864                   20852643.3284
 -88098839.75846 -68601702.09844  22934459.8284                   22934458.7384
 -17612130.60947 -13665366.18745  22253938.2734                   22253938.0864
 -66855747.28147 -48682681.50845  21370886.1414                   21370885.3444
 -34355003.64546 -26719926.15644  23366352.8364                   23366353.2624
 -50658848.60548 -39416837.42246  20547877.0864                   20547872.7584
 11  8 15  0 33  0.0000000  0  8G25G12G10G17G05G04G09G02
   3712353.39547   2929908.27044  24336091.0234                   24336093.1914
 -27229304.19548 -21179378.15246  21523240.3914                   21523238.1174
 -40573025.89848 -31030688.44945  20833443.6024                   20833442.3674
 -88136947.26246 -68631396.31644  22927208.6564                   22927207.4414
 -17796129.38747 -13808741.80145  22218925.2034                   22218924.5394
 -66870683.48048 -48694320.14845  21368044.0394                   21368043.0824
 -34367939.30146 -26730005.94143  23363891.2504                   23363891.9304
 -50753446.98448 -39490550.43746  20529875.4384                   20529871.6484
 11  8 15  0 33 30.0000000  0  8G25G12G10G17G05G04G09G02
   3521717.21946   2781360.64144  24299814.5474                   24299816.4144
 -27383783.09847 -21299751.30146  21493843.7424                   21493841.6564
 -40673228.82048 -31108768.63345  20814375.8594                   20814374.3594
 -88174829.43746 -68660914.93044  22919999.0084                   22919998.7274
 -17979798.37147 -13951860.44145  22183973.3524                   22183972.9614
 -66885364.11348 -48705759.62945  21365250.4384                   21365249.2664
 -34380576.34846 -26739853.05943  23361486.0474                   23361486.7704
 -50847656.68048 -39563960.57446  20511948.0634                   20511944.0784
 11  8 15  0 34  0.0000000  0  8G25G12G10G17G05G04G09G02
   3331292.61346   2632977.87944  24263577.6484                   24263579.1024
 -27537790.28947 -21419756.90245  21464536.7504                   21464534.7814
 -40772733.36347 -31186304.62145  20795440.7194                   20795439.1914
 -88212488.27046 -68690259.52344  22912833.3444                   22912832.2814
 -18163137.00047 -14094721.67245  22149085.4774                   22149084.8524
 -66899793.97747 -48717003.72345  21362504.7734                   21362503.6564
 -34392921.21546 -26749472.46543  23359137.0554                   23359138.1094
 -50941480.70348 -39637070.19546  20494093.8984                   20494089.7074
 11  8 15  0 34 30.0000000  0  8G25G12G10G17G05G04G09G02
   3141085.27746   2484764.40643  24227382.7194                   24227384.0474
 -27691320.46948 -21539390.78946  21435321.2194                   21435319.0314
 -40871535.34447 -31263293.16845  20776639.1024                   20776637.8404
 -88249920.01646 -68719427.16844  22905710.1414                   22905709.2664
 -18346139.34047 -14237320.83645  22114261.4694                   22114260.6564
 -66913971.96948 -48728051.53945  21359806.8364                   21359805.4774
 -34404973.55947 -26758863.97743  23356843.8914                   23356844.8054
 -51034916.96948 -39709877.67246  20476313.8134                   20476309.9264
 11  8 15  0 35  0.0000000  0  8G25G12G10G17G05G04G09G02
   2951094.43846   2336719.62943  24191228.7274                   24191229.8014
 -27844375.08248 -21658654.10546  21406196.5004                   21406193.8834
 -40969637.84048 -31339736.65645  20757970.5944                   20757969.3714
 -88287127.41847 -68748420.00844  22898629.6954                   22898628.9694
 -18528805.64147 -14379658.15645  22079500.8984                   22079500.2934
 -66927903.67248 -48738907.45345  21357155.8134                   21357154.3794
 -34416740.43747 -26768033.01644  23354605.5084                   23354605.7704
 -51127970.10548 -39782386.60546  20458605.9844                   20458601.8404
 11  8 15  0 35 30.0000000  0  8G25G12G10G17G05G04G09G02
   4336746.69946   3416448.69943  24454909.0634                   24454911.0864
 -26421528.33647 -20549942.34845  21676954.6804                   21676952.8094
 -39491618.93448 -30188033.60945  21039228.8134                   21039227.0904
 -86748690.74247 -67549638.23844  23191384.6094                   23191383.6174
 -17135709.23847 -13294128.42245  22344598.4774                   22344597.6294
 -65366172.63747 -47521974.21545  21654343.4304                   21654341.9614
 -32852807.05546 -25549383.68044  23652211.3444                   23652211.9574
 -49645220.01248 -38626996.91446  20740764.0474                   20740759.8524
 11  8 15  0 36  0.0000000  0  8G25G12G10G17G05G04G09G02
   4147195.49246   3268746.45743  24418837.9844                   24418840.5234
 -26573624.47748 -20668458.80546  21648011.8524                   21648009.4384
 -39588320.80148 -30263385.70345  21020826.9064                   21020825.1764
 -86785448.44947 -67578280.66044  23184390.2894                   23184389.1844
 -17317695.71547 -13435936.00445  22309966.7504                   22309966.9304
 -65379618.57047 -47532451.61345  21651784.6024                   21651783.2584
 -32864014.05547 -25558116.48844  23650078.7344                   23650080.3484
 -49737510.75848 -38698911.78146  20723201.9454                   20723197.4774
 11  8 15  0 36 30.0000000  0  8G25G12G10G17G05G04G09G02
   3957864.34846   3121215.72343  24382809.8914                   24382811.6174
 -26725241.30547 -20786601.77046  21619160.1884                   21619157.9494
 -39684325.10948 -30338194.23845  21002557.7344                   21002556.4144
 -86821984.03147 -67606749.99244  23177437.8754                   23177436.6484
 -17499341.28547 -13577477.94145  22275401.0474                   22275400.9844
 -65392828.59048 -47542745.17245  21649270.9694                   21649270.0904
 -32874949.69947 -25566637.82844  23647997.8984                   23647998.6334
 -49829425.40248 -38770533.58246  20705710.9534                   20705706.9494
 11  8 15  0 37  0.0000000  0  8G25G12G10G17G05G04G09G02
   3768763.00446   2973864.05543  24346825.6484                   24346827.2034
 -26876369.40247 -20904363.90246  21590401.4774                   21590399.1884
 -39779624.20348 -30412453.26245  20984422.9534                   20984421.6954
 -86858289.99647 -67635040.41044  23170528.7664                   23170528.1214
 -17680636.34847 -13718746.77345  22240902.2424                   22240901.4734
 -65405797.27747 -47552850.68445  21646802.9924                   21646801.9844
 -32885610.40646 -25574944.93443  23645969.3754                   23645969.8714
 -49920957.91448 -38841857.61746  20688293.1484                   20688288.4924
 11  8 15  0 37 30.0000000  0  8G25G12G10G17G05G04G09G02
   3579889.88746   2826690.18043  24310883.5004                   24310885.4804
 -27027010.43747 -21021746.52046  21561735.2974                   21561733.0004
 -39874221.58247 -30486165.50045  20966421.6174                   20966420.0274
 -86894369.78947 -67663154.57444  23163662.9844                   23163662.5554
 -17861581.68447 -13859743.08245  22206469.1094                   22206468.1804
 -65418531.12147 -47562773.19945  21644379.9924                   21644378.6954
 -32896003.92646 -25583043.83244  23643991.5164                   23643992.2584
 -50012113.39548 -38912887.84446  20670946.6484                   20670942.5904
 11  8 15  0 38  0.0000000  0  8G25G12G10G17G05G04G09G02
   3391242.86346   2679692.49643  24274985.4144                   24274987.1094
 -27177166.85547 -21138751.50046  21533161.6024                   21533159.1604
 -39968121.35248 -30559334.13745  20948553.3054                   20948551.9734
 -86930227.41847 -67691095.62944  23156839.7194                   23156838.9414
 -18042179.20747 -14000468.36345  22172102.8594                   22172101.8954
 -65431036.87147 -47572517.98045  21642000.1644                   21641999.1294
 -32906138.05146 -25590940.61743  23642062.9844                   23642063.9534
 -50102897.88348 -38983629.00846  20653670.7344                   20653666.9924
 11  8 15  0 38 30.0000000  0  8G25G12G10G17G05G04G09G02
   3202826.45746   2532874.52743  24239131.0004                   24239132.5354
 -27326834.26247 -21255375.43046  21504680.6564                   21504678.4264
 -40061320.85247 -30631957.12145  20930817.7274                   20930816.2274
 -86965860.58647 -67718861.78544  23150058.9304                   23150058.1254
 -18222424.06247 -14140918.83645  22137802.9144                   22137802.6454
 -65443314.43747 -47582084.95345  21639663.9924                   21639662.4614
 -32916014.13346 -25598636.35543  23640184.1094                   23640184.7344
 -50193310.24247 -39054080.19946  20636465.9844                   20636462.0594
 11  8 15  0 39  0.0000000  0  8G25G12G10G17G05G04G09G02
   3014640.94147   2386236.49643  24203320.6804                   24203322.5124
 -27476012.72747 -21371618.37146  21476292.8524                   21476290.8484
 -40153822.04747 -30704035.96945  20913215.9224                   20913214.1684
 -87001270.82047 -67746454.22344  23143320.2504                   23143320.2274
 -18402315.65647 -14281094.04745  22103570.8054                   22103569.7074
 -65455368.37147 -47591477.66845  21637370.5394                   21637369.0634
 -32925638.16046 -25606135.68043  23638353.0554                   23638353.6724
 -50283353.91848 -39124244.09446  20619331.2814                   20619327.3524
 11  8 15  0 39 30.0000000  0  8G25G12G10G17G05G04G09G02
   2826689.47746   2239780.82044  24167554.7814                   24167556.2384
 -27624698.97747 -21487477.76646  21447999.0084                   21447996.5434
 -40245624.14147 -30775570.05946  20895746.3204                   20895744.6024
 -87036457.10947 -67773872.17244  23136625.2504                   23136624.4774
 -18581850.34847 -14420991.15245  22069405.2894                   22069405.5274
 -65467200.14847 -47600697.27045  21635118.6644                   21635117.0354
 -32935012.92247 -25613440.76644  23636568.9534                   23636569.3984
 -50373029.32048 -39194121.03146  20602266.2584                   20602262.1684
 11  8 15  0 40  0.0000000  0  8G25G12G10G17G05G04G09G02
   2638974.63746   2093509.55943  24131833.5784                   24131835.3914
 -27772890.94947 -21602952.00846  21419798.7034                   21419796.7344
 -40336726.49247 -30846558.88745  20878409.8444                   20878408.2544
 -87071419.00847 -67801115.26244  23129971.9924                   23129971.0514
 -18761025.34047 -14560607.97345  22035310.2114                   22035309.8204
 -65478811.82847 -47609745.36345  21632909.2974                   21632907.9024
 -32944142.05946 -25620554.45744  23634831.3054                   23634832.6484
 -50462337.88748 -39263712.12546  20585271.5314                   20585267.9344
 11  8 15  0 40 30.0000000  0  8G25G12G10G17G05G04G09G02
   2451498.36747   1947424.18843  24096158.5784                   24096160.0274
 -27920586.71147 -21718039.59046  21391693.2344                   21391691.3014
 -40427129.59447 -30917002.85945  20861206.4924                   20861204.9844
 -87106156.53947 -67828183.51644  23123361.4774                   23123360.8134
 -18939838.58647 -14699942.92645  22001283.7424                   22001282.9144
 -65490206.08647 -47618624.03945  21630740.2894                   21630739.8634
 -32953029.39146 -25627479.73443  23633139.4614                   23633141.4454
 -50551281.11748 -39333018.53946  20568346.2584                   20568342.5354
 11  8 15  0 41  0.0000000  0  8G25G12G10G17G05G04G09G02
   2264261.64547   1801525.50444  24060528.1254                   24060529.8634
 -28067786.03547 -21832740.34046  21363681.8984                   21363679.9264
 -40516834.30947 -30986902.63745  20844136.6564                   20844134.8634
 -87140670.62547 -67855077.66444  23116794.2034                   23116792.9844
 -19118288.57047 -14838994.81645  21967325.7664                   21967324.5434
 -65501386.48847 -47627336.07045  21628613.1334                   21628611.9924
 -32961679.93046 -25634220.50443  23631494.0634                   23631495.0744
 -50639861.70347 -39402042.37546  20551489.9454                   20551486.0124
 11  8 15  0 41 30.0000000  0  8G25G12G10G17G05G04G09G02
   2077268.92646   1655816.93843  24024944.3754                   24024946.2734
 -28214484.27047 -21947050.62546  21335766.2114                   21335764.2734
 -40605838.74247 -31056256.73845  20827199.5554                   20827197.5124
 -87174959.18047 -67881796.06644  23110269.0784                   23110268.2704
 -19296370.51647 -14977759.92245  21933437.5704                   21933436.5594
 -65512353.35547 -47635881.69545  21626525.7584                   21626524.6844
 -32970095.26646 -25640777.98844  23629893.1024                   23629894.1294
 -50728079.03948 -39470783.15646  20534702.8674                   20534698.7194
 11  8 15  0 42  0.0000000  0  8G25G12G10G17G05G04G09G02
   1890522.11746   1510300.02343  23989407.5704                   23989409.5434
 -28360680.21547 -22060969.52346  21307946.1254                   21307944.0434
 -40694143.37147 -31125065.52745  20810395.5314                   20810394.1054
 -87209022.30147 -67908338.80144  23103787.1334                   23103786.3674
 -19474082.52047 -15116236.75045  21899620.0234                   21899619.5354
 -65523109.18748 -47644262.89845  21624479.4384                   21624478.5394
 -32978279.38746 -25647155.32843  23628336.0004                   23628336.8634
 -50815934.77347 -39539242.18046  20517984.2894                   20517980.0704
 11  8 15  0 42 30.0000000  0  8G25G12G10G17G05G04G09G02
   1704022.21946   1364975.49643  23953917.8204                   23953919.9844
 -28506372.93047 -22174496.29746  21280221.5944                   21280219.2774
 -40781749.32047 -31193329.89845  20793724.3984                   20793723.0234
 -87242861.08247 -67934706.72344  23097347.3914                   23097347.3524
 -19651423.03947 -15254424.10945  21865873.3364                   21865872.0394
 -65533657.58647 -47652482.44145  21622472.3914                   21622470.6564
 -32986237.31246 -25653356.38743  23626821.1724                   23626822.4414
 -50903431.56248 -39607421.49646  20501333.8594                   20501330.1524
 11  8 15  0 43  0.0000000  0  8G25G12G10G17G05G04G09G02
   1517769.30146   1219843.39843  23918475.2504                   23918476.5904
 -28651562.71547 -22287631.19146  21252592.6644                   21252590.8754
 -40868658.69547 -31261051.48845  20777186.4614                   20777185.0044
 -87276476.82846 -67960900.84444  23090950.4844                   23090950.4144
 -19828391.93747 -15392321.90645  21832197.5554                   21832196.4144
 -65544003.24647 -47660544.03145  21620504.0704                   21620502.3324
 -32993975.10246 -25659385.91443  23625349.0394                   23625350.3954
 -50990573.07048 -39675323.96946  20484751.5474                   20484747.7974
 11  8 15  0 43 30.0000000  0  8G25G12G10G17G05G04G09G02
   1331765.35246   1074905.31343  23883079.7974                   23883081.3874
 -28796247.99647 -22400372.95346  21225060.3524                   21225057.5594
 -40954872.15247 -31328230.80945  20760780.6484                   20760778.9614
 -87309870.53147 -67986921.94544  23084596.2814                   23084595.7274
 -20004986.97347 -15529928.37545  21798592.2974                   21798591.5234
 -65554148.59848 -47668449.52345  21618573.1884                   21618571.6134
 -33001496.79746 -25665247.08643  23623918.3834                   23623918.5164
 -51077361.39148 -39742951.23446  20468236.5164                   20468232.4344
 11  8 15  0 44  0.0000000  0  8G25G12G10G17G05G04G09G02
   1146018.61746    930167.67644  23847733.7814                   23847735.1564
 -28940420.77747 -22512715.37546  21197625.0554                   21197622.6484
 -41040383.71147 -31394863.18745  20744508.1804                   20744506.9224
 -87343035.92647 -68012765.15244  23078285.1094                   23078284.9344
 -20181199.44547 -15667236.74245  21765060.2344                   21765059.3954
 -65564090.21147 -47676196.26645  21616681.5394                   21616680.0474
 -33008799.87946 -25670937.83243  23622527.3284                   23622528.9264
 -51163791.72348 -39810299.53546  20451789.4694                   20451785.2974
 11  8 15  0 44 30.0000000  0  8G25G12G10G17G05G04G09G02
   2535950.03946   2013231.16443  24112228.2664                   24112230.0354
 -27508661.89847 -21397059.10946  21470079.7424                   21470077.7814
 -39549778.35947 -30233352.53145  21028160.7664                   21028159.6374
 -85800558.94947 -66810835.08244  23371809.3284                   23371808.4574
 -18781608.69147 -14576646.50445  22031393.2734                   22031392.4224
 -63998417.57447 -46456191.62945  21914618.8914                   21914617.2774
 -31440475.78547 -24448867.19144  23920970.0234                   23920971.2774
 -49674450.19948 -38649773.67646  20735201.6334                   20735197.9184
 11  8 15  0 45  0.0000000  0  8G25G12G10G17G05G04G09G02
   2350713.47346   1868891.05943  24076978.6024                   24076980.6334
 -27651814.99247 -21508606.98046  21442838.6954                   21442836.7384
 -39633898.42248 -30298900.62145  21012153.6414                   21012152.0664
 -85833277.90647 -66836330.41444  23365583.7114                   23365582.4104
 -18957059.77747 -14713361.59045  21998006.4454                   21998004.8594
 -64007969.33647 -46463634.57845  21912801.2664                   21912800.1054
 -31447364.71547 -24454235.28543  23919659.9224                   23919659.8404
 -49760180.21948 -38716576.28946  20718887.8444                   20718884.3204
 11  8 15  0 45 30.0000000  0  8G25G12G10G17G05G04G09G02
   2165738.27046   1724754.57043  24041779.1174                   24041780.7344
 -27794452.81247 -21619753.32846  21415695.5864                   21415693.5704
 -39717320.02347 -30363904.46145  20996279.0634                   20996277.3914
 -85865770.60247 -66861649.44144  23359399.7664                   23359398.8874
 -19132123.49647 -14849774.82845  21964692.6174                   21964691.2894
 -64017326.91447 -46470926.23045  21911020.6484                   21911019.6604
 -31454049.23446 -24459444.02743  23918387.0944                   23918388.4384
 -49845559.16047 -38783105.34046  20702640.8674                   20702636.9534
 11  8 15  0 46  0.0000000  0  8G25G12G10G17G05G04G09G02
   1981023.68846   1580821.18844  24006629.2734                   24006630.8524
 -27936576.42648 -21730499.01246  21388650.3834                   21388648.2234
 -39800046.75847 -30428366.84445  20980537.1804                   20980534.8164
 -85898039.59447 -66886794.15644  23353259.2344                   23353258.3404
 -19306800.79347 -14985886.96545  21931452.2894                   21931451.3484
 -64026495.65647 -46478070.72345  21909276.0164                   21909274.6414
 -31460535.81646 -24464498.61743  23917153.6644                   23917154.2344
 -49930592.01248 -38849364.71146  20686459.6334                   20686455.6804
 11  8 15  0 46 30.0000000  0  8G25G12G10G17G05G04G09G02
   1796575.34047   1437095.23044  23971529.5474                   23971531.2814
 -28078180.50447 -21840839.86346  21361703.6884                   21361701.9694
 -39882075.55147 -30492285.38345  20964926.9304                   20964924.9384
 -85930081.57847 -66911761.96544  23347161.7584                   23347161.1454
 -19481085.58247 -15121693.23845  21898287.4924                   21898286.4734
 -64035474.48047 -46485067.25045  21907567.5864                   21907566.0984
 -31466825.28546 -24469399.55143  23915956.0864                   23915957.5084
 -50015276.82447 -38915352.86346  20670344.8754                   20670340.8404
 11  8 15  0 47  0.0000000  0  8G25G12G10G17G05G04G09G02
   1612396.95347   1293579.64143  23936482.1414                   23936483.2934
 -28219261.36347 -21950773.00446  21334857.2814                   21334855.2074
 -39963405.00848 -30555658.98845  20949450.5084                   20949448.9774
 -85961895.09047 -66936551.75444  23341107.5864                   23341106.9384
 -19654973.93747 -15257190.61345  21865197.5394                   21865196.3404
 -64044264.01647 -46491916.25845  21905894.7344                   21905893.5434
 -31472919.69546 -24474148.52343  23914796.8984                   23914798.5084
 -50099613.58248 -38981069.81646  20654296.0314                   20654291.9924
 11  8 15  0 47 30.0000000  0  8G25G12G10G17G05G04G09G02
   1428487.60547   1150273.69144  23901484.9384                   23901485.9734
 -28359821.20347 -22060300.15646  21308109.6094                   21308107.2894
 -40044038.84847 -30618490.54745  20934106.7034                   20934104.8404
 -85993483.03547 -66961165.79744  23335097.2034                   23335096.2154
 -19828466.64547 -15392379.69145  21832182.9924                   21832181.8484
 -64052869.94947 -46498622.21145  21904257.2344                   21904255.9614
 -31478826.06247 -24478750.93743  23913672.7974                   23913674.1294
 -50183606.89147 -39046519.14846  20638312.6884                   20638308.5044
 11  8 15  0 48  0.0000000  0  8G25G12G10G17G05G04G09G02
   1244849.75047   1007179.29344  23866540.3054                   23866541.1644
 -28499858.09848 -22169419.82446  21281461.1024                   21281459.3364
 -40123977.43748 -30680780.35245  20918894.5394                   20918893.1214
 -86024845.46947 -66985604.10944  23329129.0234                   23329128.1134
 -20001561.15647 -15527258.48045  21799244.3914                   21799243.0044
 -64061294.40247 -46505186.73445  21902653.8914                   21902652.6524
 -31484547.98447 -24483209.63343  23912584.2584                   23912585.1644
 -50267258.23448 -39111702.01246  20622394.0554                   20622390.4574
 11  8 15  0 48 30.0000000  0  8G25G12G10G17G05G04G09G02
   1061486.68047    864299.01243  23831647.5164                   23831648.0904
 -28639368.62148 -22278129.33246  21254913.6174                   21254911.3014
 -40203220.02048 -30742527.82846  20903815.0554                   20903813.8984
 -86055981.01247 -67009865.61744  23323204.1254                   23323203.1334
 -20174254.10947 -15661824.37145  21766381.5704                   21766380.4304
 -64069538.34847 -46511610.62145  21901085.1804                   21901084.4024
 -31490088.04746 -24487526.58643  23911529.5084                   23911530.9804
 -50350568.03148 -39176618.73846  20606540.7344                   20606536.9384
 11  8 15  0 49  0.0000000  0  8G25G12G10G17G05G04G09G02
    878400.62147    721634.59844  23796806.8674                   23796808.3634
 -28778351.22347 -22386427.47746  21228466.2504                   21228464.0704
 -40281767.44948 -30803733.60545  20888867.7894                   20888866.6994
 -86086889.74247 -67033950.39144  23317322.4384                   23317321.3204
 -20346542.85247 -15796075.29745  21733595.9384                   21733594.9804
 -64077604.41847 -46517895.89845  21899550.3444                   21899549.1484
 -31495450.09046 -24491704.87943  23910509.5314                   23910510.4064
 -50433537.82048 -39241270.51646  20590752.1954                   20590748.4534
 11  8 15  0 49 30.0000000  0  8G25G12G10G17G05G04G09G02
    695588.76247    579183.83644  23762019.1024                   23762020.1724
 -28916809.32848 -22494316.90646  21202118.2894                   21202116.2624
 -40359625.02747 -30864401.85545  20874052.5864                   20874050.7854
 -86117575.92647 -67057861.75044  23311483.6334                   23311483.1214
 -20518430.51647 -15930013.68745  21700886.8134                   21700886.1214
 -64085499.71947 -46524048.11345  21898047.9844                   21898046.8674
 -31500643.19546 -24495751.52043  23909521.3594                   23909522.6844
 -50516174.19948 -39305662.50046  20575026.8984                   20575022.7894
 11  8 15  0 50  0.0000000  0  8G25G12G10G17G05G04G09G02
    513056.50846    436950.96144  23727283.8284                   23727285.9144
 -29054737.98448 -22601793.77346  21175871.5394                   21175869.2154
 -40436790.45748 -30924530.77045  20859368.2974                   20859366.8594
 -86148037.26246 -67081597.92644  23305686.0944                   23305685.9024
 -20689910.99247 -16063634.78945  21668255.1644                   21668254.1524
 -64093223.50047 -46530066.67245  21896578.4614                   21896577.0514
 -31505667.53546 -24499666.62143  23908565.4534                   23908566.8054
 -50598475.80548 -39369793.62146  20559365.5234                   20559361.5004
 11  8 15  0 50 30.0000000  0  8G25G12G10G17G05G04G09G02
    330800.98047    294933.71144  23692602.2194                   23692603.6604
 -29192140.87948 -22708860.97346  21149724.5234                   21149722.1134
 -40513269.53548 -30984124.86345  20844815.1094                   20844813.3754
 -86178278.74647 -67105162.76644  23299932.1414                   23299930.9804
 -20860987.25047 -16196940.91845  21635700.4454                   21635699.4064
 -64100783.07447 -46535957.27745  21895139.2584                   21895138.9734
 -31510532.18046 -24503457.33643  23907639.6174                   23907640.9224
 -50680449.20348 -39433668.99646  20543766.3674                   20543762.7274
 11  8 15  0 51  0.0000000  0  8G25G12G10G17G05G04G09G02
    148833.84046    153141.18444  23657973.9844                   23657976.5354
 -29329006.68048 -22815509.64546  21123679.7974                   21123677.7384
 -40589053.39848 -31043177.22745  20830393.7194                   20830392.0164
 -86208290.50447 -67128548.59044  23294222.9924                   23294220.3914
 -21031647.82447 -16329923.13345  21603224.4384                   21603223.5124
 -64108171.43047 -46541714.46945  21893733.6884                   21893732.8674
 -31515231.46546 -24507119.18743  23906744.9924                   23906746.3404
 -50762086.68048 -39497282.62146  20528231.5234                   20528227.7114
 11  8 15  0 51 30.0000000  0  8G25G12G10G17G05G04G09G02
    -32851.12146     11568.52344  23623400.9384                   23623402.9964
 -29465342.25848 -22921745.14846  21097735.8524                   21097733.8524
 -40664150.72348 -31101694.61745  20816103.4224                   20816101.5864
 -86238080.85246 -67151761.89544  23288551.6884                   23288552.0044
 -21201898.76247 -16462586.14545  21570826.6954                   21570826.0084
 -64115399.12947 -46547346.47745  21892358.4144                   21892357.3244
 -31519777.59446 -24510661.65243  23905879.7894                   23905881.4024
 -50843398.03548 -39560642.11746  20512758.3364                   20512754.3674
 11  8 15  0 52  0.0000000  0  8G25G12G10G17G05G04G09G02
   -214249.66046   -129780.95344  23588882.1484                   23588883.9024
 -29601143.79348 -23027564.52046  21071893.3984                   21071891.5434
 -40738560.46548 -31159676.24245  20801943.3054                   20801941.9184
 -86267647.84046 -67174801.14844  23282925.6024                   23282924.5514
 -21371735.56247 -16594926.47345  21538508.2974                   21538507.5554
 -64122466.45747 -46552853.51645  21891013.2894                   21891012.5704
 -31524172.22346 -24514086.12943  23905044.0474                   23905045.5084
 -50924382.96548 -39623747.25446  20497347.6254                   20497343.4414
 11  8 15  0 52 30.0000000  0  8G25G12G10G17G05G04G09G02
   -395359.19546   -270905.21544  23554417.9384                   23554419.6914
 -29736409.58248 -23132966.41446  21046153.4144                   21046151.3284
 -40812283.09848 -31217122.45345  20787914.5084                   20787912.9344
 -86296991.52746 -67197666.43444  23277342.2974                   23277341.7504
 -21541155.66447 -16726942.09045  21506268.6254                   21506267.3754
 -64129375.22347 -46558237.00845  21889698.6334                   21889698.0084
 -31528418.76246 -24517395.18743  23904235.3914                   23904237.4304
 -51005042.77348 -39686599.05946  20481998.4694                   20481994.2934
 11  8 15  0 53  0.0000000  0  8G25G12G10G17G05G04G09G02
   -576177.32447   -411802.41844  23520009.1414                   23520011.8674
 -29871137.70748 -23237949.36746  21020515.5634                   21020513.3204
 -40885319.19147 -31274033.68745  20774015.9224                   20774015.0274
 -86326111.28146 -67220357.21144  23271799.9844                   23271800.4384
 -21710156.91047 -16858631.33245  21474108.7034                   21474107.7974
 -64136127.59847 -46563498.63344  21888414.1174                   21888413.2584
 -31532521.00846 -24520591.82443  23903455.1414                   23903457.4024
 -51085379.00448 -39749198.71946  20466711.0234                   20466706.8134
 11  8 15  0 53 30.0000000  0  8G25G12G10G17G05G04G09G02
    818728.34047    675137.07044  23785451.7814                   23785452.7584
 -28429898.05948 -22114905.47346  21294774.6484                   21294772.3094
 -39382243.12147 -30102805.59045  21060042.0164                   21060040.5044
 -84779582.12146 -66015269.58644  23566095.0704                   23566094.8714
 -20303306.78147 -15762384.42645  21741822.8284                   21741822.1054
 -62567301.42647 -45341036.71144  22186951.2274                   22186950.5044
 -29961058.53546 -23296075.69143  24202494.4064                   24202496.7274
 -49589966.48048 -38583942.20346  20751278.3594                   20751274.6374
 11  8 15  0 54  0.0000000  0  8G25G12G10G17G05G04G09G02
    638506.31347    534704.34044  23751156.5634                   23751158.0514
 -28563539.80147 -22219041.88746  21269342.9534                   21269341.1684
 -39453902.34847 -30158643.94945  21046405.4614                   21046404.3054
 -84808247.68046 -66037606.43044  23560640.5784                   23560639.4304
 -20471456.20347 -15893409.90646  21709825.3914                   21709824.4694
 -62573741.14847 -45346054.71545  22185725.9064                   22185725.4774
 -29964876.86746 -23299051.12143  24201768.0634                   24201769.7664
 -49669653.67648 -38646036.11746  20736114.5234                   20736110.4534
 11  8 15  0 54 30.0000000  0  8G25G12G10G17G05G04G09G02
    458584.60947    394505.63744  23716918.3594                   23716919.8284
 -28696636.98447 -22322753.96546  21244015.5634                   21244013.4734
 -39524875.45347 -30213947.66445  21032900.0784                   21032898.6844
 -84836686.91046 -66059766.91444  23555228.8284                   23555227.4184
 -20639177.49647 -16024101.77745  21677909.6024                   21677908.1094
 -62580028.98847 -45350954.36344  22184529.6804                   22184528.4304
 -29968559.98046 -23301921.18043  24201066.6644                   24201068.6254
 -49749019.82048 -38707879.87146  20721011.6174                   20721007.8324
 11  8 15  0 55  0.0000000  0  8G25G12G10G17G05G04G09G02
    278965.15647    254542.43444  23682737.4614                   23682739.3094
 -28829188.33248 -22426040.71946  21218792.0704                   21218789.7774
 -39595163.39548 -30268717.48445  21019524.4844                   21019523.4614
 -84864900.33246 -66081751.43744  23549859.4614                   23549859.7034
 -20806468.67247 -16154458.49646  21646074.6724                   21646073.4104
 -62586167.34047 -45355737.52745  22183361.6644                   22183360.5354
 -29972111.49246 -23304688.66843  24200392.0634                   24200392.9804
 -49828066.61748 -38769474.78146  20705969.8134                   20705965.5204
 11  8 15  0 55 30.0000000  0  8G25G12G10G17G05G04G09G02
     99647.79347    114814.62544  23648614.8134                   23648616.3594
 -28961194.94548 -22528903.01646  21193672.0164                   21193669.3984
 -39664769.68047 -30322956.14845  21006278.9534                   21006277.4454
 -84892890.62146 -66103562.12944  23544533.3594                   23544532.8404
 -20973330.03147 -16284480.28545  21614322.1804                   21614320.5904
 -62592160.78947 -45360407.77744  22182220.9844                   22182219.9964
 -29975537.82046 -23307358.62143  24199740.0314                   24199741.4734
 -49906798.43048 -38830824.25046  20690987.4774                   20690983.5354
 11  8 15  0 56  0.0000000  0  8G25G12G10G17G05G04G09G02
    -79362.29347    -24673.73444  23614550.4614                   23614551.8164
 -29092651.96148 -22631337.05546  21168656.7034                   21168654.4344
 -39733692.46547 -30376662.21145  20993163.7194                   20993161.7584
 -84920654.84846 -66125196.60944  23539249.9304                   23539249.2234
 -21139756.14548 -16414162.94146  21582652.2114                   21582651.2814
 -62598008.85947 -45364964.74244  22181108.1334                   22181107.3874
 -29978839.98046 -23309931.82043  24199111.5864                   24199112.7344
 -49985213.73848 -38891927.08646  20676065.5784                   20676061.4844
 11  8 15  0 56 30.0000000  0  8G25G12G10G17G05G04G09G02
   -258062.89547   -163920.96144  23580545.3054                   23580546.2034
 -29223558.49247 -22733342.14846  21143745.7424                   21143744.0434
 -39801932.54747 -30429836.30145  20980177.8594                   20980175.8794
 -84948192.60946 -66146654.66044  23534009.4844                   23534009.0634
 -21305744.87947 -16543504.76245  21551065.6024                   21551064.1254
 -62603713.34447 -45369409.82845  22180022.6334                   22180021.7544
 -29982021.36746 -23312410.91443  24198506.3054                   24198507.5904
 -50063314.32048 -38952784.68746  20661203.3914                   20661199.3874
 11  8 15  0 57  0.0000000  0  8G25G12G10G17G05G04G09G02
   -436452.47347   -302925.82444  23546598.9534                   23546599.8164
 -29353913.53948 -22834917.50846  21118939.6254                   21118937.6604
 -39869491.81647 -30482479.88345  20967321.6334                   20967320.1024
 -84975504.73846 -66167936.86744  23528812.6954                   23528811.9534
 -21471295.15647 -16672504.93045  21519562.3594                   21519560.9534
 -62609277.42647 -45373745.51645  22178963.9694                   22178963.1724
 -29985086.63746 -23314799.52043  24197921.9614                   24197924.7814
 -50141102.40648 -39013398.78146  20646400.8204                   20646396.6604
 11  8 15  0 57 30.0000000  0  8G25G12G10G17G05G04G09G02
   -614530.64147   -441688.01644  23512710.9534                   23512712.1024
 -29483717.48848 -22936063.44946  21094239.3284                   21094236.8674
 -39936373.12147 -30534595.18445  20954594.5234                   20954592.8444
 -85002593.30147 -66189044.87944  23523658.2814                   23523657.1524
 -21636406.21947 -16801162.86345  21488142.6484                   21488141.5274
 -62614705.06247 -45377974.88745  22177930.9384                   22177930.0824
 -29988041.13746 -23317101.84443  24197360.5394                   24197362.6334
 -50218581.43448 -39073772.06246  20631656.9924                   20631653.1174
 11  8 15  0 58  0.0000000  0  8G25G12G10G17G05G04G09G02
   -792297.77747   -580207.85944  23478883.3754                   23478884.1524
 -29612971.43448 -23036780.81246  21069643.0944                   21069640.5944
 -40002580.41847 -30586185.28545  20941995.5704                   20941993.8594
 -85029460.85947 -66209980.67644  23518545.6484                   23518544.7704
 -21801078.64147 -16929478.99646  21456806.3204                   21456805.1134
 -62620001.21547 -45382101.79745  22176923.4694                   22176922.4574
 -29990891.39146 -23319322.92643  24196818.0084                   24196820.1024
 -50295755.65648 -39133907.82846  20616971.3054                   20616967.2774
 11  8 15  0 58 30.0000000  0  8G25G12G10G17G05G04G09G02
   -969747.05547   -718479.99244  23445115.5784                   23445117.2584
 -29741669.19548 -23137064.78946  21045152.5554                   21045150.7584
 -40068110.15647 -30637247.42245  20929525.9304                   20929524.3014
 -85056102.91047 -66230740.76244  23513475.6484                   23513474.9344
 -21965305.71947 -17057448.10546  21425555.3524                   21425553.8954
 -62625163.08247 -45386124.06645  22175940.7974                   22175940.0704
 -29993636.39846 -23321461.98843  24196296.6484                   24196298.2344
 -50372622.20748 -39193803.84846  20602344.1174                   20602340.2384
 11  8 15  0 59  0.0000000  0  8G25G12G10G17G05G04G09G02
  -1146876.67247   -856503.05144  23411409.4304                   23411410.2704
 -29869809.75048 -23236914.59046  21020768.3594                   21020766.1684
 -40132963.68047 -30687782.62945  20917184.6724                   20917183.2274
 -85082519.89547 -66251325.47743  23508448.5634                   23508447.1254
 -22129086.03547 -17185069.08246  21394388.7504                   21394387.3754
 -62630193.28947 -45390043.75444  22174983.9224                   22174982.9774
 -29996280.29346 -23323522.27743  24195793.2344                   24195795.5514
 -50449183.11348 -39253461.71146  20587774.6414                   20587770.7424
 11  8 15  0 59 30.0000000  0  8G25G12G10G17G05G04G09G02
  -1323681.37947   -994272.90644  23377764.4534                   23377765.8634
 -29997389.17648 -23336327.12946  20996490.9064                   20996488.6454
 -40197139.05148 -30737789.41446  20904972.3204                   20904971.2814
 -85108708.94147 -66271732.57044  23503465.0704                   23503463.9064
 -22292413.79747 -17312337.43446  21363308.2114                   21363307.3794
 -62635091.09447 -45393860.25844  22174051.8204                   22174051.1374
 -29998823.58246 -23325504.15643  24195308.7584                   24195311.4804
 -50525437.12948 -39312880.43046  20573264.5164                   20573260.3594
 11  8 15  1  0  0.0000000  0  8G25G12G10G17G05G04G09G02
  -1500158.07847  -1131787.17244  23344181.5164                   23344183.1884
 -30124404.76648 -23435300.32846  20972320.4924                   20972318.2504
 -40260636.55947 -30787267.99245  20892889.5084                   20892887.9574
 -85134669.09847 -66291961.27744  23498524.8914                   23498523.6054
 -22455286.06247 -17439250.84046  21332314.7734                   21332313.9024
 -62639857.60947 -45397574.46545  22173145.6884                   22173144.3094
 -30001269.46146 -23327410.14543  24194843.4924                   24194845.5234
 -50601384.98448 -39372060.59046  20558812.0704                   20558807.9024
 11  8 15  1  0 30.0000000  0  8G25G12G10G17G05G04G09G02
  -1676306.37546  -1269045.55944  23310661.7194                   23310663.3204
 -30250857.58648 -23533835.00846  20948257.0394                   20948254.7194
 -40323459.48448 -30836220.91845  20880934.9304                   20880933.2464
 -85160402.06246 -66312012.95343  23493627.9614                   23493627.6214
 -22617702.77747 -17565809.26646  21301407.7034                   21301406.6684
 -62644496.69547 -45401189.37544  22172261.9924                   22172261.4184
 -30003623.19546 -23329244.34843  24194395.7034                   24194397.5204
 -50677030.11748 -39431004.85946  20544417.2274                   20544413.0234
 11  8 15  1  1  0.0000000  0  8G25G12G10G17G05G04G09G02
  -1852124.03947  -1406046.30944  23277204.7814                   23277205.6334
 -30376745.86348 -23631929.78146  20924301.5314                   20924299.2274
 -40385608.94147 -30884649.07045  20869107.8364                   20869106.3324
 -85185908.26646 -66331887.96943  23488774.5704                   23488773.7974
 -22779662.01247 -17692011.22746  21270587.9614                   21270586.8364
 -62649010.65247 -45404706.78944  22171403.0234                   22171402.0234
 -30005888.46146 -23331009.59843  24193965.8134                   24193966.9694
 -50752373.94548 -39489714.34846  20530079.9844                   20530075.9774
 11  8 15  1  1 30.0000000  0  8G25G12G10G17G05G04G09G02
  -2027612.04347  -1542790.18044  23243810.5554                   23243811.8794
 -30502071.51648 -23729586.14546  20900452.9224                   20900450.6914
 -40447089.67248 -30932556.14545  20857408.4144                   20857407.1484
 -85211190.85946 -66351588.72344  23483963.4454                   23483962.8444
 -22941164.07447 -17817856.95746  21239855.0864                   21239853.9574
 -62653404.69547 -45408130.74644  22170567.0084                   22170566.2544
 -30008072.24246 -23332711.32843  24193550.1094                   24193551.2664
 -50827421.54748 -39548193.00446  20515799.0004                   20515794.5204
 11  8 15  1  2  0.0000000  0  8G25G12G10G17G05G04G09G02
  -2202769.96947  -1679276.84444  23210479.2974                   23210480.1914
 -30626835.23448 -23826804.64146  20876711.3674                   20876708.9494
 -40507904.73047 -30979944.50445  20845835.6954                   20845834.0944
 -85236251.71947 -66371116.69144  23479194.7894                   23479193.8204
 -23102209.96147 -17943347.21146  21209208.7814                   21209207.8054
 -62657682.63747 -45411464.25444  22169752.9924                   22169752.3164
 -30010179.85946 -23334353.75442  24193148.6174                   24193150.0784
 -50902176.24248 -39606443.43046  20501573.4224                   20501569.2504
 11  8 15  1  2 30.0000000  0  8G25G12G10G17G05G04G09G02
   -802164.89147   -587896.24244  23477005.6254                   23477007.2384
 -29175606.49648 -22695977.05946  21152870.8914                   21152868.4534
 -38992628.43447 -29799209.73445  21134182.9064                   21134181.5944
 -83685665.27346 -65162867.54743  23774261.3364                   23774260.4844
 -21687366.83648 -16840872.00846  21478444.6484                   21478443.6724
 -61086421.62947 -44187105.07044  22468754.1334                   22468753.3204
 -28436790.16046 -22108335.85242  24492554.5314                   24492556.4884
 -49401212.44148 -38436861.25846  20787197.0554                   20787193.2624
 11  8 15  1  3  0.0000000  0  8G25G12G10G17G05G04G09G02
   -976649.12547   -723857.95344  23443801.9534                   23443803.8324
 -29299235.27748 -22792311.18046  21129345.0554                   21129342.8484
 -39052109.15647 -29845558.36345  21122864.3444                   21122862.8634
 -83710276.03546 -65182044.78143  23769577.7344                   23769577.3874
 -21847485.90248 -16965640.07846  21447975.4774                   21447973.8914
 -61090466.91447 -44190257.27344  22467984.0634                   22467983.6134
 -28438749.69546 -22109862.83242  24492182.1954                   24492183.4844
 -49475379.65248 -38494653.90246  20773083.8834                   20773080.0314
 11  8 15  1  3 30.0000000  0  8G25G12G10G17G05G04G09G02
  -1150794.43447   -859555.57444  23410663.6254                   23410664.6884
 -29422295.99648 -22888202.65646  21105927.4694                   21105925.2974
 -39110926.07848 -29891389.73445  21111671.6804                   21111670.3134
 -83734663.38746 -65201047.93743  23764937.0784                   23764936.3674
 -22007139.83248 -17090045.69946  21417593.4454                   21417592.6764
 -61094400.05547 -44193322.10244  22467235.9384                   22467235.2854
 -28440641.64146 -22111337.17642  24491821.5394                   24491824.3524
 -49549256.74648 -38552220.48046  20759025.2814                   20759021.5004
 11  8 15  1  4  0.0000000  0  8G25G12G10G17G05G04G09G02
  -1324597.43047   -994986.46144  23377589.6414                   23377591.0394
 -29544786.37548 -22983649.70746  21082618.3284                   21082616.0944
 -39169079.26248 -29936703.91045  21100606.0234                   21100604.0394
 -83758825.87946 -65219875.89843  23760339.0004                   23760338.8954
 -22166325.51248 -17214086.44546  21387302.3444                   21387300.8404
 -61098222.07047 -44196300.34044  22466508.5704                   22466508.0004
 -28442468.92645 -22112761.08242  24491474.7894                   24491476.6764
 -49622844.25848 -38609561.41446  20745022.4144                   20745018.2584
 11  8 15  1  4 30.0000000  0  8G25G12G10G17G05G04G09G02
  -1498057.07447  -1130149.78944  23344581.8134                   23344582.7194
 -29666706.20748 -23078652.17646  21059418.1024                   21059415.4494
 -39226571.30548 -29981502.91445  21089665.7114                   21089663.9024
 -83782764.83246 -65238529.67243  23755783.2344                   23755783.6294
 -22325041.93447 -17337761.54346  21357098.7034                   21357097.9384
 -61101936.09847 -44199194.42244  22465802.0004                   22465801.5044
 -28444235.98846 -22114138.13742  24491137.3444                   24491140.2934
 -49696144.97348 -38666678.87146  20731073.2424                   20731069.5744
 11  8 15  1  5  0.0000000  0  8G25G12G10G17G05G04G09G02
  -1671170.84447  -1265043.61344  23311638.9774                   23311640.3484
 -29788054.20748 -23173209.07046  21036326.2424                   21036323.9654
 -39283403.65647 -30025787.87545  21078850.4694                   21078849.1094
 -83806480.73846 -65257009.60944  23751270.8364                   23751270.7664
 -22483287.00048 -17461069.34446  21326986.1884                   21326984.9104
 -61105543.94947 -44202005.76244  22465115.2734                   22465114.8834
 -28445946.28946 -22115470.91443  24490812.6024                   24490815.4964
 -49769160.32048 -38723573.95746  20717179.1884                   20717175.5744
 11  8 15  1  5 30.0000000  0  8G25G12G10G17G05G04G09G02
  -1843935.16047  -1399665.15244  23278763.2274                   23278764.2074
 -29908827.84848 -23267318.39846  21013344.0944                   21013341.6954
 -39339576.20747 -30069558.70345  21068161.6884                   21068159.8164
 -83829971.53946 -65275314.15644  23746800.6484                   23746800.8134
 -22641057.10248 -17584007.04746  21296963.3834                   21296962.2544
 -61109046.09047 -44204734.74644  22464448.6804                   22464448.4694
 -28447602.18746 -22116761.32443  24490497.5704                   24490499.7304
 -49841890.35948 -38780246.73046  20703338.9064                   20703334.9924
 11  8 15  1  6  0.0000000  0  8G25G12G10G17G05G04G09G02
  -2016347.53147  -1534012.46144  23245953.4694                   23245954.8094
 -30029025.60248 -23360978.99246  20990470.6414                   20990468.1454
 -39395090.55547 -30112816.64846  21057597.4844                   21057595.7424
 -83853237.37546 -65293443.39544  23742373.4064                   23742373.2234
 -22798350.12148 -17706573.00046  21267031.6884                   21267030.0984
 -61112444.52047 -44207382.91044  22463802.2584                   22463801.9924
 -28449206.81246 -22118011.76243  24490191.5474                   24490194.8484
 -49914336.64148 -38836698.38746  20689553.1724                   20689549.3674
 11  8 15  1  6 30.0000000  0  8G25G12G10G17G05G04G09G02
  -2188408.92647  -1668086.26244  23213211.9304                   23213213.0634
 -30148648.96548 -23454192.00046  20967707.3754                   20967704.7664
 -39449951.34048 -30155565.31245  21047157.6954                   21047156.1564
 -83876281.44946 -65311399.82444  23737988.3444                   23737988.3874
 -22955167.30548 -17828768.17646  21237190.1484                   21237188.5744
 -61115744.16047 -44209954.09844  22463174.2894                   22463173.8284
 -28450767.08646 -22119227.65643  24489896.0084                   24489897.4844
 -49986503.87148 -38892932.60546  20675820.3524                   20675816.3954
 11  8 15  1  7  0.0000000  0  8G25G12G10G17G05G04G09G02
  -2360109.79347  -1801879.12544  23180538.3444                   23180539.2774
 -30267690.47348 -23546951.60946  20945054.4224                   20945052.2854
 -39504152.69547 -30197800.14145  21036843.5394                   21036841.5784
 -83899096.69946 -65329177.96144  23733647.3134                   23733646.5234
 -23111499.09048 -17950585.10946  21207440.9614                   21207439.6174
 -61118939.59047 -44212444.07444  22462566.3054                   22462565.8524
 -28452279.29746 -22120406.09043  24489608.7734                   24489609.3094
 -50058386.66048 -38948945.17646  20662141.2194                   20662137.4654
 11  8 15  1  7 30.0000000  0  8G25G12G10G17G05G04G09G02
  -2531453.57447  -1935393.73844  23147932.7584                   23147933.5824
 -30386154.55548 -23639261.28146  20922511.3594                   20922508.8714
 -39557701.84047 -30239526.75845  21026653.3914                   21026651.7154
 -83921688.80946 -65346782.20344  23729347.4844                   23729347.1524
 -23267349.55148 -18072026.99646  21177783.8594                   21177782.5004
 -61122038.75847 -44214859.04344  22461976.7734                   22461976.1804
 -28453752.63746 -22121554.23443  24489327.5474                   24489329.4454
 -50129992.06648 -39004741.60546  20648515.1954                   20648511.4694
 11  8 15  1  8  0.0000000  0  8G25G12G10G17G05G04G09G02
  -2702435.34847  -2068626.25044  23115395.4384                   23115396.8954
 -30504036.98848 -23731117.71546  20900078.6024                   20900076.6564
 -39610597.70347 -30280744.32845  21016587.3524                   21016586.4104
 -83944055.52046 -65364210.79744  23725091.0004                   23725091.0234
 -23422714.32048 -18193090.41046  21148218.6804                   21148217.6454
 -61125040.53547 -44217198.12144  22461405.2114                   22461404.4774
 -28455187.75446 -22122672.59043  24489054.5784                   24489056.6994
 -50201318.99248 -39060321.03546  20634942.0474                   20634938.3674
 11  8 15  1  8 30.0000000  0  8G25G12G10G17G05G04G09G02
  -2873058.32447  -2201579.20744  23082927.1024                   23082928.4104
 -30621342.08648 -23822524.27746  20877756.4774                   20877754.7464
 -39662847.47347 -30321458.44545  21006645.2504                   21006643.2304
 -83966201.91046 -65381467.73044  23720877.3054                   23720876.9774
 -23577596.43048 -18313777.73446  21118745.8284                   21118744.4064
 -61127952.41047 -44219467.14144  22460851.4924                   22460850.9264
 -28456593.86746 -22123768.36343  24488787.5084                   24488789.4574
 -50272374.35248 -39115688.85546  20621420.9924                   20621416.8754
 11  8 15  1  9  0.0000000  0  8G25G12G10G17G05G04G09G02
  -3043318.32847  -2334249.30944  23050527.7894                   23050528.6564
 -30738066.89148 -23913478.66446  20855544.6644                   20855542.4144
 -39714450.70747 -30361668.77045  20996825.0234                   20996823.3834
 -83988126.66046 -65398551.96544  23716704.6414                   23716704.0084
 -23731991.82448 -18434085.79746  21089365.2894                   21089363.8674
 -61130774.27747 -44221666.03944  22460314.4774                   22460313.7114
 -28457972.43046 -22124842.66843  24488525.4144                   24488527.1914
 -50343158.05548 -39170844.99246  20607951.0314                   20607947.4494
 11  8 15  1  9 30.0000000  0  8G25G12G10G17G05G04G09G02
  -3213210.00847  -2466632.41844  23018198.3054                   23018199.7034
 -30854207.43048 -24003977.78546  20833443.6954                   20833441.5634
 -39765406.16847 -30401374.33245  20987128.4534                   20987127.0354
 -84009826.56246 -65415461.00044  23712576.2584                   23712574.9804
 -23885896.14548 -18554011.19946  21060078.6334                   21060077.0944
 -61133505.03547 -44223793.93444  22459794.9384                   22459794.4104
 -28459323.91846 -22125895.86343  24488266.9304                   24488269.8204
 -50413668.41448 -39225788.12146  20594533.2344                   20594529.6994
 11  8 15  1 10  0.0000000  0  8G25G12G10G17G05G04G09G02
  -3382732.47747  -2598727.81644  22985939.6254                   22985940.9384
 -30969763.77048 -24094021.68446  20811454.1414                   20811451.5744
 -39815716.75847 -30440577.39545  20977554.7344                   20977553.5274
 -84031303.08246 -65432195.96144  23708488.3984                   23708488.5084
 -24039308.55148 -18673553.29746  21030884.7194                   21030883.2504
 -61136147.73047 -44225853.20744  22459292.6644                   22459291.4224
 -28460653.20346 -22126931.79743  24488014.8834                   24488017.0594
 -50483908.37148 -39280520.55546  20581167.5084                   20581163.8754
 11  8 15  1 10 30.0000000  0  8G25G12G10G17G05G04G09G02
  -3551885.89547  -2730535.64845  22953750.8524                   22953752.5594
 -31084737.58648 -24183611.66046  20789575.1564                   20789573.0274
 -39865386.54747 -30479281.13745  20968102.7114                   20968101.5004
 -84052558.77346 -65448758.85544  23704443.7584                   23704443.1644
 -24192229.35948 -18792712.33246  21001784.8754                   21001783.1884
 -61138706.82447 -44227847.32444  22458804.6884                   22458804.3404
 -28461966.18446 -22127955.00843  24487765.7584                   24487767.5664
 -50553882.09448 -39335045.52346  20567851.5864                   20567847.9414
 11  8 15  1 11  0.0000000  0  8G25G12G10G17G05G04G09G02
  -3720665.59047  -2862052.26644  22921633.0704                   22921634.7034
 -31199125.53948 -24272745.12146  20767807.8054                   20767806.0204
 -39914414.68048 -30517484.89145  20958772.9144                   20958771.7154
 -84073590.91446 -65465147.53543  23700441.6484                   23700441.4224
 -24344654.41448 -18911485.07046  20972779.3364                   20972777.7734
 -61141181.64547 -44229775.78544  22458333.9844                   22458333.4264
 -28463263.72746 -22128966.20743  24487517.9774                   24487520.5594
 -50623588.62548 -39389362.29746  20554586.8834                   20554583.0664
 11  8 15  1 11 30.0000000  0  8G25G12G10G17G05G04G09G02
  -3889068.93447  -2993275.62544  22889587.1484                   22889588.1764
 -31312925.89848 -24361420.72746  20746152.1724                   20746150.5314
 -39962802.69948 -30555189.84045  20949565.1484                   20949563.8244
 -84094399.95346 -65481362.35943  23696481.5784                   23696481.6604
 -24496581.19548 -19029869.54746  20943868.9144                   20943867.6604
 -61143573.52347 -44231639.59844  22457878.6174                   22457878.3324
 -28464548.96946 -22129967.78143  24487273.1094                   24487276.4064
 -50693029.06248 -39443471.71546  20541373.1414                   20541369.0554
 11  8 15  1 12  0.0000000  0  8G25G12G10G17G05G04G09G02
  -2481668.62147  -1896600.02344  23157405.7584                   23157407.5634
 -29850714.59848 -23222035.28546  21024401.9614                   21024399.8324
 -38435131.41847 -29364796.64545  21240271.4694                   21240270.0514
 -82539565.53546 -64269803.07843  23992356.7504                   23992356.1174
 -23072583.48448 -17920260.90646  21214846.0314                   21214844.8594
 -59570464.88347 -43005840.67644  22757231.5634                   22757230.8794
 -26890405.80546 -20903362.82043  24786823.0704                   24786825.4264
 -49186783.28548 -38269773.69946  20828001.6024                   20827997.9844
 11  8 15  1 12 30.0000000  0  8G25G12G10G17G05G04G09G02
  -2649313.00847  -2027231.98444  23125504.6024                   23125506.0434
 -29963337.57448 -23309793.44146  21002970.3984                   21002968.4304
 -38482244.94148 -29401508.49645  21231305.9844                   21231304.3014
 -82559928.49246 -64285670.31643  23988482.8204                   23988481.7384
 -23223509.20347 -18037865.32046  21186125.7664                   21186124.4734
 -59572696.91447 -43007579.94944  22756806.6414                   22756806.3634
 -26891677.10246 -20904353.58642  24786581.3914                   24786583.7934
 -49255696.92248 -38323472.63346  20814887.9224                   20814884.1844
 11  8 15  1 13  0.0000000  0  8G25G12G10G17G05G04G09G02
  -2816571.26647  -2157563.06645  23093676.1884                   23093677.6254
 -30075367.07448 -23397089.15246  20981652.0234                   20981649.6524
 -38528720.60948 -29437723.31645  21222462.1024                   21222460.4104
 -82580065.34446 -64301361.40643  23984650.0704                   23984649.7504
 -23373928.23848 -18155074.92646  21157502.1334                   21157500.4024
 -59574848.20347 -43009256.28144  22756397.9384                   22756396.5474
 -26892943.18046 -20905340.19142  24786340.1954                   24786342.8554
 -49324346.12948 -38376965.51646  20801824.4774                   20801820.9454
 11  8 15  1 13 30.0000000  0  8G25G12G10G17G05G04G09G02
  -2983441.55147  -2287591.84044  23061921.8204                   23061923.4574
 -30186802.84448 -23483922.21546  20960446.5784                   20960444.2974
 -38574560.90247 -29473443.03145  21213739.0944                   21213737.3594
 -82599976.80946 -64316876.85943  23980860.8524                   23980861.0164
 -23523839.12548 -18271888.56646  21128975.1094                   21128973.7074
 -59576921.41847 -43010871.78144  22756002.6724                   22756002.1644
 -26894207.95745 -20906325.91442  24786099.3204                   24786102.9024
 -49392732.97348 -38430253.95346  20788810.9384                   20788806.8954
 11  8 15  1 14  0.0000000  0  8G25G12G10G17G05G04G09G02
  -3149925.48047  -2417319.57044  23030241.0944                   23030242.1844
 -30297647.60248 -23570294.74246  20939353.7194                   20939351.4144
 -38619771.23448 -29508671.87145  21205136.1174                   21205134.4884
 -82619666.62146 -64332219.61343  23977115.1414                   23977113.9224
 -23673244.00447 -18388307.91446  21100544.5004                   21100542.7584
 -59578921.62147 -43012430.39544  22755622.4614                   22755621.5204
 -26895478.60246 -20907316.08642  24785857.6024                   24785860.8284
 -49460862.52348 -38483341.91446  20775846.4694                   20775842.3954
 11  8 15  1 14 30.0000000  0  8G25G12G10G17G05G04G09G02
  -3316016.65247  -2546741.25044  22998634.7584                   22998636.0984
 -30407896.24248 -23656202.76646  20918373.6954                   20918372.1454
 -38664349.47747 -29543408.18045  21196652.7664                   21196651.4024
 -82639131.11346 -64347386.77743  23973409.9384                   23973409.9804
 -23822137.00448 -18504328.39846  21072210.9384                   21072209.3634
 -59580846.62547 -43013930.41044  22755256.1804                   22755255.0704
 -26896754.38346 -20908310.25842  24785615.4454                   24785618.7934
 -49528732.70348 -38536227.76246  20762930.8594                   20762927.0314
 11  8 15  1 15  0.0000000  0  8G25G12G10G17G05G04G09G02
  -3481714.10547  -2675856.13744  22967104.2664                   22967105.0704
 -30517549.23448 -23741646.65646  20897507.4774                   20897505.0634
 -38708298.84847 -29577654.45345  21188289.6644                   21188287.8984
 -82658371.35246 -64362379.19543  23969749.3594                   23969748.2234
 -23970517.36748 -18619949.42246  21043974.9144                   21043973.2974
 -59582699.48447 -43015374.21144  22754903.6254                   22754902.8874
 -26898040.03146 -20909312.19142  24785370.9454                   24785374.4654
 -49596345.89148 -38588913.35246  20750064.6254                   20750060.6174
 11  8 15  1 15 30.0000000  0  8G25G12G10G17G05G04G09G02
  -3647013.52047  -2804660.87144  22935648.3364                   22935649.4414
 -30626603.26248 -23826623.81646  20876754.9694                   20876753.0744
 -38751618.94547 -29611410.37945  21180045.8134                   21180044.5514
 -82677385.60546 -64377195.48843  23966130.9454                   23966130.3204
 -24118381.28148 -18735168.02346  21015837.6094                   21015836.0204
 -59584479.81247 -43016761.49644  22754564.6414                   22754563.9734
 -26899336.75846 -20910322.64842  24785124.8754                   24785127.1684
 -49663701.49648 -38641398.23046  20737247.3914                   20737243.4454
 11  8 15  1 16  0.0000000  0  8G25G12G10G17G05G04G09G02
  -3811915.35247  -2933155.78545  22904268.0164                   22904269.6484
 -30735060.98448 -23911136.32046  20856116.5164                   20856114.5514
 -38794314.57048 -29644679.70745  21171921.5864                   21171919.9184
 -82696176.70746 -64391837.95743  23962555.0634                   23962554.2704
 -24265729.89847 -18849985.09446  20987798.1564                   20987796.5704
 -59586191.91447 -43018095.60544  22754239.0554                   22754238.3014
 -26900650.65246 -20911346.57842  24784874.9774                   24784877.0984
 -49730804.00048 -38693685.89146  20724478.2274                   20724474.2424
 11  8 15  1 16 30.0000000  0  8G25G12G10G17G05G04G09G02
  -3976418.55147  -3061340.10244  22872964.6724                   22872965.5704
 -30842922.45348 -23995184.21946  20835590.6484                   20835588.9534
 -38836388.57848 -29677464.64845  21163914.5314                   21163913.4654
 -82714746.03946 -64406307.57444  23959021.7814                   23959021.0704
 -24412562.58247 -18964400.13346  20959856.6414                   20959855.0234
 -59587838.46547 -43019378.66844  22753925.3054                   22753925.2384
 -26901986.13746 -20912387.28542  24784619.4064                   24784622.2734
 -49797656.10248 -38745778.43746  20711756.4384                   20711752.4694
 11  8 15  1 17  0.0000000  0  8G25G12G10G17G05G04G09G02
  -4140517.05947  -3189209.06644  22841737.7814                   22841738.8984
 -30950182.97748 -24078763.84046  20815180.1884                   20815178.3524
 -38877839.39547 -29709764.00445  21156027.1564                   21156025.9384
 -82733089.73046 -64420601.36343  23955530.8594                   23955529.9774
 -24558873.64547 -19078408.71946  20932014.4844                   20932012.9304
 -59589417.43047 -43020609.05944  22753625.4774                   22753624.6954
 -26903342.78946 -20913444.46943  24784361.8914                   24784364.5204
 -49864255.28148 -38797673.89146  20699083.3054                   20699079.0824
 11  8 15  1 17 30.0000000  0  8G25G12G10G17G05G04G09G02
  -4304207.65647  -3316760.16445  22810588.1804                   22810589.8674
 -31056840.87948 -24161873.89146  20794883.8284                   20794881.6334
 -38918668.08247 -29741578.57845  21148257.5944                   21148256.3484
 -82751207.27346 -64434718.93744  23952082.7894                   23952082.4024
 -24704660.35548 -19192008.72346  20904272.1884                   20904270.4144
 -59590929.65247 -43021787.43744  22753337.8524                   22753336.6454
 -26904722.74646 -20914519.82843  24784099.0474                   24784102.3834
 -49930602.14548 -38849372.74246  20686457.6024                   20686454.0004
 11  8 15  1 18  0.0000000  0  8G25G12G10G17G05G04G09G02
  -4467487.54347  -3443991.25044  22779517.4614                   22779518.1994
 -31162894.41048 -24244513.01646  20774702.3204                   20774700.1764
 -38958876.10947 -29772909.51645  21140606.2034                   21140604.9064
 -82769097.95746 -64448659.75444  23948679.0474                   23948678.4414
 -24849920.66047 -19305198.53546  20876629.6564                   20876628.3874
 -59592376.01247 -43022914.49644  22753062.7734                   22753061.3404
 -26906128.42646 -20915615.22743  24783832.7344                   24783834.7894
 -49996697.69148 -38900875.76646  20673880.0634                   20673876.2734
 11  8 15  1 18 30.0000000  0  8G25G12G10G17G05G04G09G02
  -4630354.46947  -3570900.53544  22748524.8524                   22748526.1024
 -31268343.32448 -24326681.00446  20754636.0634                   20754634.0234
 -38998465.14147 -29803758.11745  21133072.7424                   21133071.1994
 -82786761.85246 -64462423.85244  23945317.5634                   23945317.2974
 -24994652.64147 -19417976.66846  20849088.5944                   20849087.1764
 -59593758.10947 -43023991.48044  22752799.3594                   22752799.1564
 -26907563.49246 -20916733.50043  24783559.0784                   24783561.8164
 -50062543.24648 -38952183.99646  20661349.9614                   20661346.2584
 11  8 15  1 19  0.0000000  0  7G25G12G10G17G05G04G02
  -4792807.98047  -3697487.68744  22717610.5474                   22717611.9694
 -31373188.54348 -24408378.57446  20734684.8984                   20734682.6484
 -39037439.32847 -29834127.61745  21125656.2274                   21125654.6644
 -82804201.23446 -64476012.99644  23941998.6884                   23941998.7114
 -25138856.43448 -19530343.22746  20821647.3204                   20821645.4924
 -59595079.37147 -43025021.05944  22752548.1564                   22752547.3284
 -50128141.86348 -39003299.79746  20648867.4064                   20648863.2584
 11  8 15  1 19 30.0000000  0  7G25G12G10G17G05G04G02
  -4954845.56247  -3823750.72744  22686776.0004                   22686777.1914
 -31477428.55548 -24489604.56646  20714848.9064                   20714846.3754
 -39075800.02347 -29864019.07045  21118356.7114                   21118355.1294
 -82821415.71146 -64489426.89544  23938723.1564                   23938722.3524
 -25282530.03148 -19642296.65246  20794307.0704                   20794305.6564
 -59596341.05947 -43026004.23444  22752307.8444                   22752307.1564
 -50193495.02048 -39054224.34446  20636431.0004                   20636426.7274
 11  8 15  1 20  0.0000000  0  7G25G12G10G17G05G04G02
  -5116463.71947  -3949686.94145  22656021.5394                   22656022.3094
 -31581062.25048 -24570358.11746  20695127.6024                   20695125.3634
 -39113548.51247 -29893433.48445  21111173.1564                   21111171.8554
 -82838404.44546 -64502664.89544  23935490.0394                   23935489.3094
 -25425670.56248 -19753834.69546  20767068.1884                   20767066.5514
 -59597543.51247 -43026941.22344  22752078.9224                   22752078.7344
 -50258603.17648 -39104957.97746  20624041.0004                   20624037.3484
 11  8 15  1 20 30.0000000  0  7G25G12G10G17G05G04G02
  -5277654.64847  -4075290.25845  22625347.5784                   22625349.1564
 -31684083.18748 -24650634.18446  20675523.4534                   20675521.2934
 -39150681.45347 -29922368.24645  21104106.7894                   21104105.4694
 -82855162.14546 -64515722.87943  23932301.1484                   23932300.6024
 -25568270.85248 -19864951.76646  20739932.2274                   20739930.6024
 -59598682.68047 -43027828.90644  22751862.4224                   22751861.6914
 -50323461.59848 -39155497.00846  20611698.9144                   20611695.1564
 11  8 15  1 21  0.0000000  0  7G25G12G10G17G05G04G02
  -3862990.24247  -2972954.34045  22894549.1414                   22894550.5824
 -30211066.44148 -23502828.93046  20955829.3754                   20955827.3244
 -37611778.72347 -28723223.26645  21396950.2424                   21396948.9734
 -81296267.57846 -63300999.82843  24228949.5634                   24228948.3954
 -24134903.97348 -18748042.47746  21012692.8834                   21012691.4694
 -58024339.49647 -41801068.01643  23051449.6334                   23051448.9884
 -48812649.39148 -37978240.75046  20899197.2114                   20899193.5004
 11  8 15  1 21 30.0000000  0  7G25G12G10G17G05G04G02
  -4023313.69547  -3097881.68745  22864041.0084                   22864042.0274
 -30312852.91448 -23582143.07446  20936460.2664                   20936457.9534
 -37647679.52048 -28751197.91845  21390118.7034                   21390117.1334
 -81312556.84846 -63313692.78144  24225849.1024                   24225849.2344
 -24276412.46948 -18858308.79746  20985764.7664                   20985763.8244
 -58025350.38347 -41801855.74244  23051256.9224                   23051256.5784
 -48877007.07448 -38028389.59446  20886950.0004                   20886946.6454
 11  8 15  1 22  0.0000000  0  7G25G12G10G17G05G04G02
  -4183202.32847  -3222470.21945  22833614.6804                   22833616.2734
 -30414023.68048 -23660977.44946  20917207.9454                   20917205.3794
 -37682970.11747 -28778697.08245  21383403.2344                   21383401.8674
 -81328614.34046 -63326205.11743  24222793.5394                   24222793.5554
 -24417375.02048 -18968149.71146  20958940.3984                   20958939.1294
 -58026301.60547 -41802596.99244  23051076.0314                   23051075.6994
 -48941118.70748 -38078346.71546  20874750.5084                   20874746.3134
 11  8 15  1 22 30.0000000  0  7G25G12G10G17G05G04G02
  -4342659.68447  -3346722.67245  22803271.1334                   22803272.3324
 -30514583.62948 -23739335.86346  20898071.6024                   20898069.6994
 -37717658.26647 -28805726.80945  21376802.3054                   21376800.7814
 -81344446.08646 -63338541.57443  24219780.3914                   24219780.6804
 -24557795.59447 -19077568.30146  20932219.3524                   20932217.7894
 -58027200.18046 -41803297.19544  23050905.3364                   23050904.6804
 -49004991.23048 -38128117.52346  20862595.5084                   20862591.7584
 11  8 15  1 23  0.0000000  0  7G25G12G10G17G05G04G02
  -4501681.76247  -3470635.95745  22773010.4064                   22773011.3874
 -30614530.75448 -23817216.75046  20879052.5554                   20879050.4804
 -37751744.07847 -28832287.19945  21370315.7974                   21370314.7274
 -81360050.53146 -63350700.90243  24216811.5164                   24216811.5394
 -24697670.96948 -19186562.06646  20905601.5554                   20905600.3524
 -58028046.00046 -41803956.30544  23050744.5164                   23050743.9884
 -49068624.60548 -38177701.97346  20850486.5474                   20850482.6564
 11  8 15  1 23 30.0000000  0  7G25G12G10G17G05G04G02
  -4660268.83647  -3594210.27345  22742831.9384                   22742833.3674
 -30713866.60948 -23894621.31646  20860149.4454                   20860147.6994
 -37785232.36747 -28858381.97745  21363943.1564                   21363941.8324
 -81375430.32846 -63362685.19543  24213884.4064                   24213884.4734
 -24837001.97748 -19295131.64146  20879087.7584                   20879086.5274
 -58028843.01246 -41804577.39144  23050592.1094                   23050592.7424
 -49132022.58648 -38227103.00846  20838422.3754                   20838418.7704
 11  8 15  1 24  0.0000000  0  7G25G12G10G17G05G04G02
  -4818414.06247  -3717440.30945  22712738.0004                   22712739.6524
 -30812585.52048 -23971545.14546  20841363.9844                   20841361.9774
 -37818120.76647 -28884009.29745  21357684.6094                   21357683.5704
 -81390580.79746 -63374490.75843  24211000.7664                   24211001.2464
 -24975782.51648 -19403272.28946  20852679.0864                   20852677.3874
 -58029588.03546 -41805157.97343  23050451.0164                   23050450.4884
 -49195181.83248 -38276318.00446  20826403.8984                   20826399.8324
 11  8 15  1 24 30.0000000  0  7G25G12G10G17G05G04G02
  -4976120.30147  -3840328.26645  22682727.6644                   22682728.8404
 -30910693.26648 -24047992.75046  20822694.8754                   20822692.7504
 -37850416.51647 -28909174.82445  21351539.2814                   21351538.2074
 -81405507.55945 -63386122.02742  24208160.5164                   24208161.2384
 -25114016.09848 -19510986.72346  20826374.3594                   20826372.5164
 -58030287.57446 -41805703.13344  23050317.9774                   23050317.5474
 -49258108.82848 -38325352.03946  20814429.3754                   20814425.7234
 11  8 15  1 25  0.0000000  0  7G25G12G10G17G05G04G02
  -5133386.17247  -3962873.08245  22652800.3674                   22652801.8794
 -31008189.58248 -24123963.90646  20804141.9694                   20804139.9884
 -37882122.49247 -28933880.77345  21345506.0554                   21345504.2814
 -81420211.57445 -63397579.76642  24205362.4844                   24205363.4384
 -25251701.75048 -19618274.21146  20800172.7584                   20800171.3244
 -58030943.63346 -41806214.38344  23050193.5554                   23050192.9574
 -49320805.72348 -38374206.76246  20802497.6484                   20802494.6524
 11  8 15  1 25 30.0000000  0  7G25G12G10G17G05G04G02
  -5290206.36347  -4085070.61745  22622958.5554                   22622960.0824
 -31105070.85548 -24199455.81646  20785706.0944                   20785703.8284
 -37913238.12947 -28958126.73045  21339584.3834                   21339583.0554
 -81434689.80545 -63408861.53943  24202608.0784                   24202608.7464
 -25388835.12548 -19725131.35246  20774077.7894                   20774075.7934
 -58031554.67246 -41806690.55144  23050076.7814                   23050077.2704
 -49383271.03948 -38422881.03546  20790611.2734                   20790607.8244
 11  8 15  1 26  0.0000000  0  7G25G12G10G17G05G04G02
  -5446580.26647  -4206920.40645  22593202.0634                   22593203.3954
 -31201337.93048 -24274469.12546  20767386.7034                   20767384.7584
 -37943767.31247 -28981915.71945  21333775.2814                   21333773.4064
 -81448944.07446 -63419968.78943  24199894.7664                   24199895.6414
 -25525416.58248 -19831558.42246  20748087.0164                   20748085.6414
 -58032123.79747 -41807134.05544  23049969.2194                   23049968.9224
 -49445507.56648 -38471377.03946  20778768.0704                   20778764.4494
 11  8 15  1 26 30.0000000  0  7G25G12G10G17G05G04G02
  -5602506.81647  -4328421.61745  22563530.0234                   22563531.8014
 -31296991.66448 -24349004.51246  20749184.6254                   20749182.0354
 -37973713.01247 -29005250.02745  21328076.8674                   21328075.5234
 -81462975.61346 -63430902.50042  24197225.4224                   24197225.2344
 -25661445.46548 -19937554.92246  20722201.1094                   20722199.6334
 -58032653.23847 -41807546.66044  23049867.9144                   23049867.8404
 -49507517.79348 -38519696.69946  20766967.9924                   20766964.1524
 11  8 15  1 27  0.0000000  0  7G25G12G10G17G05G04G02
  -5757984.05147  -4449572.70745  22533943.8594                   22533944.7704
 -31392032.30548 -24423062.15646  20731099.1094                   20731096.9064
 -38003078.00847 -29028131.85945  21322488.6174                   21322487.1604
 -81476785.06246 -63441663.08643  24194597.4304                   24194596.7194
 -25796920.32848 -20043119.71946  20696421.1174                   20696419.8714
 -58033144.46547 -41807929.46944  23049774.4144                   23049774.4884
 -49569303.44148 -38567841.37146  20755210.9144                   20755207.2814
 11  8 15  1 27 30.0000000  0  7G25G12G10G17G05G04G02
  -5913010.46947  -4570372.50845  22504442.9774                   22504444.1094
 -31486459.55947 -24496641.84046  20713130.1414                   20713128.2074
 -38031865.33647 -29050563.54745  21317010.8364                   21317009.4574
 -81490373.15246 -63452251.18742  24192011.9384                   24192011.3634
 -25931840.68748 -20148252.43746  20670746.9924                   20670745.6844
 -58033599.85246 -41808284.34844  23049687.7034                   23049687.5204
 -49630866.02047 -38615812.21946  20743495.8054                   20743492.5234
 11  8 15  1 28  0.0000000  0  7G25G12G10G17G05G04G02
  -6067585.24647  -4690820.38745  22475028.6644                   22475029.7074
 -31580274.45348 -24569744.35946  20695277.9224                   20695275.5164
 -38060078.61747 -29072547.93445  21311642.0164                   21311640.5314
 -81503741.28546 -63462667.95743  24189468.1884                   24189467.3634
 -26066206.14148 -20252952.75846  20645178.0784                   20645176.2074
 -58034021.73446 -41808613.11743  23049607.7344                   23049607.6174
 -49692208.58248 -38663611.62946  20731822.6954                   20731819.0634
 11  8 15  1 28 30.0000000  0  7G25G12G10G17G05G04G02
  -6221708.01647  -4810916.05545  22445700.0704                   22445701.5274
 -31673478.14548 -24642370.62546  20677541.6564                   20677539.7624
 -38087722.00847 -29094088.23845  21306381.1884                   21306379.9614
 -81516891.77346 -63472915.13743  24186966.4844                   24186965.5164
 -26200017.41848 -20357221.25446  20619714.7114                   20619713.1094
 -58034413.46946 -41808918.42643  23049532.8674                   23049532.9574
 -49753334.04347 -38711241.85546  20720190.8284                   20720187.1994
 11  8 15  1 29  0.0000000  0  8G25G12G10G17G05G04G29G02
  -6375374.13747  -4930655.89845  22416458.1954                   22416459.6334
 -31766068.60948 -24714519.05146  20659922.4304                   20659920.2934
 -38114795.28547 -29115184.30945  21301229.8204                   21301228.0904
 -81529822.18446 -63482990.77743  24184505.3284                   24184504.9304
 -26333270.62548 -20461054.89546  20594357.4774                   20594355.5984
 -58034773.69546 -41809199.16843  23049464.2974                   23049463.9344
  15513329.98455  12126293.27352  24537034.8594                   24537034.2544
 -49814241.48048 -38758702.20346  20708600.3284                   20708597.3834
 11  8 15  1 29 30.0000000  0  8G25G12G10G17G05G04G29G02
  -6528581.36347  -5050038.18045  22387304.1804                   22387305.1724
 -31858045.11748 -24786189.06646  20642420.0634                   20642417.9104
 -38141300.78547 -29135837.95745  21296185.8524                   21296184.2894
 -81542532.51246 -63492894.96143  24182086.3364                   24182086.5904
 -26465964.42648 -20564452.63346  20569106.5084                   20569104.5704
 -58035103.73046 -41809456.36743  23049401.6024                   23049401.0664
  15350734.72746  11999595.59442  24506094.0944                   24506095.0474
 -49874931.82048 -38805993.38746  20697051.6414                   20697047.6174
 11  8 15  1 30  0.0000000  0  8G25G12G10G17G05G04G29G02
  -6681337.71547  -5169069.09045  22358235.8134                   22358236.2154
 -31949417.24648 -24857388.13746  20625032.2974                   20625030.2464
 -38167250.84847 -29156058.80145  21291247.6024                   21291246.3984
 -81555033.32046 -63502635.85543  24179707.4454                   24179707.7734
 -26598107.44548 -20667421.18446  20543960.4844                   20543958.6724
 -58035414.84046 -41809698.83643  23049342.3364                   23049341.6804
  15188088.801 5                  24475143.523
 -49935416.62548 -38853124.40246  20685541.6024                   20685537.9884
 11  8 15  1 30 30.0000000  0  8G25G12G10G17G05G04G29G02
  -5258214.39147  -4060141.84445  22629047.2504                   22629048.0784
 -30464760.22748 -23700512.55146  20907553.3444                   20907551.1764
 -36617225.39847 -27948246.77345  21586208.0394                   21586206.4344
 -79991902.92646 -62284612.21143  24477161.8754                   24477161.2504
 -25154272.23448 -19542354.75846  20818713.3914                   20818711.2274
 -56460286.73846 -40582326.28944  23349078.7894                   23349079.0634
  16600819.863 5                  24743977.031
 -48420273.89548 -37672493.71546  20973863.8054                   20973860.8794
 11  8 15  1 31  0.0000000  0  8G25G12G10G17G05G04G29G02
  -5410056.14847  -4178460.12545  22600152.4304                   22600153.7854
 -30554916.67248 -23770764.34046  20890396.9384                   20890394.8164
 -36642065.37947 -27967602.60945  21581481.0084                   21581479.4494
 -80003979.12146 -62294022.29743  24474864.0704                   24474863.6844
 -25285303.15648 -19644456.74646  20793778.6954                   20793777.1604
 -56460557.21546 -40582537.09043  23349027.6414                   23349027.5984
  16438080.906 5                  24713008.914
 -48480345.41448 -37719302.68446  20962432.0944                   20962428.8794
 11  8 15  1 31 30.0000000  0  8G25G12G10G17G05G04G29G02
  -5561435.42247  -4296418.01245  22571345.7504                   22571347.0664
 -30644462.89148 -23840540.64146  20873357.1174                   20873354.7424
 -36666352.41847 -27986527.59045  21576859.3674                   21576857.7274
 -80015841.36346 -62303265.62143  24472607.1254                   24472606.8484
 -25415774.21147 -19746122.46946  20768951.2114                   20768949.2274
 -56460807.55147 -40582732.19143  23348980.1094                   23348979.9844
  16275297.44145  13039534.98452  24682032.2584                   24682033.0514
 -48540209.97348 -37765950.39546  20951041.0634                   20951037.1684
 11  8 15  1 32  0.0000000  0  8G25G12G10G17G05G04G29G02
  -5712349.05947  -4414013.05545  22542628.0084                   22542628.9844
 -30733397.71948 -23909840.52046  20856433.2504                   20856431.0984
 -36690087.63347 -28005022.58245  21572342.5784                   21572341.6134
 -80027488.66446 -62312341.47743  24470389.7974                   24470389.9104
 -25545683.04348 -19847350.10246  20744230.3524                   20744228.3674
 -56461037.67647 -40582911.52743  23348936.8754                   23348936.5004
  16112471.26646  12912657.43043  24651048.0004                   24651048.3324
 -48599867.88348 -37812437.08246  20939688.7194                   20939684.7274
 11  8 15  1 32 30.0000000  0  8G25G12G10G17G05G04G29G02
  -5862794.61747  -4531243.35945  22513999.1334                   22514000.0864
 -30821720.44548 -23978663.44946  20839626.0554                   20839623.8054
 -36713273.07447 -28023089.16445  21567930.5784                   21567929.3714
 -80038920.96946 -62321249.79343  24468214.7424                   24468214.5704
 -25675027.98447 -19948138.33246  20719616.5004                   20719614.6954
 -56461248.39547 -40583075.73844  23348896.6024                   23348896.6764
  15949603.03146  12785747.12543  24620055.6724                   24620055.5274
 -48659320.26648 -37858763.62146  20928374.7274                   20928371.2114
 11  8 15  1 33  0.0000000  0  8G25G12G10G17G05G04G29G02
  -6012770.34047  -4648107.54745  22485459.3204                   22485460.8404
 -30909431.63748 -24047009.85946  20822935.3914                   20822933.0274
 -36735911.46147 -28040729.47745  21563622.0944                   21563621.3674
 -80050139.21546 -62329991.34043  24466079.4534                   24466080.0394
 -25803808.30948 -20048486.60246  20695110.2344                   20695108.5354
 -56461441.34446 -40583226.08644  23348860.1024                   23348859.7814
  15786692.59446  12658803.89543  24589055.1484                   24589054.9104
 -48718568.34847 -37904930.96146  20917100.3594                   20917096.7464
 11  8 15  1 33 30.0000000  0  8G25G12G10G17G05G04G29G02
  -6162272.07447  -4764602.38745  22457010.6414                   22457011.7934
 -30996528.76248 -24114877.76246  20806361.3134                   20806358.8874
 -36758003.27047 -28057943.89145  21559418.3284                   21559417.2114
 -80061141.18046 -62338564.33643  24463985.6254                   24463986.1524
 -25932020.53147 -20148392.20746  20670712.5474                   20670710.9454
 -56461615.55146 -40583361.84843  23348826.8524                   23348826.5784
  15623742.60246  12531829.87543  24558045.8364                   24558046.4694
 -48777611.54748 -37950938.64846  20905864.7344                   20905861.5474
 11  8 15  1 34  0.0000000  0  8G25G12G10G17G05G04G29G02
  -6311300.22347  -4880728.18445  22428651.3674                   22428652.3954
 -31083014.00847 -24182268.88346  20789903.3754                   20789901.4964
 -36779553.53147 -28074736.31245  21555317.3524                   21555316.2624
 -80071929.92645 -62346971.17643  24461932.5864                   24461933.4534
 -26059665.72748 -20247855.96546  20646422.0864                   20646420.9104
 -56461774.64146 -40583485.82843  23348796.6644                   23348796.2504
  15460750.80546  12404823.30544  24527029.5634                   24527030.4144
 -48836453.52748 -37996789.55146  20894667.2584                   20894663.8834
 11  8 15  1 34 30.0000000  0  8G25G12G10G17G05G04G29G02
  -6459850.29347  -4996481.46945  22400383.1484                   22400383.9804
 -31168885.03547 -24249181.39146  20773562.7114                   20773560.7544
 -36800562.50847 -28091106.96145  21551319.8054                   21551318.6684
 -80082502.84045 -62355209.85543  24459921.0004                   24459921.2194
 -26186740.91048 -20346875.55946  20622240.5474                   20622239.0474
 -56461917.41846 -40583597.07443  23348768.8834                   23348769.1884
  15297719.99246  12277786.32444  24496005.7734                   24496006.2584
 -48895093.11748 -38042482.74246  20883508.6644                   20883505.2344
 11  8 15  1 35  0.0000000  0  8G25G12G10G17G05G04G29G02
  -6607915.39147  -5111856.82845  22372207.2034                   22372208.4654
 -31254136.96947 -24315611.47746  20757339.8674                   20757337.7774
 -36821027.37547 -28107053.62945  21547425.3914                   21547424.1844
 -80092855.84455 -62363277.18052  24457951.2734                   24457951.8874
 -26313239.38347 -20445445.76646  20598168.6174                   20598167.0634
 -56462039.90646 -40583692.53543  23348745.5704                   23348745.3794
  15134655.61747  12150723.20744  24464976.5394                   24464976.2704
 -48953526.45748 -38088015.21946  20872389.1254                   20872385.6764
 11  8 15  1 35 30.0000000  0  8G25G12G10G17G05G04G29G02
  -6755500.88347  -5226858.47745  22344122.5004                   22344123.9774
 -31338777.21547 -24381564.93046  20741233.2274                   20741231.5554
 -36840958.50047 -28122584.38745  21543632.8524                   21543631.3914
 -80102996.56245 -62371179.03142  24456020.4064                   24456022.5634
 -26439167.84848 -20543571.81646  20574204.9924                   20574203.7584
 -56462150.92646 -40583779.04743  23348724.4144                   23348724.1804
  14971550.79347  12023628.56644  24433937.6254                   24433938.3594
 -49011762.41048 -38133393.89146  20861307.2584                   20861303.4734
 11  8 15  1 36  0.0000000  0  8G25G12G10G17G05G04G29G02
  -6902602.30147  -5341482.91445  22316130.4534                   22316131.6684
 -31422803.12548 -24447039.67246  20725243.4694                   20725241.5704
 -36860355.88747 -28137699.25045  21539941.4694                   21539940.6294
 -80112922.71145 -62378913.74642  24454132.1094                   24454133.7424
 -26564522.65248 -20641250.85546  20550351.1644                   20550349.5204
 -56462249.03946 -40583855.50443  23348706.4384                   23348705.5784
  14808408.12547  11896504.43844  24402892.7344                   24402893.8484
 -49069800.06248 -38178618.03946  20850262.9614                   20850259.5314
 11  8 15  1 36 30.0000000  0  8G25G12G10G17G05G04G29G02
  -7049215.51247  -5455726.94545  22288230.5164                   22288231.6174
 -31506213.01248 -24512034.39846  20709371.5704                   20709369.4064
 -36879219.87547 -28152398.48045  21536351.9454                   21536350.8914
 -80122632.79745 -62386480.07843  24452284.3284                   24452285.3754
 -26689300.70748 -20738480.48046  20526606.8364                   20526604.9924
 -56462333.48446 -40583921.30143  23348690.5704                   23348689.8054
  14645230.17246  11769352.82443  24371841.0864                   24371841.5274
 -49127638.25448 -38223686.75446  20839257.2814                   20839253.5984
 11  8 15  1 37  0.0000000  0  8G25G12G10G17G05G04G29G02
  -7195340.05947  -5569590.19145  22260423.9774                   22260424.9574
 -31589007.91848 -24576549.90646  20693616.0944                   20693613.9224
 -36897554.72747 -28166685.38745  21532863.3134                   21532861.4694
 -80132128.21546 -62393879.13743  24450478.2194                   24450478.2464
 -26813502.42648 -20835261.00846  20502971.5314                   20502970.0824
 -56462406.50846 -40583978.20743  23348677.0704                   23348676.0084
  14482016.04746  11642173.01243  24340782.7344                   24340782.9924
 -49185279.46148 -38268601.98446  20828287.9534                   20828284.2734
 11  8 15  1 37 30.0000000  0  7G25G12G10G05G04G29G02
  -7340973.42647  -5683070.68445  22232711.1254                   22232712.0234
 -31671187.55148 -24640585.98446  20677977.5634                   20677975.6724
 -36915362.41047 -28180561.52045  21529474.7734                   21529473.2544
 -26937126.05548 -20931591.08246  20479446.9304                   20479445.5944
 -56462468.87946 -40584026.79743  23348664.5784                   23348663.0394
  14318766.67246  11514965.70743  24309716.8204                   24309717.4964
 -49242724.54348 -38313364.39146  20817356.7734                   20817352.9654
 11  8 15  1 38  0.0000000  0  7G25G12G10G05G04G29G02
  -7486115.87147  -5796168.65645  22205090.8914                   22205092.0274
 -31752753.97348 -24704144.23446  20662456.0004                   20662453.9774
 -36932647.85947 -28194030.71945  21526184.9844                   21526183.6054
 -27060173.05148 -21027471.82846  20456031.4844                   20456030.3484
 -56462523.90246 -40584069.66043  23348653.1414                   23348653.7894
  14155480.37546  11387729.66043  24278644.9774                   24278645.2894
 -49299976.97748 -38357976.68046  20806462.2734                   20806458.1024
 11  8 15  1 38 30.0000000  0  7G25G12G10G05G04G29G02
  -7630763.49647  -5908881.07045  22177565.5084                   22177566.5824
 -31833705.89548 -24767223.65646  20647051.9614                   20647049.4804
 -36949411.71547 -28207093.46945  21522994.9924                   21522993.6994
 -27182640.09447 -21122900.66846  20432727.2194                   20432725.2854
 -56462570.63746 -40584106.06643  23348644.5004                   23348644.7894
  13992159.34046  11260466.55143  24247565.5864                   24247566.2854
 -49357036.00848 -38402438.26646  20795604.1564                   20795600.2504
 11  8 15  1 39  0.0000000  0  7G25G12G10G05G04G29G02
  -7774906.03947  -6021199.89845  22150135.9224                   22150137.2704
 -31914035.14147 -24829817.87546  20631765.3834                   20631763.3204
 -36965648.16847 -28219745.25845  21519905.7034                   21519904.0164
 -27304518.27048 -21217870.65246  20409534.6954                   20409532.9384
 -56462601.78946 -40584130.34843  23348638.9774                   23348638.5634
  13828812.47746  11133183.30143  24216481.7894                   24216482.2304
 -49413894.44948 -38446743.54346  20784783.9924                   20784780.1914
 11  8 15  1 39 30.0000000  0  7G25G12G10G05G04G29G02
  -7918545.33247  -6133126.59045  22122802.5004                   22122803.7814
 -31993745.52347 -24891929.85946  20616597.1644                   20616595.3014
 -36981363.83247 -28231991.24645  21516914.8984                   21516913.3834
 -27425810.39148 -21312383.96546  20386453.4614                   20386451.7074
 -56462622.12546 -40584146.19543  23348635.6954                   23348635.6724
  13665436.58646  11005877.42243  24185393.3834                   24185393.0944
 -49470557.12148 -38490896.28146  20774001.8134                   20773997.7734
 11  8 15  1 40  0.0000000  0  7G25G12G10G05G04G29G02
  -8061679.43447  -6244659.61745  22095564.8054                   22095566.0394
 -32072836.88348 -24953559.49646  20601546.8204                   20601544.6094
 -36996561.26247 -28243833.40245  21514022.9224                   21514021.5044
 -27546515.41848 -21406439.80146  20363483.8594                   20363482.3484
 -56462632.87946 -40584154.59443  23348632.0004                   23348633.6994
  13502032.14546  10878549.28543  24154298.0084                   24154298.0354
 -49527025.46548 -38534897.59446  20763255.8834                   20763252.3754
 11  8 15  1 40 30.0000000  0  7G25G12G10G05G04G29G02
  -6628880.93747  -5128193.23845  22368217.0394                   22368218.1724
 -30575886.21548 -23787104.43446  20886406.8524                   20886404.4064
 -35435821.80547 -27027672.79745  21811021.8204                   21811019.9224
 -26091207.76248 -20272433.80946  20640419.8444                   20640417.7664
 -54887214.16846 -39356555.62943  23648426.2974                   23648426.2274
  14914025.88346  11978804.13743  24422991.4454                   24422991.5594
 -48007878.02348 -37351146.34046  21052339.9534                   21052336.2034
 11  8 15  1 41  0.0000000  0  7G25G12G10G05G04G29G02
  -6770999.78547  -5238935.18745  22341173.1024                   22341173.8834
 -30653741.03548 -23847770.52346  20871591.5864                   20871589.1024
 -35449991.46547 -27038714.10945  21808324.7274                   21808323.7584
 -26210736.65647 -20365573.17246  20617673.9844                   20617672.4024
 -54887209.26646 -39356551.83643  23648426.9774                   23648426.6254
  14750565.37146  11851432.30943  24391885.8914                   24391885.5274
 -48063961.79348 -37394847.98046  21041667.7974                   21041664.1294
 11  8 15  1 41 30.0000000  0  7G25G12G10G05G04G29G02
  -6912606.19148  -5349277.84045  22314226.3284                   22314227.5824
 -30730976.45748 -23907953.97346  20856893.8834                   20856892.0004
 -35463649.53147 -27049356.76245  21805726.4774                   21805725.0084
 -26329674.18448 -20458251.73046  20595041.2974                   20595039.2194
 -54887196.03546 -39356541.54744  23648429.7034                   23648429.2584
  14587079.49246  11724040.68843  24360775.0634                   24360775.5124
 -48119852.91448 -37438399.51246  21031031.9694                   21031028.0234
 11  8 15  1 42  0.0000000  0  7G25G12G10G05G04G29G02
  -7053701.03548  -5459221.87145  22287376.7424                   22287377.8874
 -30807595.07448 -23967656.79746  20842313.9224                   20842311.9844
 -35476801.36747 -27059604.96545  21803223.0474                   21803222.5274
 -26448022.30948 -20550471.01646  20572519.6724                   20572518.4144
 -54887178.23846 -39356527.72343  23648431.5234                   23648432.8714
  14423566.14146  11596627.71143  24329659.5084                   24329659.5944
 -48175555.42248 -37481804.06646  21020432.2814                   21020428.8054
 11  8 15  1 42 30.0000000  0  7G25G12G10G05G04G29G02
  -7194284.56247  -5568767.47345  22260624.5394                   22260625.5554
 -30883599.58248 -24026881.09846  20827850.6094                   20827848.7934
 -35489451.69947 -27069462.37545  21800816.1564                   21800814.7974
 -26565782.16847 -20642231.91446  20550111.2664                   20550109.8984
 -54887159.21546 -39356512.94943  23648435.2194                   23648435.9924
  14260023.66046  11469192.00843  24298538.7034                   24298539.1374
 -48231072.48847 -37525064.12546  21009867.5704                   21009863.8914
 11  8 15  1 43  0.0000000  0  7G25G12G10G05G04G29G02
  -7334352.18048  -5677911.07445  22233970.8444                   22233971.6414
 -30958987.59448 -24085625.00846  20813504.8834                   20813502.9734
 -35501600.39147 -27078928.90245  21798504.5234                   21798503.3634
 -26682950.49648 -20733531.87946  20527814.8134                   20527813.2974
 -54887136.79346 -39356495.50843  23648439.5944                   23648439.8324
  14096455.16446  11341736.05943  24267412.8134                   24267412.7074
 -48286402.43448 -37568178.37546  20999338.9304                   20999335.3204
 11  8 15  1 43 30.0000000  0  7G25G12G10G05G04G29G02
  -7473905.41047  -5786653.85245  22207414.4924                   22207415.6994
 -31033762.23448 -24143890.96546  20799275.8834                   20799273.8714
 -35513253.73047 -27088009.44945  21796287.2194                   21796285.5554
 -26799529.71548 -20824372.80146  20505630.5634                   20505628.4384
 -54887115.45346 -39356478.93443  23648442.4774                   23648444.3284
  13932858.44546  11214258.09443  24236281.1804                   24236281.2894
 -48341550.00847 -37611150.52046  20988844.5084                   20988840.7504
 11  8 15  1 44  0.0000000  0  7G25G12G10G05G04G29G02
  -7612945.47748  -5894996.75845  22180956.1644                   22180957.3134
 -31107927.47348 -24201682.07046  20785162.5234                   20785160.4654
 -35524417.39547 -27096708.41445  21794162.7894                   21794161.8324
 -26915522.02048 -20914756.37946  20483557.6644                   20483555.7464
 -54887099.01246 -39356466.17243  23648447.6024                   23648447.7504
  13769231.25446  11086756.37543  24205143.9384                   24205144.2734
 -48396519.00848 -37653983.52046  20978384.3134                   20978380.4654
 11  8 15  1 44 30.0000000  0  7G25G12G10G05G04G29G02
  -7751466.31647  -6002935.07845  22154596.0084                   22154597.9494
 -31181479.40648 -24258995.26646  20771166.1564                   20771164.1484
 -35535090.11347 -27105024.82845  21792131.2504                   21792130.5514
 -27030922.50848 -21004678.81246  20461597.8134                   20461595.4804
 -54887084.30546 -39356454.75843  23648449.7584                   23648450.3524
  13605577.95346  10959234.34443  24174002.1024                   24174002.4224
 -48451306.53948 -37696675.11346  20967958.6254                   20967955.1564
 11  8 15  1 45  0.0000000  0  7G25G12G10G05G04G29G02
  -7889463.39848  -6110465.26645  22128336.1644                   22128337.7384
 -31254415.56648 -24315828.64846  20757286.4224                   20757284.5744
 -35545271.66047 -27112958.52345  21790193.6954                   21790192.8834
 -27145727.69948 -21094137.37546  20439751.0314                   20439749.2934
 -54887069.59446 -39356443.33243  23648453.0004                   23648452.8714
  13441902.06346  10831694.71543  24142856.1254                   24142855.8794
 -48505911.07448 -37739224.11346  20957567.6094                   20957564.1484
 11  8 15  1 45 30.0000000  0  7G25G12G10G05G04G29G02
  -8026940.02347  -6217589.90645  22102175.4534                   22102176.6724
 -31326741.41448 -24372186.45346  20743523.8054                   20743521.7774
 -35554969.77747 -27120515.51245  21788348.1724                   21788347.3164
 -27259942.02348 -21183135.52346  20418016.7424                   20418014.7344
 -54887060.68446 -39356436.41843  23648453.9224                   23648454.2034
  13278199.07446  10704133.96943  24111703.7974                   24111704.1884
 -48560338.30548 -37781634.95346  20947210.4144                   20947207.0124
 11  8 15  1 46  0.0000000  0  7G25G12G10G05G04G29G02
  -8163890.94547  -6324304.91445  22076114.4304                   22076115.7034
 -31398454.00048 -24428066.39846  20729877.5314                   20729875.4024
 -35564183.96947 -27127695.41045  21786595.6484                   21786594.1024
 -27373561.50047 -21271670.16446  20396395.8914                   20396393.6454
 -54887054.78146 -39356431.84043  23648456.2424                   23648455.7624
  13114473.28146  10576555.46143  24080547.9924                   24080547.8134
 -48614585.93748 -37823905.84446  20936887.4224                   20936883.8914
 11  8 15  1 46 30.0000000  0  7G25G12G10G05G04G29G02
  -8300316.42248  -6430610.46945  22050153.7274                   22050154.8364
 -31469555.94548 -24483470.51246  20716347.1564                   20716345.0354
 -35572918.97747 -27134501.92645  21784933.1484                   21784932.1564
 -27486587.39148 -21359742.25446  20374887.4384                   20374885.7154
 -54887055.11346 -39356432.10543  23648457.9304                   23648455.6094
  12950723.05546  10448957.89543  24049387.0704                   24049387.1684
 -48668657.33247 -37866039.41046  20926598.0944                   20926594.7504
 11  8 15  1 47  0.0000000  0  7G25G12G10G05G04G29G02
  -8436214.58648  -6536505.14545  22024292.6724                   22024294.5204
 -31540047.56248 -24538399.05546  20702932.8284                   20702931.0354
 -35581177.79347 -27140937.39845  21783361.6414                   21783360.6604
 -27599018.80947 -21447351.13346  20353492.7584                   20353490.7344
 -54887062.31647 -39356437.72743  23648455.5784                   23648454.4224
  12786949.45346  10321342.14143  24018221.8984                   24018222.4344
 -48722553.39847 -37908036.35946  20916342.0004                   20916338.6294
 11  8 15  1 47 30.0000000  0  7G25G12G10G05G04G29G02
  -8571584.94148  -6641988.55145  21998533.3284                   21998534.1804
 -31609930.68748 -24592853.44146  20689634.5164                   20689632.8554
 -35588964.00847 -27147004.59445  21781879.6804                   21781878.9454
 -27710856.31648 -21534497.21146  20332210.5864                   20332208.7544
 -54887078.25846 -39356450.15243  23648451.6414                   23648451.1764
  12623152.03146  10193707.81343  23987052.0084                   23987052.3634
 -48776276.11347 -37949898.23446  20906118.8054                   20906115.1214
 11  8 15  1 48  0.0000000  0  7G25G12G10G05G04G29G02
  -8706425.34448  -6747058.98445  21972873.7424                   21972874.7194
 -31679205.41848 -24646833.75446  20676451.9454                   20676450.5984
 -35596280.04347 -27152705.41445  21780487.5704                   21780486.7704
 -27822098.98048 -21621179.78946  20311041.9144                   20311039.8954
 -54887103.61346 -39356469.89543  23648447.1884                   23648446.8984
  12459331.90646  10066055.83643  23955878.6334                   23955878.3054
 -48829826.25047 -37991625.61746  20895928.8284                   20895925.3134
 11  8 15  1 48 30.0000000  0  7G25G12G10G05G04G29G02
  -8840733.31248  -6851714.54745  21947315.9774                   21947317.1994
 -31747871.52048 -24700339.81646  20663385.5164                   20663383.5274
 -35603128.00447 -27158041.50445  21779184.4384                   21779183.0784
 -27932745.50448 -21707397.82846  20289986.5234                   20289984.7894
 -54887138.36746 -39356497.01243  23648439.6024                   23648440.0824
  12295490.55946   9938387.29344  23924700.4844                   23924700.6214
 -48883204.37548 -38033218.96946  20885771.0164                   20885767.6564
 11  8 15  1 49  0.0000000  0  7G25G12G10G05G04G29G02
  -8974508.09048  -6955954.63745  21921859.3834                   21921860.8244
 -31815930.27348 -24753372.60546  20650434.5944                   20650432.2664
 -35609511.75847 -27163015.86745  21777969.7504                   21777968.2624
 -28042796.19548 -21793151.59846  20269044.1024                   20269042.5274
 -54887184.17646 -39356532.72343  23648431.3364                   23648430.9104
  12131627.79746   9810702.05943  23893517.9064                   23893518.6294
 -48936411.85547 -38074679.34446  20875646.2584                   20875642.2544
 11  8 15  1 49 30.0000000  0  7G25G12G10G05G04G29G02
  -9107749.09448  -7059778.80145  21896504.3914                   21896505.5664
 -31883383.48448 -24805933.55946  20637598.5004                   20637596.6524
 -35615434.91047 -27167631.32445  21776842.8524                   21776841.2894
 -28152251.68448 -21878441.56246  20248216.2424                   20248213.9454
 -54887242.95746 -39356578.53143  23648420.1414                   23648419.7194
  11967743.19146   9682999.82443  23862332.0234                   23862332.8204
 -48989451.14847 -38116008.67246  20865553.0704                   20865549.3364
 11  8 15  1 50  0.0000000  0  7G25G12G10G05G04G29G02
  -7665023.92248  -5935577.36345  22171045.8444                   22171047.1024
 -30374803.69148 -23630416.84846  20924671.6884                   20924669.4694
 -34045474.00447 -25944285.16845  22075595.8984                   22075594.6134
 -26685681.40248 -20735659.49646  20527295.3204                   20527292.7194
 -53311889.04746 -38129030.06243  23948200.1644                   23948200.5204
  13379269.53546  10782890.53943  24130936.5944                   24130936.8984
 -47466895.14548 -36929601.39846  21155285.6334                   21155282.0274
 11  8 15  1 50 30.0000000  0  7G25G12G10G05G04G29G02
  -7797188.15248  -6038562.47745  22145896.2424                   22145897.5274
 -30441044.44548 -23682033.03146  20912066.2194                   20912064.0704
 -34050480.55147 -25948186.38744  22074643.3754                   22074642.4804
 -26793940.63748 -20820017.31246  20506693.7974                   20506692.2734
 -53311971.62946 -38129094.43743  23948184.3054                   23948184.4184
  13215348.04746  10655159.53143  24099743.5394                   24099743.4104
 -47519596.63748 -36970667.50046  21145256.8594                   21145253.1254
 11  8 15  1 51  0.0000000  0  7G25G12G10G05G04G29G02
  -7928811.77348  -6141126.34845  22120848.7974                   22120850.5004
 -30506679.91848 -23733177.56646  20899576.2814                   20899574.7664
 -34055033.24647 -25951733.95344  22073777.0634                   22073775.6644
 -26901601.44948 -20903908.83646  20486206.7894                   20486204.6914
 -53312067.45746 -38129169.12143  23948166.7424                   23948166.0434
  13051408.91446  10527414.79343  24068546.3444                   24068546.6484
 -47572130.77048 -37011603.19546  21135260.2274                   21135256.3594
 11  8 15  1 51 30.0000000  0  7G25G12G10G05G04G29G02
  -8059895.55548  -6243269.55545  22095904.6254                   22095905.9884
 -30571712.84048 -23783852.59046  20887200.9534                   20887198.6994
 -34059137.18747 -25954931.82445  22072996.0394                   22072994.7664
 -27008665.62548 -20987335.45346  20465832.8444                   20465830.7584
 -53312179.78146 -38129256.63743  23948145.2974                   23948144.5314
  12887451.05146  10399655.45743  24037345.8594                   24037346.3284
 -47624501.04748 -37052411.19946  21125294.8984                   21125291.0984
 11  8 15  1 52  0.0000000  0  7G25G12G10G05G04G29G02
  -8190438.48448  -6344991.33245  22071062.7194                   22071064.1684
 -30636144.39548 -23834059.00846  20874940.2894                   20874938.3204
 -34062796.01647 -25957782.86344  22072299.8754                   22072298.3364
 -27115133.19148 -21070297.16846  20445572.7344                   20445570.9804
 -53312309.91446 -38129358.05143  23948118.9844                   23948120.1484
  12723474.35246  10271881.44943  24006142.0634                   24006143.0744
 -47676709.41048 -37093093.04746  21115359.6954                   21115355.8204
 11  8 15  1 52 30.0000000  0  7G25G12G10G05G04G29G02
  -8320436.01648  -6446288.11345  22046324.8674                   22046326.2464
 -30699973.31648 -23883795.83646  20862794.0084                   20862791.9184
 -34066009.60247 -25960286.95744  22071688.6414                   22071686.7384
 -27221000.98848 -21152791.53546  20425426.7974                   20425424.8054
 -53312455.40646 -38129471.37543  23948093.0164                   23948092.1024
  12559483.08246  10144096.05543  23974936.0864                   23974936.3404
 -47728753.30148 -37133646.72746  21105456.1484                   21105452.3874
 11  8 15  1 53  0.0000000  0  7G25G12G10G05G04G29G02
  -8449885.08248  -6547157.51245  22021691.5554                   22021692.8244
 -30763198.34048 -23933062.10246  20850762.7504                   20850760.5984
 -34068779.23447 -25962445.10944  22071161.4614                   22071160.1484
 -27326267.03548 -21234817.00446  20405395.2194                   20405393.4924
 -53312615.67646 -38129596.26243  23948061.5004                   23948061.8054
  12395478.96946  10016300.68443  23943727.5474                   23943727.0594
 -47780631.68748 -37174071.43746  21095583.8054                   21095580.0204
 11  8 15  1 53 30.0000000  0  7G25G12G10G05G04G29G02
  -8578784.93448  -6647598.95745  21997162.9614                   21997164.2774
 -30825821.22748 -23981859.16046  20838845.8054                   20838843.7544
 -34071108.36747 -25964260.02344  22070717.8674                   22070717.1484
 -27430931.93448 -21316374.04746  20385478.3054                   20385476.4734
 -53312792.04746 -38129733.66843  23948028.6804                   23948028.5664
  12231461.99646   9888495.25843  23912515.5864                   23912515.8834
 -47832347.07848 -37214369.14546  21085743.0084                   21085739.1524
 11  8 15  1 54  0.0000000  0  7G25G12G10G05G04G29G02
  -8707137.46148  -6747613.90645  21972738.0784                   21972739.2544
 -30887846.01248 -24030190.16846  20827042.7274                   20827041.0124
 -34073003.54347 -25965736.78944  22070357.9224                   22070356.2424
 -27534998.64148 -21397464.96546  20365675.0554                   20365673.2974
 -53312988.72346 -38129886.89543  23947991.0084                   23947991.1644
  12067430.23846   9760678.33243  23881301.3134                   23881301.4024
 -47883903.76248 -37254543.18046  21075931.6954                   21075927.8014
 11  8 15  1 54 30.0000000  0  7G25G12G10G05G04G29G02
  -8834939.66848  -6847200.02745  21948418.5474                   21948418.8404
 -30949272.28148 -24078054.80546  20815354.0234                   20815351.6604
 -34074465.88747 -25966876.29744  22070079.5004                   22070078.0904
 -27638465.51248 -21478088.48446  20345985.9384                   20345983.7974
 -53313204.80946 -38130055.23043  23947950.3914                   23947949.4104
  11903385.86746   9632851.57443  23850085.2584                   23850084.8134
 -47935300.93748 -37294592.92646  21066151.3524                   21066147.7774
 11  8 15  1 55  0.0000000  0  7G25G12G10G05G04G29G02
  -8962189.09048  -6946355.41445  21924203.4224                   21924204.6524
 -31010100.06648 -24125453.09846  20803779.0084                   20803776.7504
 -34075497.57047 -25967680.20745  22069883.0084                   22069881.7154
 -27741331.29348 -21558243.61746  20326411.0084                   20326409.2624
 -53313440.17246 -38130238.62543  23947904.9144                   23947904.6174
  11739330.68446   9505016.38743  23818865.7584                   23818865.8674
 -47986538.73848 -37334518.47746  21056401.0314                   21056397.5594
 11  8 15  1 55 30.0000000  0  7G25G12G10G05G04G29G02
  -9088880.32448  -7045075.84845  21900095.0234                   21900096.1484
 -31070326.12148 -24172382.50046  20792318.2734                   20792316.3674
 -34076097.81247 -25968147.94144  22069768.6724                   22069767.9734
 -27843591.64847 -21637926.99246  20306951.2664                   20306949.9454
 -53313691.35946 -38130434.34843  23947857.2274                   23947857.1604
  11575269.21946   9377176.29744  23787646.1644                   23787646.4144
 -48037614.03948 -37374317.41846  21046681.5474                   21046678.3054
 11  8 15  1 56  0.0000000  0  7G25G12G10G05G04G29G02
  -9215022.88348  -7143368.73845  21876090.6804                   21876091.9964
 -31129962.30548 -24218852.26646  20780969.9064                   20780967.7814
 -34076280.07847 -25968289.98445  22069733.6804                   22069733.1334
 -27945257.35248 -21717146.99646  20287605.2114                   20287603.3204
 -53313969.90246 -38130651.28543  23947804.3984                   23947803.5474
  11411191.74246   9249323.75844  23756422.8204                   23756423.3484
 -48088538.63348 -37413998.91846  21036990.7274                   21036987.4534
 11  8 15  1 56 30.0000000  0  7G25G12G10G05G04G29G02
  -9340608.08248  -7241227.32445  21852192.8054                   21852194.0784
 -31189002.31648 -24264857.47746  20769734.9924                   20769732.8324
 -34076039.77347 -25968102.75045  22069779.7504                   22069778.8364
 -28046320.95748 -21795897.84046  20268373.7274                   20268371.7464
 -53314269.42246 -38130884.65243  23947746.9534                   23947746.4264
  11247106.52746   9121465.15644  23725198.9064                   23725199.3324
 -48139306.28548 -37453558.12946  21027330.2034                   21027326.7384
 11  8 15  1 57  0.0000000  0  7G25G12G10G05G04G29G02
  -9465638.77748  -7338653.82445  21828400.5164                   21828401.6884
 -31247451.68748 -24310402.43746  20758612.0394                   20758609.9614
 -34075384.39147 -25967592.07445  22069904.9384                   22069903.5234
 -28146786.70747 -21874182.81246  20249255.4224                   20249253.5824
 -53314594.59446 -38131137.98443  23947684.7664                   23947685.1604
  11083009.68446   8993597.52044  23693972.7584                   23693972.6564
 -48189921.93048 -37492998.89146  21017698.5704                   21017695.2734
 11  8 15  1 57 30.0000000  0  7G25G12G10G05G04G29G02
  -9590108.64548  -7435643.32445  21804714.4844                   21804715.8164
 -31305306.19548 -24355483.88746  20747602.7974                   20747601.0434
 -34074311.84447 -25966756.34444  22070108.4224                   22070107.6094
 -28246649.23848 -21951997.74646  20230252.0394                   20230250.3444
 -53314941.24646 -38131408.07843  23947619.3754                   23947619.4184
  10918907.92647   8865726.06644  23662745.4534                   23662745.1724
 -48240381.93448 -37532318.38346  21008096.2114                   21008092.6684
 11  8 15  1 58  0.0000000  0  7G25G12G10G05G04G29G02
  -9714021.15248  -7532198.51645  21781134.6094                   21781135.8484
 -31362571.57848 -24400106.25846  20736705.4144                   20736703.8164
 -34072830.11347 -25965601.75444  22070390.4224                   22070389.6214
 -28345913.48048 -22029346.48446  20211362.8364                   20211360.9574
 -53315314.71146 -38131698.99642  23947548.2894                   23947548.5234
  10754797.02747   8737847.46544  23631515.5234                   23631515.4454
 -48290691.68748 -37571520.79346  20998522.7344                   20998519.1214
 11  8 15  1 58 30.0000000  0  7G25G12G10G05G04G29G02
  -9837371.11348  -7628315.34845  21757661.9064                   21757662.7774
 -31419245.50848 -24444267.76646  20725921.0554                   20725918.8444
 -34070938.08247 -25964127.46144  22070750.3754                   22070749.6374
 -28444575.62548 -22106226.05946  20192588.0004                   20192586.0204
 -53315711.88746 -38132008.46142  23947473.6724                   23947473.0354
  10590681.83647   8609965.54344  23600285.2114                   23600285.8164
 -48340848.27348 -37610603.85246  20988978.0394                   20988974.3284
 11  8 15  1 59  0.0000000  0  7G25G12G10G05G04G29G02
  -9960157.23448  -7723992.82845  21734296.4774                   21734297.3404
 -31475329.02048 -24487969.20346  20715248.5634                   20715246.6994
 -34068638.60947 -25962335.67644  22071188.0634                   22071187.2344
 -28542635.25448 -22182636.12946  20173927.8284                   20173926.0044
 -53316133.29346 -38132336.80942  23947391.8134                   23947393.0164
  10426563.42247   8482081.09444  23569055.0864                   23569055.0944
 -48390852.33648 -37649568.06246  20979462.8594                   20979458.9654
 11  8 15  1 59 30.0000000  0  7G25G12G10G05G04G29G02
  -8506953.82048  -6591626.52745  22010831.9774                   22010833.0124
 -29955400.60948 -23303609.40246  21004481.2424                   21004479.2704
 -32490514.82447 -24732628.83244  22371495.4454                   22371494.2464
 -27064668.91448 -21030974.02346  20455175.4844                   20455173.7424
 -51741159.26246 -36905084.26642  24247099.8054                   24247099.9964
  11837868.20747   9581799.15244  23837617.2114                   23837617.1134
 -46865282.90648 -36460812.66046  21269768.9774                   21269765.2854
 11  8 15  2  0  0.0000000  0  7G25G12G10G05G04G29G02
  -8628612.75048  -6686425.66445  21987680.9534                   21987681.9144
 -30010310.28548 -23346396.16846  20994032.3364                   20994030.4144
 -32487414.01247 -24730212.62944  22372085.3674                   22372084.3554
 -27161528.32448 -21106448.86346  20436743.9144                   20436741.7584
 -51741635.12146 -36905454.98443  24247009.7894                   24247009.2774
  11673741.36747   9453908.12944  23806384.6804                   23806384.8954
 -46914989.30148 -36499544.93046  21260309.9384                   21260306.4304
 11  8 15  2  0 30.0000000  0  7G25G12G10G05G04G29G02
  -8749704.63748  -6780782.96545  21964637.6254                   21964639.0904
 -30064633.70348 -23388726.10546  20983695.1644                   20983693.0744
 -32483915.45747 -24727486.49644  22372751.3284                   22372750.5004
 -27257786.04748 -21181454.85946  20418426.4144                   20418424.4344
 -51742137.51646 -36905846.43043  24246913.5864                   24246914.0004
  11509613.51246   9326016.33644  23775151.8914                   23775152.3834
 -46964546.99647 -36538161.32446  21250879.5314                   21250875.9844
 11  8 15  2  1  0.0000000  0  7G25G12G10G05G04G29G02
  -8870228.73048  -6874697.82845  21941702.8134                   21941704.1564
 -30118372.10947 -23430600.18746  20973468.8754                   20973466.9384
 -32480022.48447 -24724453.03144  22373491.4144                   22373490.7304
 -27353442.38748 -21255992.23846  20400223.6174                   20400221.6954
 -51742667.74246 -36906259.53143  24246812.1254                   24246812.6454
  11345485.26246   9198124.24244  23743919.9844                   23743919.8634
 -47013956.79348 -36576662.45346  21241477.1564                   21241473.4384
 11  8 15  2  1 30.0000000  0  7G25G12G10G05G04G29G02
  -8990188.27048  -6968172.76645  21918875.4534                   21918876.2544
 -30171531.37548 -23472022.99246  20963353.2274                   20963351.2734
 -32475742.32047 -24721117.84844  22374306.3984                   22374304.9144
 -27448501.93048 -21330064.57846  20382134.1094                   20382132.3794
 -51743230.57846 -36906698.05143  24246705.6414                   24246704.9804
  11181353.02046   9070229.04344  23712686.6024                   23712686.0664
 -47063223.95348 -36615052.46546  21232102.0944                   21232098.2384
 11  8 15  2  2  0.0000000  0  7G25G12G10G05G04G29G02
  -9109584.35548  -7061208.65646  21896155.2664                   21896155.7624
 -30224115.28148 -23512997.47346  20953346.6804                   20953344.5594
 -32471080.35247 -24717485.14844  22375193.2974                   22375191.8984
 -27542967.47748 -21403674.07846  20364158.0394                   20364156.5664
 -51743829.03546 -36907164.36743  24246592.0004                   24246591.0084
  11017215.53946   8942329.75444  23681452.5704                   23681451.7624
 -47112351.75048 -36653333.85946  21222753.1564                   21222749.5554
 11  8 15  2  2 30.0000000  0  7G25G12G10G05G04G29G02
  -9228410.33248  -7153800.30145  21873543.0704                   21873544.2194
 -30276119.07048 -23553519.90646  20943450.5864                   20943448.6684
 -32466034.06247 -24713552.97344  22376153.8524                   22376152.4654
 -27636833.27748 -21476816.23846  20346296.3444                   20346294.5784
 -51744457.93746 -36907654.38343  24246472.0634                   24246471.4574
  10853079.39546   8814431.49644  23650217.8524                   23650217.2734
 -47161335.59448 -36691503.09446  21213432.0004                   21213428.0864
 11  8 15  2  3  0.0000000  0  7G25G12G10G05G04G29G02
  -9346662.23048  -7245944.61345  21851040.3054                   21851041.9414
 -30327541.47748 -23593589.31246  20933665.1334                   20933663.6414
 -32460603.75447 -24709321.58244  22377187.4844                   22377186.0474
 -27730096.71948 -21549489.02047  20328548.9774                   20328546.7974
 -51745115.17646 -36908166.50043  24246346.5314                   24246346.0704
  10688948.49647   8686537.33244  23618984.4614                   23618984.3634
 -47210173.14148 -36729558.32046  21204138.8134                   21204135.1174
 11  8 15  2  3 30.0000000  0  7G25G12G10G05G04G29G02
  -9464345.64148  -7337645.95345  21828646.1024                   21828646.9614
 -30378390.43448 -23633211.87546  20923988.8524                   20923987.1414
 -32454799.07447 -24704798.46544  22378291.6094                   22378290.6454
 -27822764.55148 -21621697.70346  20310914.4144                   20310912.3204
 -51745807.94946 -36908706.28143  24246215.0164                   24246214.8754
  10524817.27747   8558642.91844  23587750.8754                   23587751.3444
 -47258871.97748 -36767505.46546  21194871.3134                   21194867.7424
 11  8 15  2  4  0.0000000  0  7G25G12G10G05G04G29G02
  -9581458.88748  -7428903.00446  21806360.2664                   21806361.2114
 -30428666.74248 -23672388.23446  20914421.6644                   20914420.0944
 -32448622.39547 -24699985.48044  22379467.0004                   22379465.8874
 -27914836.74648 -21693442.23846  20293393.7894                   20293391.9144
 -51746536.13346 -36909273.66843  24246076.5704                   24246076.0984
  10360687.30947   8430749.46944  23556519.0784                   23556517.9694
 -47307432.43448 -36805344.77346  21185630.7114                   21185627.0124
 11  8 15  2  4 30.0000000  0  7G25G12G10G05G04G29G02
  -9697997.25448  -7519712.09446  21784183.7894                   21784184.8134
 -30478368.40648 -23711116.79346  20904963.8284                   20904962.0594
 -32442073.14547 -24694882.16844  22380713.0634                   22380712.1844
 -28006309.77748 -21764719.91046  20275986.9304                   20275984.8914
 -51747296.52746 -36909866.20343  24245931.8134                   24245931.9804
  10196563.27747   8302860.64844  23525286.4534                   23525286.9304
 -47355852.01647 -36843074.31646  21176416.6804                   21176412.8984
 11  8 15  2  5  0.0000000  0  7G25G12G10G05G04G29G02
  -9813965.09848  -7610076.64146  21762115.7584                   21762116.7274
 -30527502.01247 -23749402.72346  20895614.0314                   20895612.2934
 -32435159.39147 -24689494.83644  22382029.0784                   22382027.9064
 -28097189.08648 -21835534.92247  20258692.9384                   20258691.1374
 -51748095.09446 -36910488.46543  24245779.6484                   24245778.8244
  10032441.04747   8174973.22744  23494055.0784                   23494055.5984
 -47404136.88347 -36880698.88346  21167228.0084                   21167224.5274
 11  8 15  2  5 30.0000000  0  7G25G12G10G05G04G29G02
  -9929354.29748  -7699990.28546  21740157.9384                   21740158.9414
 -30576061.87148 -23787241.57846  20886373.1884                   20886371.6764
 -32427877.27746 -24683820.46944  22383414.3054                   22383413.6414
 -28187467.96948 -21905882.07446  20241514.2034                   20241511.9024
 -51748925.24646 -36911135.31642  24245621.5704                   24245621.3094
   9868328.46547   8047093.30544  23462825.9064                   23462825.9414
 -47452280.12947 -36918213.09446  21158067.1024                   21158063.3204
 11  8 15  2  6  0.0000000  0  7G25G12G10G05G04G29G02
 -10044166.26648  -7789454.14146  21718309.7034                   21718310.9574
 -30624051.46148 -23824636.07446  20877241.1024                   20877239.5744
 -32420232.15647 -24677863.25844  22384869.6254                   22384868.4264
 -28277149.09448 -21975763.44546  20224447.5634                   20224445.9104
 -51749789.99246 -36911809.18742  24245457.0634                   24245456.7384
   9704224.38747   7919220.04344  23431597.9694                   23431597.8794
 -47500285.00448 -36955619.48446  21148932.2584                   21148928.5984
 11  8 15  2  6 30.0000000  0  7G25G12G10G05G04G29G02
 -10158399.46148  -7878467.01646  21696572.0864                   21696572.9804
 -30671471.81247 -23861587.00046  20868217.7424                   20868215.4924
 -32412226.44947 -24671625.04344  22386392.9304                   22386391.7424
 -28366232.24648 -22045178.85547  20207495.7114                   20207494.2424
 -51750688.98846 -36912509.69942  24245285.3984                   24245286.0554
   9540130.48046   7791354.68844  23400372.4064                   23400371.0824
 -47548152.11747 -36992918.52346  21139823.2584                   21139819.6914
 11  8 15  2  7  0.0000000  0  8G25G12G10G26G05G04G29G02
 -10272057.30548  -7967031.54746  21674943.4144                   21674944.7114
 -30718329.35948 -23898099.37946  20859300.9454                   20859299.4104
 -32403867.55946 -24665111.62944  22387984.1414                   22387982.8834
  21705778.30556  16948749.59453  24702128.2974                   24702128.3284
 -28454722.36748 -22114132.17647  20190656.7274                   20190654.9264
 -51751627.41445 -36913240.97342  24245107.5474                   24245107.6644
   9376043.60246   7663494.81344  23369147.2194                   23369146.8094
 -47595886.41448 -37030114.07846  21130739.7974                   21130735.8244
 11  8 15  2  7 30.0000000  0  8G25G12G10G26G05G04G29G02
 -10385143.44548  -8055150.61345  21653424.1484                   21653425.0084
 -30764629.88748 -23934177.71146  20850490.1254                   20850488.6454
 -32395162.98846 -24658328.85244  22389639.6644                   22389639.4144
  21531713.67646  16813114.89143  24669004.6094                   24669004.4614
 -28542623.94148 -22182626.88746  20173929.8204                   20173927.4654
 -51752610.07846 -36914006.70342  24244920.9614                   24244921.6214
   9211960.58246   7535637.93044  23337922.6024                   23337923.3204
 -47643493.30148 -37067210.35246  21121680.1954                   21121676.8094
 11  8 15  2  8  0.0000000  0  8G25G12G10G26G05G04G29G02
 -10497655.96148  -8142822.69145  21632013.4774                   21632014.4884
 -30810374.07848 -23969822.53546  20841785.6024                   20841783.7774
 -32386114.94147 -24651278.44144  22391362.0474                   22391361.0354
  21357537.63746  16677393.33643  24635860.8284                   24635860.5394
 -28629936.73448 -22250662.79746  20157315.0554                   20157312.6174
 -51753636.60546 -36914806.66442  24244725.3134                   24244726.3484
   9047882.96946   7407785.26643  23306700.5314                   23306700.0204
 -47690972.59048 -37104207.19946  21112645.5234                   21112642.0744
 11  8 15  2  8 30.0000000  0  8G25G12G10G26G05G04G29G02
 -10609592.82848  -8230046.20346  21610712.5394                   21610714.2194
 -30855562.12148 -24005034.00046  20833186.3284                   20833184.7424
 -32376725.13347 -24643961.72744  22393148.7114                   22393147.7034
  21183254.19546  16541588.14543  24602695.1174                   24602695.1094
 -28716659.86348 -22318239.23847  20140811.7734                   20140810.1374
 -51754706.08646 -36915640.02742  24244521.6804                   24244522.7584
   8883813.29746   7279938.81644  23275478.2974                   23275478.6564
 -47738323.53948 -37141104.04346  21103634.7894                   21103631.4414
 11  8 15  2  9  0.0000000  0  8G25G12G10G26G05G04G29G02
 -10720954.59448  -8316821.59446  21589521.7664                   21589522.2624
 -30900197.01248 -24039814.44146  20824692.5084                   20824691.1954
 -32366998.07847 -24636382.21944  22394999.8674                   22394998.9694
  21008864.54746  16405700.16843  24569509.0944                   24569510.4574
 -28802795.27748 -22385357.72346  20124421.0394                   20124419.0664
 -51755820.50046 -36916289.42253  24244310.0944                   24244310.2504
   8719751.39846   7152098.41044  23244258.8364                   23244258.8094
 -47785548.73047 -37177902.89846  21094648.1644                   21094644.5944
 11  8 15  2  9 30.0000000  0  8G25G12G10G26G05G04G29G02
  -9256317.96148  -7175546.27746  21868232.6024                   21868233.6214
 -29368860.41048 -22846565.13746  21116096.4614                   21116094.2624
 -30781518.23747 -23400943.38944  22696706.1254   22696705.7154   22409796.12146
  17497335.24242                  24836097.7274                   24836099.1374
 -27312921.75448 -21224417.28146  20407934.1724                   20407932.1804
 -50181561.37946 -35689594.01642  24543880.8834   24543881.5744   10131122.64147
   8251868.25844                  23512833.8134                   23512833.5664
 -46257228.31648 -35987003.86345  21385477.6564                   21385473.9224
 11  8 15  2 10  0.0000000  0  8G25G12G10G26G05G04G29G02
  -9366522.91848  -7261420.26246  21847261.1094                   21847262.4694
 -29412389.56648 -22880483.96946  21107812.9534                   21107810.9534
 -30771121.48846 -23392842.03544  22698685.2424   22698684.7384   22235206.55946
  17361291.48442                  24802874.3364                   24802875.0594
 -27397879.03148 -21290617.73446  20391767.4304                   20391765.3284
 -50182762.66846 -35690530.09842  24543652.6724   24543652.7154
   9967084.06646   8124046.03544  23481618.4774                   23481618.0274
 -46304199.67247 -36023604.92645  21376539.3754                   21376536.1994
 11  8 15  2 10 30.0000000  0  8G25G12G10G26G05G04G29G02
  -9476147.75448  -7346842.18745  21826400.0784                   21826401.2734
 -29455368.00848 -22913973.65646  21099634.7424                   21099632.8404
 -30760393.76246 -23384482.78544  22700726.5394   22700725.5164   22060521.96546
  17225173.75642                  24769633.2814                   24769633.6644
 -27482247.70348 -21356359.53146  20375712.4694                   20375710.6094
 -50184007.58646 -35691500.17643  24543415.7974   24543416.4694
   9803059.36346   7996234.64544  23450405.3834                   23450405.8524
 -46351044.52347 -36060107.40646  21367625.2734                   21367621.5514
 11  8 15  2 11  0.0000000  0  8G25G12G10G26G05G04G29G02
  -9585186.70748  -7431807.58646  21805650.6644                   21805651.7504
 -29497792.18448 -22947031.46146  21091561.3754                   21091559.7504
 -30749333.49247 -23375864.40644  22702831.1884   22702830.2074   21885749.80546
  17088987.75442                  24736375.1334                   24736376.4734
 -27566022.95747 -21421638.93446  20359770.3984                   20359768.7814
 -50185291.27346 -35692500.48843  24543171.3134   24543171.8594
   9639054.67247   7868438.81644  23419196.2114                   23419196.3134
 -46397758.69947 -36096508.06645  21358735.7734                   21358732.0474
 11  8 15  2 11 30.0000000  0  8G25G12G10G26G05G04G29G02
  -9693643.69548  -7516319.49246  21785012.1564                   21785013.1564
 -29539668.80148 -22979662.59846  21083592.6804                   21083590.5434
 -30737947.94146 -23366992.57044  22704997.9924   22704996.6644   21710888.47345
  16952732.24242                  24703099.6804                   24703101.9224
 -27649210.13748 -21486460.09046  20343940.6334                   20343938.4534
 -50186619.04746 -35693535.11343  24542919.8754   24542919.2974
   9475066.64847   7740655.99644  23387990.1094                   23387990.1524
 -46444347.52347 -36132811.05546  21349870.0554                   21349866.7344
 11  8 15  2 12  0.0000000  0  8G25G12G10G26G05G04G29G02
  -9801518.34448  -7600377.64146  21764484.2344                   21764485.2274
 -29581000.01248 -23011868.74646  21075727.6644                   21075725.2584
 -30726240.75447 -23357870.07844  22707225.6094   22707224.5004   21535940.48445
  16816409.22742                  24669807.9454                   24669809.2894
 -27731810.34848 -21550823.86746  20328222.2194                   20328220.2384
 -50187991.73846 -35694604.75443  24542657.8364   24542657.6804
   9311096.52046   7612887.12144  23356787.8134                   23356787.3444
 -46490812.18047 -36169017.28145  21341028.1804                   21341024.7424
 11  8 15  2 12 30.0000000  0  8G25G12G10G26G05G04G29G02
  -9908810.94948  -7683982.25446  21744067.0084                   21744067.8364
 -29621788.05548 -23043651.63746  21067965.7194                   21067963.7814
 -30714215.74246 -23348499.95744  22709514.0004   22709512.6214   21360907.55146
  16680019.99242                  24636500.3594                   24636501.4144
 -27813824.93748 -21614731.31647  20312615.5554                   20312613.7464
 -50189410.46546 -35695710.32843  24542387.8834   24542387.8674
   9147144.07847   7485132.01244  23325588.7664                   23325588.6604
 -46537154.02048 -36205127.80145  21332209.7894                   21332206.0394
 11  8 15  2 13  0.0000000  0  8G25G12G10G26G05G04G29G02
 -10015517.93448  -7767130.53145  21723760.9064                   21723762.2344
 -29662031.88348 -23075010.47346  21060307.6334                   21060305.9574
 -30701872.98846 -23338882.22744  22711862.4844   22711861.8164   21185795.42246
  16543569.04342                  24603177.1094                   24603178.4884
 -27895251.93048 -21678180.89547  20297120.3834                   20297118.2664
 -50190872.84846 -35696849.89843  24542109.8674   24542109.7114
   8983213.50446   7357393.94544  23294393.5234                   23294394.0204
 -46583371.19548 -36241141.18046  21323414.6564                   21323411.0864
 11  8 15  2 13 30.0000000  0  8G25G12G10G26G05G04G29G02
 -10121638.31248  -7849821.71146  21703567.3594                   21703568.3914
 -29701733.05948 -23105946.45346  21052752.5164                   21052751.0474
 -30689215.05946 -23329018.92644  22714270.8674   22714270.5824   21010607.31346
  16407058.80943                  24569840.5784                   24569840.9414
 -27976091.55948 -21741172.79347  20281737.3444                   20281735.0434
 -50192378.79746 -35698023.43443  24541824.0474   24541823.2734
   8819306.47746   7229674.25044  23263203.4614                   23263202.5744
 -46629463.80548 -36277057.50045  21314644.0474                   21314640.2274
 11  8 15  2 14  0.0000000  0  8G25G12G10G26G05G04G29G02
 -10227170.34448  -7932054.44546  21683485.3444                   21683486.3094
 -29740891.93748 -23136459.86346  21045301.0784                   21045299.1134
 -30676243.98446 -23318911.60244  22716739.6024   22716738.9844   20835347.35246
  16270492.67643                  24536490.4454                   24536490.0594
 -28056343.32448 -21803706.61747  20266465.4304                   20266463.2624
 -50193927.52346 -35699230.23843  24541528.7424   24541528.8874
   8655425.57846   7101974.87544  23232017.2894                   23232017.0784
 -46675431.36747 -36312876.37545  21305896.7344                   21305892.3674
 11  8 15  2 14 30.0000000  0  8G25G12G10G26G05G04G29G02
 -10332114.00448  -8013828.69546  21663515.1484                   21663516.1294
 -29779511.41448 -23166552.96946  21037952.1094                   21037950.2384
 -30662963.44946 -23308563.16444  22719266.8204   22719266.0664   20660017.95746
  16133872.39543                  24503125.5944                   24503126.0314
 -28136008.64148 -21865783.46546  20251305.9534                   20251303.6054
 -50195520.37546 -35700471.48843  24541225.6954   24541226.0744
   8491571.19547   6974296.20744  23200836.6954                   23200836.7814
 -46721275.27347 -36348598.89845  21297172.7664                   21297168.7544
 11  8 15  2 15  0.0000000  0  8G25G12G10G26G05G04G29G02
 -10436468.28148  -8095143.69546  21643657.0314                   21643658.1724
 -29817592.68748 -23196226.69546  21030705.3594                   21030703.8444
 -30649375.94546 -23297975.50844  22721852.3054   22721851.0274   20484622.46546
  15997200.71143                  24469748.3364                   24469749.1914
 -28215087.67248 -21927403.46946  20236257.7034                   20236255.5164
 -50197156.82846 -35701746.71943  24540913.9924   24540914.0394
   8327745.48046   6846639.85544  23169661.9924                   23169661.6804
 -46766995.69947 -36384225.20345  21288472.3364                   21288468.5434
 11  8 15  2 15 30.0000000  0  8G25G12G10G26G05G04G29G02
 -10540230.31648  -8175997.20346  21623911.6094                   21623912.6604
 -29855135.28948 -23225480.68046  21023561.2424                   21023559.6804
 -30635482.43746 -23287149.43444  22724496.1954   22724495.6254   20309165.95746
  15860481.44143                  24436359.8444                   24436360.4774
 -28293578.87148 -21988565.41846  20221321.2814                   20221319.2664
 -50198835.03146 -35703054.44543  24540594.9454   24540594.3834
   8163951.76246   6719008.45344  23138493.5394                   23138492.6374
 -46812590.91447 -36419753.94545  21279795.7974                   21279792.0514
 11  8 15  2 16  0.0000000  0  8G25G12G10G26G05G04G29G02
 -10643402.27048  -8256390.91046  21604278.7814                   21604279.8634
 -29892143.64148 -23254318.35946  21016518.8444                   21016517.1994
 -30621288.44946 -23276089.18744  22727197.0314   22727196.2934   20133648.63346
  15723714.80543                  24402961.7734                   24402960.6374
 -28371485.82448 -22049272.12146  20206496.2194                   20206494.0864
 -50200557.75046 -35704396.90243  24540266.6254   24540266.8204
   8000188.50046   6591400.76244  23107329.6564                   23107329.2704
 -46858063.79347 -36455187.36345  21271142.6644                   21271139.4844
 11  8 15  2 16 30.0000000  0  8G25G12G10G26G05G04G29G02
 -10745980.32448  -8336321.84446  21584758.8134                   21584759.6724
 -29928616.51248 -23282738.77746  21009578.1484                   21009576.3324
 -30606793.67646 -23264794.59444  22729955.5634   22729954.8094   19958077.01646
  15586905.86743                  24369551.2504                   24369551.4264
 -28448805.84848 -22109521.46946  20191782.0784                   20191780.7974
 -50202322.20746 -35705771.85943  24539931.1954   24539931.4694
   7836460.63746   6463820.67644  23076173.4694                   23076172.8714
 -46903412.23847 -36490523.80945  21262512.8594                   21262509.6174
 11  8 15  2 17  0.0000000  0  8G25G12G10G26G05G04G29G02
 -10847966.98848  -8415791.93746  21565351.1724                   21565352.2504
 -29964558.91448 -23310745.85246  21002738.7424                   21002736.7504
 -30592004.00846 -23253270.17644  22732769.9224   22732769.4924   19782450.73046
  15450054.30143                  24336130.3364                   24336129.4844
 -28525542.92248 -22169316.57046  20177179.6024                   20177177.8204
 -50204131.69546 -35707181.93742  24539587.0704   24539587.0354
   7672766.68046   6336266.99244  23045023.3054                   23045023.1884
 -46948639.73447 -36525766.01645  21253906.4224                   21253903.2664
 11  8 15  2 17 30.0000000  0  8G25G12G10G26G05G04G29G02
 -10949362.33248  -8494801.27346  21546056.0474                   21546057.0634
 -29999973.42248 -23338341.57446  20995999.8674                   20995997.7464
 -30576922.83246 -23241518.64144  22735639.6334   22735638.7424   19606772.34646
  15313162.17043                  24302698.7274                   24302699.3634
 -28601698.44148 -22228658.52046  20162687.9924                   20162685.9964
 -50205987.04345 -35708627.76642  24539233.0784   24539234.3634
   7509107.36346   6208740.29744  23013879.8134                   23013879.2274
 -46993747.12547 -36560914.63745  21245322.9454                   21245319.6884
 11  8 15  2 18  0.0000000  0  8G25G12G10G26G05G04G29G02
 -11050166.63748  -8573350.07046  21526873.8284                   21526875.4064
 -30034862.37948 -23365527.77346  20989360.5084                   20989358.4614
 -30561553.96146 -23229542.90644  22738564.5634   22738563.1684   19431044.32446
  15176231.34843                  24269258.6334                   24269259.2854
 -28677273.84848 -22287548.43446  20148306.3444                   20148304.1884
 -50207889.21145 -35710110.05942  24538871.6484   24538872.5274
   7345483.07446   6081240.91444  22982742.7734                   22982742.7624
 -47038735.92247 -36595970.84445  21236761.9534                   21236757.9694
 11  8 15  2 18 30.0000000  0  7G25G12G10G26G05G29G02
 -11150376.97348  -8651436.02046  21507804.4304                   21507805.4024
 -30069225.32448 -23392304.09446  20982821.3524                   20982819.4384
 -30545897.89147 -23217343.37544  22741544.3914   22741543.0004   19255271.93446
  15039265.93443                  24235810.8984                   24235811.1844
 -28752267.51648 -22345985.03546  20134035.4224                   20134033.6764
   7181898.04747   5953772.11344  22951613.8054                   22951613.7074
 -47083604.34847 -36630933.25845  21228224.0394                   21228219.9924
 11  8 15  2 19  0.0000000  0  7G25G12G10G26G05G29G02
  -9674573.23848  -7501459.06246  21788640.6334                   21788641.6294
 -28527646.62548 -22191073.94546  21276173.8524                   21276172.3284
 -28954541.57047 -21977325.47344  23044369.4384   23044367.7664   20654880.58246
  16129870.19142                  24502147.4454                   24502148.0354
 -27251261.55948 -21176369.99246  20419667.2734                   20419665.1844
   8593775.26647   7053936.26244  23220285.6174                   23220284.9884
 -45552934.83647 -35438203.77745  21519500.3674                   21519496.7074
 11  8 15  2 19 30.0000000  0  7G25G12G10G26G05G29G02
  -9773595.23048  -7578619.03546  21769797.5474                   21769798.6254
 -28560964.34848 -22217035.79746  21269833.8134                   21269832.2424
 -28938320.70347 -21964685.83244  23047455.8444   23047454.4024   20479028.12546
  15992842.35242                  24468683.7504                   24468683.9104
 -27325095.75448 -21233903.11346  20405617.1954                   20405615.4774
   8430271.69547   6926530.95744  23189172.1414                   23189170.8284
 -45597564.39547 -35472980.06245  21511007.3834                   21511003.8634
 11  8 15  2 20  0.0000000  0  7G25G12G10G26G05G29G02
  -9872014.33248  -7655309.23046  21751068.8444                   21751070.0354
 -28593754.29748 -22242586.40246  21263594.2584                   21263592.4534
 -28921813.77346 -21951823.32043  23050596.6884   23050595.6174   20303148.34046
  15855793.23042                  24435214.4844                   24435214.4774
 -27398342.93748 -21290978.82446  20391678.6094                   20391676.5824
   8266819.40247   6799165.61744  23158067.9844                   23158067.4104
 -45642067.16847 -35507657.54345  21502538.8914                   21502535.2344
 11  8 15  2 20 30.0000000  0  7G25G12G10G26G05G29G02
  -9969834.02748  -7731532.35546  21732454.6254                   21732455.3054
 -28626022.25848 -22267730.27746  21257454.1094                   21257452.0744
 -28905027.39846 -21938743.04743  23053791.1954   23053790.1954   20127240.51246
  15718722.27743                  24401740.9694                   24401741.1954
 -27471008.28948 -21347601.15646  20377851.3914                   20377848.7704
   8103415.82847   6671838.23044  23126972.8834                   23126972.5274
 -45686447.58247 -35542239.68745  21494093.6174                   21494089.9734
 11  8 15  2 21  0.0000000  0  7G25G12G10G26G05G29G02
 -10067053.05548  -7807287.42246  21713954.0944                   21713955.2234
 -28657769.12948 -22292468.08646  21251412.6414                   21251410.5634
 -28887964.02746 -21925446.89843  23057038.6334   23057037.5824   19951308.58246
  15581632.68043                  24368262.3284                   24368261.9144
 -27543091.73848 -21403770.06246  20364133.8284                   20364132.0274
   7940063.60246   6544550.85944  23095887.8914                   23095887.5944
 -45730705.35547 -35576726.26645  21485672.1334                   21485668.0594
 11  8 15  2 21 30.0000000  0  7G25G12G10G26G05G29G02
 -10163671.59848  -7882574.58646  21695567.8444                   21695569.3364
 -28688997.64548 -22316801.98046  21245469.9144                   21245467.9574
 -28870626.89146 -21911937.46943  23060337.1334   23060336.7974   19775355.01246
  15444526.13343                  24334779.0634                   24334778.3754
 -27614595.16448 -21459486.99246  20350527.3754                   20350525.1564
   7776763.46946   6417304.09044  23064812.8204                   23064812.9694
 -45774841.08647 -35611117.73845  21477273.0004                   21477269.1334
 11  8 15  2 22  0.0000000  0  7G25G12G10G26G05G29G02
 -10259693.93748  -7957397.17646  21677295.8364                   21677296.8134
 -28719714.69548 -22340737.34846  21239624.8054                   21239622.8914
 -28853023.46546 -21898220.54743  23063686.7344   23063686.5784   19599378.43846
  15307401.63743                  24301291.2114                   24301291.3404
 -27685523.48448 -21514755.80146  20337029.9534                   20337028.1524
   7613512.34447   6290095.50844  23033747.0474                   23033746.3094
 -45818860.05547 -35645418.23045  21468896.5944                   21468892.8364
 11  8 15  2 22 30.0000000  0  7G25G12G10G26G05G29G02
 -10355115.68048  -8031751.76646  21659137.8594                   21659138.8364
 -28749917.98848 -22364272.37946  21233876.9224                   21233874.8674
 -28835152.30546 -21884294.98044  23067088.2504   23067087.1914   19423386.24646
  15170264.94543                  24267801.7194                   24267801.6844
 -27755873.48448 -21569573.96546  20323642.6724                   20323640.5824
   7450316.02347   6162929.63744  23002692.4534                   23002691.5314
 -45862758.40247 -35679624.72745  21460542.4454                   21460539.1374
 11  8 15  2 23  0.0000000  0  7G25G12G10G26G05G29G02
 -10449939.61348  -8105640.53946  21641093.3284                   21641093.9694
 -28779612.78548 -22387411.17246  21228226.5704                   21228224.5704
 -28817019.30546 -21870165.39144  23070539.0944   23070538.3874   19247378.57046
  15033116.20343                  24234307.6484                   24234307.4414
 -27825649.65648 -21623944.99246  20310365.0164                   20310362.7704
   7287173.11347   6035805.36344  22971646.9774                   22971646.4494
 -45906539.93047 -35713740.19545  21452211.7194                   21452208.0394
 11  8 15  2 23 30.0000000  0  7G25G12G10G26G05G29G02
 -10544167.19948  -8179064.62546  21623162.4384                   21623163.2774
 -28808802.82848 -22410156.66846  21222671.5634                   21222670.1024
 -28798629.22346 -21855835.47744  23074038.3524   23074037.2304   19071356.85946
  14895956.52043                  24200811.9694                   24200812.1214
 -27894854.79748 -21677871.05546  20297195.5314                   20297193.4454
   7124083.27047   5908722.46544  22940611.7274                   22940610.9844
 -45950206.57448 -35747766.13345  21443901.7974                   21443898.6134
 11  8 15  2 24  0.0000000  0  7G25G12G10G26G05G29G02
 -10637796.95748  -8252022.85946  21605345.1954                   21605345.7734
 -28837488.81648 -22432509.38746  21217213.0634                   21217211.4224
 -28779983.81246 -21841306.60244  23077586.1094   23077586.0044   18895325.64546
  14758789.42243                  24167314.3834                   24167314.5164
 -27963488.35248 -21731351.73446  20284135.0634                   20284132.9224
   6961049.39547   5781683.14844  22909587.1884                   22909587.0394
 -45993757.04748 -35781701.54745  21435614.6564                   21435610.9924
 11  8 15  2 24 30.0000000  0  7G25G12G10G26G05G29G02
 -10730827.56248  -8324514.23846  21587641.8984                   21587643.1174
 -28865671.68748 -22454470.05546  21211850.0394                   21211848.6524
 -28761084.47746 -21826579.87144  23081182.5634   23081181.8244   18719289.27346
  14621618.27343                  24133815.2894                   24133815.2814
 -28031550.64148 -21784387.26246  20271182.7504                   20271180.9534
   6798074.38347   5654689.71944  22878574.3754                   22878573.6214
 -46037191.18448 -35815546.32045  21427349.3364                   21427346.0634
 11  8 15  2 25  0.0000000  0  7G25G12G10G26G05G29G02
 -10823258.14148  -8396538.04746  21570052.9774                   21570053.6954
 -28893353.15248 -22476040.03946  21206582.4454                   21206581.1454
 -28741933.47746 -21811657.05944  23084827.0314   23084826.2664   18543251.41046
  14484445.95743                  24100317.0474                   24100316.8324
 -28099041.76248 -21836977.72746  20258339.9614                   20258337.7274
   6635160.41847   5527743.84444  22847572.8364                   22847572.2624
 -46080508.65647 -35849300.17245  21419106.1954                   21419102.8954
 11  8 15  2 25 30.0000000  0  7G25G12G10G26G05G29G02
 -10915092.47748  -8468097.25446  21552577.6724                   21552578.6684
 -28920539.16448 -22497223.94546  21201409.1414                   21201407.1564
 -28722537.53146 -21796543.36343  23088518.5234   23088517.6334   18367211.67646
  14347272.22743                  24066817.7424                   24066817.6644
 -28165966.92648 -21889127.19146  20245604.7664                   20245602.2774
   6472305.36347   5400843.87144  22816582.1094                   22816581.3204
 -46123713.39848 -35882966.19145  21410884.5314                   21410881.3134
 11  8 15  2 26  0.0000000  0  7G25G12G10G26G05G29G02
 -11006333.27748  -8539193.96546  21535215.2424                   21535215.8834
 -28947234.59848 -22518025.57446  21196329.2194                   21196327.4064
 -28702902.48046 -21781243.33243  23092253.8674   23092253.8364   18191170.33646
  14210097.25043                  24033318.3674                   24033318.1414
 -28232330.32048 -21940838.91846  20232976.1724                   20232974.1844
   6309507.65247   5273988.59044  22785602.8754                   22785602.0474
 -46166808.96948 -35916547.13745  21402683.7114                   21402680.2544
 11  8 15  2 26 30.0000000  0  7G25G12G10G26G05G29G02
 -11096973.95348  -8609823.04746  21517967.0084                   21517967.2234
 -28973435.32448 -22538441.72746  21191343.4144                   21191341.5704
 -28683024.69146 -21765754.18043  23096037.1094   23096036.2974   18015137.32046
  14072928.73443                  23999819.2664                   23999820.1454
 -28298125.96548 -21992108.22746  20220455.7504                   20220453.6884
   6146775.73047   5147184.56344  22754635.9454                   22754635.0474
 -46209788.89548 -35950037.98045  21394505.1174                   21394501.5164
 11  8 15  2 27  0.0000000  0  7G25G12G10G26G05G29G02
 -11187023.64148  -8679991.61346  21500831.0554                   21500831.4964
 -28999152.37148 -22558480.98046  21186449.2814                   21186448.0354
 -28662916.17246 -21750085.24243  23099863.8364   23099862.8794   17839106.48446
  13935761.92243                  23966322.5394                   23966322.1684
 -28363364.63348 -22042943.54346  20208041.3754                   20208038.9614
   5984101.75047   5020425.68444  22723680.4534                   22723679.3324
 -46252662.79747 -35983446.19945  21386345.9144                   21386342.5434
 11  8 15  2 27 30.0000000  0  7G25G12G10G26G05G29G02
 -11276479.44148  -8749697.42646  21483807.9224                   21483808.8874
 -29024385.28948 -22578142.99246  21181647.7194                   21181645.8674
 -28642576.87146 -21734236.47343  23103734.3204   23103733.0594   17663084.03146
  13798601.64843                  23932826.4304                   23932826.3954
 -28428044.55548 -22093343.46546  20195732.9144                   20195730.8204
   5821490.31647   4893715.54344  22692736.3524                   22692735.2544
 -46295428.38748 -36016770.02345  21378208.4844                   21378204.9494
 11  8 15  2 28  0.0000000  0  7G25G12G10G26G05G29G02
 -11365337.77348  -8818937.66846  21466899.0234                   21466899.9774
 -29049133.11348 -22597427.01646  21176937.8284                   21176936.7544
 -28622006.03947 -21718207.27744  23107649.1094   23107647.5744   17487076.70346
  13661453.16843                  23899332.1884                   23899332.9224
 -28492163.25448 -22143306.06246  20183531.6724                   20183529.5164
   5658946.89847   4767058.39844  22661804.9534                   22661804.2704
 -46338082.46547 -36050006.96545  21370091.6884                   21370088.4304
 11  8 15  2 28 30.0000000  0  7G25G12G10G26G05G29G02
 -11453600.44148  -8887713.74246  21450102.6954                   21450103.8054
 -29073399.55548 -22616335.92646  21172320.7584                   21172319.0824
 -28601208.27347 -21702001.26244  23111607.1174   23111605.7774   17311086.19146
  13524317.74243                  23865843.1414                   23865842.9104
 -28555724.22748 -22192834.07846  20171436.4774                   20171434.4064
   5496471.34447   4640454.10945  22630886.5314                   22630886.2624
 -46380626.90647 -36083158.46945  21361995.8674                   21361991.9804
 11  8 15  2 29  0.0000000  0  7G25G12G10G26G05G29G02
  -9965841.06248  -7728420.72346  21733213.8984                   21733214.8164
 -27521762.63748 -21407268.19946  21467587.3364                   21467585.2854
 -27004763.78147 -20458018.57444  23415399.8444   23415398.6054   18710545.27046
  14614805.34443                  24132151.5554                   24132151.2274
 -27043303.19948 -21014324.16846  20459240.4304                   20459238.5514
   6909494.14847   5741510.90645  22899776.0314                   22899775.4024
 -44847637.40248 -34888621.19145  21653714.0394                   21653710.1524
 11  8 15  2 29 30.0000000  0  7G25G12G10G26G05G29G02
 -10052902.53148  -7796260.82046  21716646.8364                   21716647.8554
 -27545063.00047 -21425424.32846  21463153.2034                   21463151.1954
 -26983510.58247 -20441457.65643  23419444.1644   23419443.1484   18534608.40246
  14477711.74243                  24098671.2194                   24098671.2974
 -27105742.03147 -21062977.78946  20447358.6804                   20447356.6094
   6747169.15647   5615023.97345  22868886.5704                   22868886.2234
 -44889953.89848 -34921595.08645  21645661.4924                   21645657.1294
 11  8 15  2 30  0.0000000  0  7G25G12G10G26G05G29G02
 -10139369.03148  -7863637.29746  21700192.5314                   21700193.8134
 -27567889.45348 -21443211.16846  21458809.9304                   21458807.7584
 -26962039.34847 -20424726.84043  23423529.9224   23423529.6844   18358697.72346
  14340638.58243                  24065196.6414                   24065196.5474
 -27167626.98048 -21111199.80546  20435582.2344                   20435580.2504
   6584916.69547   5488593.55945  22838011.2034                   22838010.5514
 -44932162.28547 -34954484.73045  21637629.6094                   21637625.4694
 11  8 15  2 30 30.0000000  0  7G25G12G10G26G05G29G02
 -10225238.69548  -7930548.70346  21683852.7894                   21683853.4384
 -27590242.11747 -21460628.83246  21454556.1254                   21454554.1764
 -26940350.82446 -20407826.75044  23427656.9534   23427656.8014   18182818.61346
  14203589.98843                  24031728.1804                   24031727.6644
 -27228957.63348 -21158989.90246  20423911.6804                   20423908.8094
   6422740.33647   5362222.44545  22807150.0164                   22807149.1914
 -44974260.74248 -34987288.71945  21629618.5084                   21629614.8324
 11  8 15  2 31  0.0000000  0  7G25G12G10G26G05G29G02
 -10310511.31648  -7996994.89146  21667625.4844                   21667626.4574
 -27612123.31247 -21477679.11346  21450392.3984                   21450390.5004
 -26918447.64146 -20390759.38343  23431824.5474   23431823.9024   18006974.72746
  14066568.85243                  23998266.4534                   23998265.4344
 -27289734.79348 -21206348.70746  20412346.0164                   20412343.8204
   6260641.98847   5235912.12945  22776303.5634                   22776303.1604
 -45016249.33248 -35020007.09845  21621628.4454                   21621624.5984
 11  8 15  2 31 30.0000000  0  7G25G12G10G26G05G29G02
 -10395183.82448  -8062973.45346  21651512.9304                   21651513.7304
 -27633531.99647 -21494361.19546  21446318.2114                   21446316.4574
 -26896329.48846 -20373524.48443  23436033.9454   23436033.2544   17831172.68846
  13929580.32043                  23964812.0164                   23964811.5204
 -27349956.68748 -21253274.84446  20400885.7504                   20400883.6804
   6098626.79747   5109666.60945  22745473.0784                   22745472.7814
 -45058125.18448 -35052637.62545  21613659.0084                   21613655.7464
 11  8 15  2 32  0.0000000  0  7G25G12G10G26G05G29G02
 -10479257.82848  -8128485.64546  21635514.0474                   21635514.9614
 -27654471.85547 -21510677.97746  21442333.5314                   21442331.5904
 -26874000.35946 -20356125.18043  23440283.1644   23440282.3284   17655414.24746
  13792625.83643                  23931366.2504                   23931365.9924
 -27409626.07448 -21299770.45346  20389531.4224                   20389529.2734
   5936694.95747   4983486.04744  22714658.4144                   22714657.5434
 -45099889.78148 -35085181.46545  21605711.6484                   21605708.4654
 11  8 15  2 32 30.0000000  0  7G25G12G10G26G05G29G02
 -10562738.80148  -8193535.73446  21619628.0704                   21619629.1804
 -27674950.35247 -21526635.24245  21438436.7974                   21438434.8954
 -26851468.28146 -20338567.73043  23444570.5314   23444569.9774   17479697.99246
  13655704.16843                  23897928.6094                   23897927.1724
 -27468749.86748 -21345840.92646  20378280.3134                   20378278.4614
   5774843.34447   4857368.00445  22683858.7894                   22683858.4884
 -45141548.91448 -35117643.10945  21597784.5554                   21597781.0704
 11  8 15  2 33  0.0000000  0  7G25G12G10G26G05G29G02
 -10645621.73848  -8258119.82446  21603856.0704                   21603856.9574
 -27694965.24647 -21542231.25846  21434628.0004                   21434625.9494
 -26828730.79746 -20320850.23043  23448897.9224   23448897.2194   17304032.29346
  13518821.87143                  23864500.1804                   23864499.2274
 -27527324.07848 -21391483.15246  20367133.9844                   20367131.7424
   5613078.78147   4731317.78945  22653075.8204                   22653075.4534
 -45183097.56648 -35150018.67645  21589877.7194                   21589874.2544
 11  8 15  2 33 30.0000000  0  7G25G12G10G26G05G29G02
 -10727910.40648  -8322240.83246  21588197.1884                   21588197.6764
 -27714521.98047 -21557470.27346  21430906.5704                   21430904.6604
 -26805794.04346 -20302977.43443  23453262.3914   23453261.9344   17128416.73446
  13381978.64843                  23831082.3364                   23831081.0704
 -27585353.48048 -21436700.85246  20356091.5474                   20356089.4804
   5451399.37947   4605333.91444  22622309.1414                   22622308.8524
 -45224539.22748 -35182310.87945  21581992.1484                   21581988.4844
 11  8 15  2 34  0.0000000  0  7G25G12G10G26G05G29G02
 -10809604.10248  -8385898.23846  21572651.3054                   21572652.2734
 -27733621.96147 -21572353.37546  21427271.9534                   21427269.9304
 -26782660.14547 -20284951.02743  23457665.1254   23457663.7424   16952856.13746
  13245178.25843                  23797673.5004                   23797673.1684
 -27642838.70748 -21481494.51646  20345152.4144                   20345150.2854
   5289807.95747   4479418.62545  22591559.5394                   22591558.5634
 -45265873.35248 -35214519.29345  21574126.4384                   21574122.8204
 11  8 15  2 34 30.0000000  0  7G25G12G10G26G05G29G02
 -10890703.86348  -8449092.82446  21557218.4224                   21557219.2934
 -27752268.35947 -21586883.03945  21423723.4924                   21423721.4734
 -26759332.35946 -20266773.52743  23462104.0784   23462103.2154   16777353.14546
  13108422.76243                  23764276.3674                   23764275.7544
 -27699781.79348 -21525865.73846  20334316.6484                   20334314.3594
   5128305.60547   4353572.71945  22560827.0164                   22560825.7584
 -45307100.59448 -35246644.41845  21566281.3984                   21566277.5274
 11  8 15  2 35  0.0000000  0  7G25G12G10G26G05G29G02
 -10971207.32848  -8511822.77346  21541898.7734                   21541899.6954
 -27770460.92647 -21601059.05146  21420261.5394                   21420259.8634
 -26735810.50047 -20248444.77743  23466580.3444   23466578.9384   16601913.68446
  12971716.76243                  23730890.7424                   23730890.6254
 -27756181.54748 -21569813.59046  20323583.8674                   20323582.0824
   4966896.98047   4227799.84845  22530111.7274                   22530110.8134
 -45348218.74648 -35278684.53545  21558456.6414                   21558453.1564
 11  8 15  2 35 30.0000000  0  7G25G12G10G26G05G29G02
 -11051118.54348  -8574091.21546  21526692.3054                   21526692.9344
 -27788205.87947 -21614886.29346  21416884.5944                   21416883.0124
 -26712101.21146 -20229969.99243  23471091.6024   23471090.3794   16426537.62546
  12835060.18443                  23697517.9534                   23697517.7664
 -27812043.09848 -21613342.04746  20312953.9454                   20312951.6724
   4805580.28147   4102098.60545  22499413.8054                   22499413.1174
 -45389231.74247 -35310642.70745  21550651.6174                   21550648.2814
 11  8 15  2 36  0.0000000  0  7G25G12G10G26G05G29G02
 -11130435.76648  -8635896.82846  21511598.8754                   21511600.0004
 -27805503.55147 -21628364.99646  21413593.1334                   21413591.5704
 -26688205.07046 -20211349.60943  23475638.5004   23475637.6524   16251230.71546
  12698457.50043                  23664158.7584                   23664157.2114
 -27867366.02347 -21656450.80946  20302426.3834                   20302424.2344
   4644359.52347   3976472.13745  22468734.4534                   22468733.9384
 -45430137.53547 -35342517.34845  21542868.1954                   21542864.6564
 11  8 15  2 36 30.0000000  0  7G25G12G10G26G05G29G02
 -11209163.24648  -8697242.89146  21496617.3674                   21496618.5434
 -27822360.04747 -21641499.93446  21410385.7974                   21410384.0944
 -26664128.50446 -20192588.65243  23480220.5704   23480219.2234   16075992.37146
  12561908.24643                  23630812.0314                   23630810.8014
 -27922155.37948 -21699143.80946  20292000.0004                   20291998.0354
   4483232.62947   3850918.77745  22438073.7974                   22438072.3794
 -45470940.21948 -35374311.64845  21535103.4454                   21535100.0164
 11  8 15  2 37  0.0000000  0  7G25G12G10G26G05G29G02
 -11287301.15247  -8758129.53946  21481748.5314                   21481749.1914
 -27838777.49247 -21654292.73446  21407261.2584                   21407259.9734
 -26639874.18046 -20173689.17643  23484835.4384   23484835.4734   15900826.52746
  12425415.43843                  23597479.0004                   23597478.0904
 -27976412.76647 -21741422.28146  20281675.4224                   20281673.1764
   4322201.71947   3725440.21945  22407430.2114                   22407428.7894
 -45511639.53948 -35406025.41045  21527358.2194                   21527354.9024
 11  8 15  2 37 30.0000000  0  8G25G12G10G26G05G15G29G02
 -11364847.65248  -8818555.37146  21466991.5084                   21466992.8364
 -27854756.78947 -21666744.13746  21404220.4384                   21404218.7034
 -26615442.57846 -20154651.57843  23489484.2974   23489484.6174   15725738.78546
  12288983.52043                  23564160.8594                   23564159.7774
 -28030137.22747 -21783285.48046  20271451.3284                   20271449.5984
  26547356.16856  20763703.10553  24487767.9224                   24487767.6724
   4161270.88347   3600039.62545  22376805.7584                   22376804.6844
 -45552233.46148 -35437657.04745  21519634.0554                   21519630.1994
 11  8 15  2 38  0.0000000  0  8G25G12G10G26G05G15G29G02
 -11441804.85548  -8878521.99646  21452347.1254                   21452348.1054
 -27870301.89547 -21678857.21145  21401262.5314                   21401260.7234
 -26590837.81246 -20135479.02043  23494166.9304   23494166.7504   15550730.97746
  12152613.89143                  23530857.0704                   23530857.3984
 -28083331.91848 -21824735.88746  20261329.4304                   20261326.7854
  26373699.07046  20628386.01642  24454721.9144                   24454722.4534
   4000440.22347   3474717.09845  22346200.6254                   22346199.3554
 -45592723.78548 -35469207.95345  21511928.4614                   21511925.1564
 11  8 15  2 38 30.0000000  0  8G25G12G10G26G05G15G29G02
  -9942757.06648  -7710432.79346  21737606.5704                   21737607.1844
 -26310000.91847 -20463038.27045  21698177.9384                   21698176.2384
 -24990649.77746 -18888579.26643  23798672.9304   23798671.9384   16951226.21546
  13243908.93843                  23797362.8524                   23797361.8984
 -26560583.12948 -20638178.37546  20551098.8674                   20551096.0594
  27775349.76246  21720581.46943  24721447.1024                   24721447.9064
   5415130.82847   4577073.48445  22615406.7664                   22615405.9734
 -44057695.65648 -34273082.13745  21804034.9534                   21804031.1884
 11  8 15  2 39  0.0000000  0  8G25G12G10G26G05G15G29G02
 -10018544.74648  -7769488.10546  21723184.8444                   21723185.2854
 -26324692.05547 -20474485.89845  21695382.3134                   21695380.8134
 -24965714.27046 -18869148.99243  23803418.1954   23803417.3524   16776381.51246
  13107666.35943                  23764090.9144                   23764090.3484
 -26612731.01248 -20678813.08246  20541175.3134                   20541172.8324
  27601464.49246  21585086.56643  24688357.8914                   24688358.3714
   5254499.20347   4451906.04745  22584840.1724                   22584839.0204
 -44097986.61347 -34304477.68445  21796367.7664                   21796363.8914
 11  8 15  2 39 30.0000000  0  8G25G12G10G26G05G15G29G02
 -10093747.34048  -7828087.52746  21708874.0554                   21708874.9884
 -26338958.93447 -20485602.95745  21692667.1804                   21692665.8954
 -24940616.42246 -18849592.20343  23808194.0704   23808193.0944   16601624.66446
  12971492.21143                  23730835.3524                   23730835.5274
 -26664356.66848 -20719040.85546  20531351.2034                   20531348.9224
  27427469.98446  21449506.53143  24655248.2584                   24655248.6524
   5093971.11747   4326819.26645  22554292.3524                   22554290.9384
 -44138177.07047 -34335794.92245  21788719.5864                   21788716.2734
 11  8 15  2 40  0.0000000  0  8G25G12G10G26G05G15G29G02
 -10168362.20748  -7886228.98046  21694675.0704                   21694676.0474
 -26352800.89147 -20496388.89845  21690033.2664                   21690031.9774
 -24915355.38746 -18829908.24243  23813001.2194   23813000.4804   16426962.51246
  12835391.89143                  23697598.7814                   23697598.0314
 -26715458.49248 -20758860.45346  20521626.6804                   20521624.6134
  27253372.19946  21313846.04743  24622117.7504                   24622118.2734
   4933551.85947   4201817.29745  22523765.4774                   22523764.6954
 -44178263.98847 -34367031.47745  21781090.9694                   21781087.6254
 11  8 15  2 40 30.0000000  0  8G25G12G10G26G05G15G29G02
 -10242387.53148  -7943911.04746  21680588.6804                   21680589.2934
 -26366218.04748 -20506843.82045  21687480.2814                   21687478.4964
 -24889931.49646 -18810097.40243  23817839.4694   23817838.1254   16252401.12946
  12699370.05143                  23664380.6334                   23664380.3634
 -26766035.76648 -20798271.31246  20512002.3444                   20512000.0744
  27079176.23446  21178109.07443  24588970.0234                   24588970.3484
   4773245.57447   4076903.36345  22493259.8754                   22493259.2384
 -44218244.90247 -34398185.43445  21773482.9774                   21773479.7154
 11  8 15  2 41  0.0000000  0  8G25G12G10G26G05G15G29G02
 -10315825.01648  -8001135.05946  21666614.0634                   21666614.9144
 -26379214.39547 -20516970.85246  21685006.8754                   21685005.1564
 -24864348.66047 -18790162.69943  23822707.6414   23822706.2704   16077942.71146
  12563428.47343                  23631182.0944                   23631181.9184
 -26816091.18748 -20837275.53546  20502476.8674                   20502475.0004
  26904883.35546  21042296.53943  24555803.7034                   24555802.8954
   4613053.07447   3952078.10945  22462776.7424                   22462775.7074
 -44258121.01647 -34429257.73045  21765895.4144                   21765891.7664
 11  8 15  2 41 30.0000000  0  8G25G12G10G26G05G15G29G02
 -10388676.47748  -8057902.43746  21652750.9614                   21652751.6524
 -26391793.41447 -20526772.69145  21682613.4774                   21682611.7854
 -24838610.50847 -18770106.96943  23827604.8204   23827603.7774   15903589.97346
  12427569.26243                  23598003.8594                   23598003.4264
 -26865627.45748 -20875875.21946  20493050.9454                   20493048.6024
  26730495.16846  20906409.81343  24522617.9694                   24522617.4964
   4452975.39847   3827342.32045  22432314.7274                   22432313.9414
 -44297893.45747 -34460249.23445  21758326.4774                   21758322.8714
 11  8 15  2 42  0.0000000  0  8G25G12G10G26G05G15G29G02
 -10460943.54348  -8114214.44146  21638998.5864                   21639000.0044
 -26403958.59448 -20536252.04745  21680299.1804                   21680296.6804
 -24812720.62146 -18749932.96943  23832531.8834   23832531.1374   15729345.31646
  12291794.25443                  23564846.3524                   23564845.3794
 -26914647.51648 -20914072.67246  20483722.2814                   20483720.2154
  26556013.29746  20770450.04743  24489414.7814                   24489414.7194
   4293013.38347   3702696.64845  22401874.9454                   22401874.1884
 -44337563.47747 -34491160.93045  21750778.0164                   21750774.4104
 11  8 15  2 42 30.0000000  0  8G25G12G10G26G05G15G29G02
 -10532628.66848  -8170072.98846  21625357.7504                   21625358.6884
 -26415714.31247 -20545412.34845  21678061.6254                   21678059.1724
 -24786683.40646 -18729644.25843  23837486.3444   23837485.3834   15555210.75046
  12156105.04743                  23531709.6254                   23531708.8284
 -26963154.50848 -20951870.33246  20474491.7974                   20474489.5904
  26381438.43046  20634417.79343  24456194.7584                   24456194.0984
   4133167.33647   3578141.35245  22371457.2034                   22371456.1994
 -44377132.64147 -34521994.03945  21743247.9694                   21743244.2344
 11  8 15  2 43  0.0000000  0  8G25G12G10G26G05G15G29G02
 -10603728.79348  -8225475.69946  21611827.4694                   21611828.3204
 -26427059.61347 -20554252.84045  21675902.6024                   21675900.3914
 -24760497.64146 -18709239.74243  23842468.9224   23842468.1454   15381193.51646
  12020507.25843                  23498595.2194                   23498594.4494
 -27011146.60948 -20989266.77046  20465359.4224                   20465357.1374
  26206776.96546  20498318.09443  24422957.6724                   24422957.2734
   3973443.05947   3453680.93445  22341062.7584                   22341061.8524
 -44416597.40647 -34552745.79345  21735738.2504                   21735734.7234
 11  8 15  2 43 30.0000000  0  8G25G12G10G26G05G15G29G02
 -10674247.61748  -8280425.43746  21598408.4224                   21598409.1294
 -26437999.91047 -20562777.75845  21673820.9064                   21673818.7034
 -24734168.62546 -18688723.64543  23847479.2584   23847478.5704   15207294.00846
  11885001.21544                  23465503.1724                   23465502.8554
 -27058628.44948 -21026265.59846  20456323.6024                   20456321.7504
  26032028.71546  20362150.75443  24389703.5634                   24389703.5044
   3813839.52347   3329314.59445  22310691.0084                   22310689.8984
 -44455961.11747 -34583418.80545  21728247.2664                   21728243.6764
 11  8 15  2 44  0.0000000  0  8G25G12G10G26G05G15G29G02
 -10744184.50448  -8334921.71946  21585099.7034                   21585100.5394
 -26448536.28147 -20570987.92245  21671815.7034                   21671813.8524
 -24707697.42246 -18668096.77043  23852516.6334   23852516.2934   15033517.54346
  11749591.01244                  23432434.5234                   23432434.4104
 -27105600.38348 -21062867.11346  20447385.3444                   20447382.9224
  25857197.93046  20225919.12143  24356433.8284                   24356433.3524
   3654360.34447   3205045.16845  22280344.0394                   22280342.4654
 -44495222.03147 -34614011.72345  21720776.1564                   21720772.4614
 11  8 15  2 44 30.0000000  0  8G25G12G10G26G05G15G29G02
 -10813537.16848  -8388962.77046  21571902.3054                   21571903.3284
 -26458668.39147 -20578883.08245  21669887.3134                   21669885.6134
 -24681083.81246 -18647358.92243  23857581.3914   23857580.7814   14859870.73047
  11614281.87144                  23399390.7274                   23399390.0664
 -27152060.90248 -21099070.10946  20438544.1954                   20438541.9844
  25682290.14146  20089627.39843  24323150.4614                   24323150.2734
   3495010.58647   3080876.59045  22250019.8444                   22250018.9144
 -44534377.14847 -34644522.18445  21713325.6094                   21713321.7974
 11  8 15  2 45  0.0000000  0  8G25G12G10G26G05G15G29G02
 -10882309.91448  -8442551.91846  21558815.3754                   21558816.5274
 -26468402.73848 -20586468.28946  21668035.1644                   21668033.3914
 -24654334.10246 -18626515.00443  23862671.9614   23862670.7194   14686353.86747
  11479073.98843                  23366371.3594                   23366370.9494
 -27198015.56248 -21134878.93746  20429799.2274                   20429796.9574
  25507304.43046  19953275.01242  24289852.0554                   24289851.0824
   3335788.71547   2956807.67245  22219720.9614                   22219719.8134
 -44573429.88747 -34674952.87545  21705893.9614                   21705890.1294
 11  8 15  2 45 30.0000000  0  8G25G12G10G26G05G15G29G02
 -10950506.38748  -8495692.03546  21545838.0474                   21545838.9184
 -26477744.59447 -20593747.66445  21666256.8524                   21666255.4774
 -24627453.48046 -18605569.08243  23867786.9694   23867785.9344   14512967.73047
  11343967.96144                  23333377.6564                   23333376.1914
 -27243468.79347 -21170297.03946  20421149.7664                   20421147.3954
  25332240.87946  19816861.94542  24256537.7974                   24256537.5864
   3176693.86347   2832837.71145  22189446.3054                   22189445.2074
 -44612383.23448 -34705306.10945  21698481.2584                   21698477.3284
 11  8 15  2 46  0.0000000  0  8G25G12G10G26G05G15G29G02
 -11018124.45748  -8548381.43746  21532970.8284                   21532971.7664
 -26486693.11747 -20600720.53545  21664554.6334                   21664553.1024
 -24600441.25846 -18584520.62543  23872927.8204   23872925.8324   14339718.64547
  11208968.70744                  23300408.9224                   23300407.7344
 -27288419.52748 -21205323.57846  20412595.8984                   20412594.0904
  25157105.02346  19680392.59043  24223210.6954                   24223210.2624
   3017731.17247   2708970.75445  22159196.4694                   22159195.4344
 -44651234.13347 -34735579.53145  21691088.2034                   21691084.6764
 11  8 15  2 46 30.0000000  0  8G25G12G10G26G05G15G29G02
 -11085163.49248  -8600619.64546  21520213.6024                   21520214.3524
 -26495250.15247 -20607388.35945  21662926.1024                   21662924.3984
 -24573298.52746 -18563370.48043  23878092.4224   23878091.6844   14166611.87947
  11074080.37143                  23267467.5554                   23267467.1684
 -27332867.99248 -21239958.75446  20404138.1174                   20404135.7114
  24981901.14546  19543870.20743  24189869.9924                   24189870.2814
   2858904.44947   2585209.72745  22128972.8754                   22128971.0704
 -44689981.20747 -34765772.03945  21683714.9694                   21683711.1994
 11  8 15  2 47  0.0000000  0  8G25G12G10G26G05G15G29G02
 -11151629.12147  -8652411.04346  21507565.3204                   21507566.7464
 -26503422.98847 -20613756.80545  21661370.6414                   21661369.3524
 -24546032.46546 -18542124.21543  23883280.9924   23883280.1844   13993646.38346
  10939302.08643                  23234554.0474                   23234552.6994
 -27376820.54748 -21274207.49646  20395774.0394                   20395771.6914
  24806627.44546  19407293.40643  24156516.9304                   24156516.1454
   2700210.88347   2461552.46945  22098774.3754                   22098772.9224
 -44728628.87547 -34795887.09845  21676360.4534                   21676356.5084
 11  8 15  2 47 30.0000000  0  8G25G12G10G26G05G15G29G02
 -11217518.62948  -8703753.50446  21495027.3834                   21495028.7664
 -26511210.21547 -20619824.77745  21659888.9924                   21659887.1294
 -24518641.93446 -18520780.98042  23888493.0704   23888492.4184   13820829.61746
  10804639.72343                  23201667.2974                   23201666.4804
 -27420275.64148 -21308068.59846  20387504.4304                   20387502.1954
  24631289.93446  19270666.89843  24123151.1954                   24123150.3284
   2541656.03547   2338003.30145  22068602.1804                   22068601.1644
 -44767173.68747 -34825922.00045  21669025.6414                   21669021.7034
 11  8 15  2 48  0.0000000  0  8G25G12G10G26G05G15G29G02
 -11282834.51648  -8754648.97346  21482598.3834                   21482599.0704
 -26518616.63347 -20625596.01645  21658479.8054                   21658478.0084
 -24491131.25846 -18499344.12943  23893727.6414   23893727.3324   13648163.78146
  10670094.94543                  23168810.4774                   23168809.3284
 -27463236.71948 -21341544.75846  20379329.4304                   20379327.2384
  24455889.97746  19133991.70743  24089773.4454                   24089773.0824
   2383240.77347   2214562.91445  22038456.4534                   22038455.5634
 -44805617.18747 -34855877.95345  21661710.2194                   21661706.2464
 11  8 15  2 48 30.0000000  0  8G25G12G10G26G05G15G29G02
  -9772156.54348  -7577497.29346  21770070.8134                   21770071.5904
 -24950225.40247 -19403472.97745  21956934.8364                   21956932.7504
 -22888084.37946 -17250216.71542  24198777.6804   24198777.6134   15051076.96946
  11763274.12143                  23435775.5944                   23435774.9964
 -25930284.87148 -20147036.82046  20671040.6414                   20671038.0704
  25855855.19146  20224873.78943  24356177.6884                   24356177.3954
   3800391.30547   3318836.11745  22308131.5234                   22308130.6844
 -43268539.18047 -33658154.81245  21954205.9064                   21954202.4694
 11  8 15  2 49  0.0000000  0  8G25G12G10G26G05G15G29G02
  -9836330.08648  -7627502.64146  21757858.5634                   21757859.9064
 -24956879.88347 -19408658.28545  21955668.5784                   21955666.4654
 -22860342.27346 -17228599.51242  24204057.0234   24204057.0864   14878721.76246
  11628971.40643                  23402977.6954                   23402977.1914
 -25972264.84048 -20179748.47346  20663051.9844                   20663049.4964
  25680336.56346  20088106.13743  24322777.8204                   24322777.6374
   3642259.36347   3195616.48845  22278039.7504                   22278038.6334
 -43306781.77747 -33687954.23045  21946928.5004                   21946924.9574
 11  8 15  2 49 30.0000000  0  8G25G12G10G26G05G15G29G02
  -9899932.69148  -7677063.09046  21745755.4774                   21745756.5634
 -24963161.07447 -19413552.71945  21954473.1484                   21954471.3204
 -22832487.03146 -17206894.16842  24209357.8524   24209358.0004   14706528.61346
  11494794.96943                  23370209.8524                   23370209.5204
 -26013755.98448 -20212079.22346  20655156.5394                   20655154.2504
  25504764.33646  19951296.75043  24289366.8284                   24289366.7304
   3484273.41847   3072510.61345  22247976.3134                   22247975.2274
 -43344922.67247 -33717674.38345  21939670.9614                   21939667.1604
 11  8 15  2 50  0.0000000  0  8G25G12G10G26G05G15G29G02
  -9962966.04348  -7726179.96946  21733760.7424                   21733761.3634
 -24969072.49247 -19418159.02045  21953348.3914                   21953346.5394
 -22804521.46146 -17185102.85542  24214678.8754   24214679.3134   14534500.80546
  11360747.36343                  23337475.1954                   23337473.5434
 -26054761.10247 -20244031.26246  20647353.4534                   20647351.3164
  25329140.41846  19814447.06643  24255946.4774                   24255946.9844
   3326435.19547   2949519.85245  22217940.3284                   22217939.3524
 -43382962.19147 -33747315.54745  21932432.1094                   21932428.5824
 11  8 15  2 50 30.0000000  0  8G25G12G10G26G05G15G29G02
 -10025432.44148  -7774855.05946  21721873.6414                   21721874.8954
 -24974617.58647 -19422479.86745  21952293.5314                   21952291.3094
 -22776449.41446 -17163228.61743  24220021.5164   24220020.2774   14362640.60547
  11226830.34443                  23304770.3284                   23304769.5634
 -26095282.87947 -20275606.66446  20639642.3984                   20639640.3364
  25153466.31346  19677558.29343  24222517.4614                   24222517.0554
   3168745.62547   2826644.92245  22187933.0864                   22187932.3484
 -43420901.50047 -33776878.62545  21925212.0704                   21925209.1564
 11  8 15  2 51  0.0000000  0  8G25G12G10G26G05G15G29G02
 -10087337.35548  -7823092.63346  21710093.7734                   21710094.4734
 -24979804.38347 -19426521.52745  21951305.6954                   21951304.1414
 -22748277.71546 -17141276.67643  24225382.5394   24225381.2344   14190947.40647
  11093043.46544                  23272098.6564                   23272097.6254
 -26135327.77348 -20306810.46546  20632022.0234                   20632019.8134
  24977740.53546  19540629.29343  24189077.6644                   24189077.0314
   3011202.08247   2703883.78145  22157953.5554                   22157952.3634
 -43458745.27347 -33806367.26645  21918011.2114                   21918007.3984
 11  8 15  2 51 30.0000000  0  8G25G12G10G26G05G15G29G02
 -10148672.80548  -7870886.46546  21698421.8444                   21698422.6094
 -24984626.18747 -19430278.77345  21950388.4774                   21950387.0124
 -22719999.67246 -17119241.89143  24230763.8444   24230763.0434   14019434.06647
  10959396.72344                  23239460.9144                   23239459.8444
 -26174888.38348 -20337636.90646  20624494.0634                   20624492.0084
  24801975.40646  19403669.57843  24155630.3834                   24155630.0204
   2853816.42647   2581245.66445  22128004.2734                   22128003.1564
 -43496484.05147 -33835774.07845  21910829.4384                   21910825.8484
 11  8 15  2 52  0.0000000  0  8G25G12G10G26G05G15G29G02
 -10209443.87548  -7918240.52046  21686857.3284                   21686858.4104
 -24989089.55947 -19433756.72745  21949539.0634                   21949537.5044
 -22691621.51246 -17097129.10943  24236163.7274   24236163.6134   13848100.34847
  10825889.96144                  23206856.8204                   23206856.1374
 -26213970.85547 -20368090.76646  20617056.9144                   20617054.6524
  24626169.01646  19266677.71943  24122175.2114                   24122175.4344
   2696586.57047   2458728.94145  22098084.1484                   22098083.0664
 -43534121.78547 -33865102.16045  21903666.9844                   21903663.4694
 11  8 15  2 52 30.0000000  0  8G25G12G10G26G05G15G29G02
 -10269650.80548  -7965155.00446  21675400.4614                   21675401.0824
 -24993196.51247 -19436956.94545  21948757.6414                   21948756.0744
 -22663144.81246 -17074939.52343  24241582.5704   24241582.9144   13676950.86747
  10692526.76644                  23174287.9924                   23174287.4454
 -26252576.17247 -20398172.80946  20609710.0084                   20609708.2154
  24450325.36746  19129656.86343  24088713.8754                   24088713.2854
   2539515.76647   2336336.16445  22068194.8834                   22068193.1414
 -43571657.27347 -33894350.57045  21896524.3204                   21896521.3594
 11  8 15  2 53  0.0000000  0  8G25G12G10G26G05G15G29G02
 -10329296.13348  -8011631.87146  21664050.5864                   21664051.1214
 -24996950.93047 -19439882.46545  21948043.2274                   21948041.2034
 -22634573.45346 -17052676.19943  24247019.6484   24247019.1884   13505988.09047
  10559309.03944                  23141755.5944                   23141754.0904
 -26290707.87548 -20427885.82446  20602454.1024                   20602451.6374
  24274446.23046  18992608.32443  24055245.0554                   24055244.2344
   2382604.66847   2214067.83645  22038335.3834                   22038333.6684
 -43609091.78547 -33923520.30945  21889400.6954                   21889397.4964
 11  8 15  2 53 30.0000000  0  8G25G12G10G26G05G15G29G02
 -10388385.21148  -8057675.29346  21652806.4694                   21652806.9144
 -25000360.02347 -19442538.90645  21947394.1024                   21947392.3594
 -22605913.78946 -17030344.05143  24252473.5784   24252473.1214   13335211.41046
  10426236.34044                  23109257.1024                   23109256.2114
 -26328371.85247 -20457234.35946  20595286.8204                   20595284.5904
  24098530.03946  18855530.87543  24021769.0314                   24021768.0594
   2225851.53947   2091922.59845  22008506.1174                   22008505.0434
 -43646429.33647 -33952614.48445  21882295.8674                   21882292.2664
 11  8 15  2 54  0.0000000  0  8G25G12G10G26G05G15G29G02
 -10446916.46548  -8103284.05946  21641668.1094                   21641668.8914
 -25003423.50447 -19444926.03545  21946811.4384                   21946809.3204
 -22577165.17246 -17007942.60943  24257943.7344   24257943.5824   13164627.64847
  10293313.94144                  23076796.2114                   23076795.1024
 -26365566.98847 -20486217.55946  20588209.0474                   20588206.4614
  23922582.49246  18718428.98843  23988287.8834                   23988286.3834
   2069261.52747   1969904.45745  21978708.1094                   21978706.3874
 -43683667.13347 -33981630.94145  21875209.9384                   21875206.1134
 11  8 15  2 54 30.0000000  0  8G25G12G10G26G05G15G29G02
 -10504889.85548  -8148458.12946  21630636.1804                   21630636.8324
 -25006143.01647 -19447045.12145  21946294.0394                   21946291.8754
 -22548328.94946 -16985472.88743  24263432.2274   24263431.5594   12994241.69947
  10160545.69144                  23044372.3284                   23044371.6094
 -26402294.52348 -20514836.40646  20581219.7424                   20581217.8484
  23746607.96946  18581306.05543  23954800.8054                   23954799.4574
   1912837.75047   1848015.85245  21948941.6024                   21948940.0704
 -43720803.67247 -34010568.48845  21868142.8914                   21868139.2584
 11  8 15  2 55  0.0000000  0  8G25G12G10G26G05G15G29G02
 -10562311.57848  -8193202.32446  21619709.2814                   21619709.8874
 -25008526.14847 -19448902.10945  21945840.5394                   21945838.6914
 -22519412.46946 -16962940.66842  24268934.6254   24268933.7344   12824052.32847
  10027930.60543                  23011986.5234                   23011985.5514
 -26438561.15247 -20543096.10546  20574318.4844                   20574316.3914
  23570604.03946  18444160.20343  23921307.7274                   23921306.9224
   1756577.68047   1726254.81345  21919206.0784                   21919204.6134
 -43757843.91047 -34039430.99645  21861094.2894                   21861090.8244
 11  8 15  2 55 30.0000000  0  8G25G12G10G26G05G15G29G02
 -10619182.50448  -8237517.33246  21608887.1644                   21608887.8364
 -25010575.33247 -19450498.87945  21945450.4774                   21945448.5234
 -22490417.42245 -16940347.19542  24274451.6024   24274452.2464   12654063.85247
   9895472.05144                  22979639.6884                   22979638.0864
 -26474368.19947 -20570997.68446  20567504.8444                   20567502.6764
  23394574.34446  18306994.27044  23887811.1804                   23887809.6094
   1600484.09047   1604623.49245  21889502.7114                   21889500.7894
 -43794787.23047 -34068217.98845  21854064.0704                   21854060.3404
 11  8 15  2 56  0.0000000  0  8G25G12G10G26G05G15G29G02
 -10675503.94548  -8281404.17246  21598169.5944                   21598170.2584
 -25012293.41447 -19451837.64545  21945123.3134                   21945121.3164
 -22461346.29345 -16917694.43442  24279983.7814   24279984.3834   12484279.85546
   9763172.85544                  22947329.4614                   22947329.0744
 -26509717.94947 -20598542.93046  20560777.6954                   20560775.7074
  23218521.80946  18169810.55143  23854309.2584                   23854307.7034
   1444559.16447   1483123.59445  21859831.0164                   21859829.3284
 -43831633.29347 -34096929.18045  21847052.5164                   21847049.2154
 11  8 15  2 56 30.0000000  0  8G25G12G10G26G05G15G29G02
 -10731270.57048  -8324858.68046  21587557.3444                   21587558.2584
 -25013676.66447 -19452915.49645  21944860.2974                   21944858.2624
 -22432194.64846 -16894978.89842  24285532.0474   24285532.4774   12314710.96147
   9631041.24644                  22915062.2504                   22915061.3204
 -26544605.87147 -20625728.30546  20554138.6334                   20554136.7274
  23042455.99246  18032616.46943  23820804.7504                   23820803.3364
   1288811.65247   1361761.95745  21830192.9924                   21830191.6294
 -43868375.48047 -34125559.44145  21840060.8134                   21840057.4924
 11  8 15  2 57  0.0000000  0  8G25G12G10G26G05G15G29G02
 -10786488.65248  -8367885.75846  21577049.4534                   21577050.4384
 -25014732.98047 -19453738.60545  21944658.9304                   21944657.6094
 -22402969.74246 -16872206.28142  24291092.9304   24291094.3014   12145356.19547
   9499076.49644                  22882835.1024                   22882834.2424
 -26579038.74648 -20652559.10546  20547586.2274                   20547584.2774
  22866374.80946  17895410.41043  23787297.6484                   23787296.1914
   1133239.15647   1240536.69145  21800588.8914                   21800587.0474
 -43905018.12947 -34154112.14545  21833088.2034                   21833084.2934
 11  8 15  2 57 30.0000000  0  9G25G12G10G26G05G15G29G21G02
 -10841162.50848  -8410488.76246  21566645.4774                   21566646.1724
 -25015467.78947 -19454311.18045  21944519.5554                   21944517.9964
 -22373676.85546 -16849380.73042  24296667.1954   24296667.3794   11976215.99247
   9367278.94944                  22850648.8364                   22850648.1214
 -26613021.54747 -20679039.19946  20541119.9844                   20541117.7424
  22690278.15646  17758192.29343  23753787.3444                   23753786.1804
    977840.87147   1119447.17245  21771017.0704                   21771015.8284
  29730845.26656  23194562.10552  25045568.8914                   25045569.9024
 -43941564.28947 -34182589.65245  21826133.2814                   21826129.4844
 11  8 15  2 58  0.0000000  0  9G25G12G10G26G05G15G29G21G02
 -10895290.81248  -8452666.66846  21556345.0704                   21556345.7974
 -25015881.24247 -19454633.34045  21944440.7664                   21944438.7894
 -22344315.25046 -16826501.60542  24302254.7664   24302254.8554   11807297.08647
   9235653.83244                  22818504.6484                   22818503.9734
 -26646553.71147 -20705168.14546  20534738.9534                   20534736.2774
  22514172.00846  17620966.75843  23720275.3204                   23720274.3674
    822621.90647    998497.37945  21741479.9844                   21741478.5824
  29594301.64846  23088164.58642  25019585.8054                   25019586.7854
 -43978011.07047 -34210989.71945  21819198.2504                   21819194.1174
 11  8 15  2 58 30.0000000  0  9G25G12G10G26G05G15G29G21G02
  -9373460.46948  -7266824.82846  21845940.2344                   21845940.6804
 -23440563.19547 -18227112.78945  22244213.9844                   22244212.0634
 -20739475.49646 -15575977.11343  24607645.5944   24607645.6684   13214021.69147
  10331802.86344                  23086195.5394                   23086193.9144
 -25104223.38748 -19503352.29746  20828234.4694                   20828232.5904
  23913477.43446  18711334.63744  23986554.0784                   23986552.8674
   2243002.37547   2105287.41045  22011769.5704                   22011768.0514
  31033198.211 6                  25293398.055
 -42438944.37147 -33011716.95745  22112072.3524                   22112068.8914
 11  8 15  2 59  0.0000000  0  9G25G12G10G26G05G15G29G21G02
  -9426518.46948  -7308168.72746  21835843.0634                   21835844.1844
 -23440359.13747 -18226953.79345  22244252.3284                   22244251.4614
 -20710000.12546 -15553009.35543  24613254.1174   24613253.9694   13045540.14547
  10200518.52344                  23054134.4924                   23054133.2774
 -25136876.92247 -19528796.60946  20822020.6024                   20822018.6564
  23737344.05946  18574087.86343  23953037.5474                   23953036.1804
   2088132.25447   1984609.44945  21982298.8444                   21982297.5044
  30896683.430 6                  25267420.016
 -42475208.01647 -33039974.32445  22105171.9064                   22105168.0594
 11  8 15  2 59 30.0000000  0  9G25G12G10G26G05G15G29G21G02
  -9479041.77047  -7349095.98046  21825848.3444                   21825849.0704
 -23439848.59047 -18226555.97345  22244349.3674                   22244348.0314
 -20680469.38346 -15529998.44543  24618874.4924   24618873.7034   12877284.79747
  10069410.43844                  23022116.5164                   23022115.9414
 -25169092.51247 -19553899.65246  20815890.1724                   20815888.0634
  23561203.37546  18436835.41043  23919518.6024                   23919517.6454
   1933442.02347   1864071.66445  21952861.9454                   21952860.0164
  30760184.109 6                  25241445.375
 -42511378.12947 -33068158.78945  22098288.6484                   22098285.4804
 11  8 15  3  0  0.0000000  0  9G25G12G10G26G05G15G29G21G02
  -9531035.28948  -7389610.40246  21815954.5164                   21815955.0904
 -23439038.22747 -18225924.51645  22244503.9924                   22244502.2234
 -20650888.92246 -15506948.75043  24624502.8524   24624502.5514   12709255.97747
   9938478.88344                  22990141.5784                   22990140.9024
 -25200875.90647 -19578665.92646  20809841.9064                   20809839.8984
  23385054.91046  18299576.90643  23885999.1954                   23885997.1884
   1778930.32847   1743672.98845  21923459.5864                   21923457.8954
  30623696.406 5                  25215472.078
 -42547457.91447 -33096272.87545  22091423.2584                   22091419.2384
 11  8 15  3  0 30.0000000  0  9G25G12G10G26G05G15G29G21G02
  -9582495.34448  -7429709.13346  21806161.9064                   21806162.8164
 -23437925.54747 -18225057.48445  22244715.7734                   22244713.9144
 -20621256.10946 -15483858.30543  24630141.9144   24630141.2894   12541462.51647
   9807730.73444                  22958211.4774                   22958210.6294
 -25232223.86348 -19603092.90246  20803877.0084                   20803874.7074
  23208906.80946  18162318.69143  23852479.1094                   23852477.4924
   1624604.70347   1623419.30545  21894091.9924                   21894090.3984
  30487225.020 5                  25189503.188
 -42583441.79347 -33124312.22745  22084575.7034                   22084572.0704
 11  8 15  3  1  0.0000000  0  9G25G12G10G26G05G15G29G21G02
  -9633421.76648  -7469392.05546  21796470.5164                   21796471.8554
 -23436511.60947 -18223955.71545  22244985.0474                   22244983.0824
 -20591571.18046 -15460727.21943  24635790.9694   24635790.1024   12373910.09447
   9677170.40644                  22926327.4924                   22926326.4654
 -25263136.36748 -19627180.57046  20797994.2424                   20797992.0044
  23032763.95346  18025064.57643  23818960.4144                   23818958.6294
   1470469.35547   1503313.88745  21864761.2974                   21864759.4924
  30350771.246 5                  25163535.836
 -42619328.10947 -33152275.55545  22077746.6724                   22077742.7774
 11  8 15  3  1 30.0000000  0  9G25G12G10G26G05G15G29G21G02
  -9683819.36348  -7508662.89846  21786880.5784                   21786881.3914
 -23434802.48047 -18222623.93445  22245309.8674                   22245308.2584
 -20561839.59045 -15437559.82443  24641448.9304   24641448.4774   12206599.19947
   9546798.30544                  22894489.6564                   22894488.5004
 -25293619.08647 -19650933.32846  20792193.9844                   20792191.9304
  22856625.84446  17887814.15643  23785441.7504                   23785440.7034
   1316522.84447   1383355.62545  21835466.2114                   21835464.4844
  30214331.238 6                  25137573.063
 -42655119.69147 -33180165.06645  22070935.5944                   22070931.1684
 11  8 15  3  2  0.0000000  0  8G25G12G26G05G15G29G21G02
  -9733679.53548  -7547514.96546  21777392.0394                   21777393.0784
 -23432790.94147 -18221056.50845  22245692.6724                   22245691.0514
  12039543.87547   9416625.32444  22862699.7894                   22862698.4264
 -25323664.21548 -19674345.12146  20786476.5394                   20786474.3674
  22680505.88746  17750577.88743  23751927.8364                   23751925.8054
   1162778.01647   1263554.50045  21806209.4304                   21806207.8874
  30077914.906 6                  25111613.945
 -42690806.25847 -33207972.73845  22064144.5634                   22064140.6174
 11  8 15  3  2 30.0000000  0  8G25G12G26G05G15G29G21G02
  -9783014.44548  -7585957.75446  21768004.1884                   21768004.9924
 -23430490.44147 -18219263.92245  22246130.5314                   22246128.7734
  11872737.39546   9286646.26644  22830957.4924                   22830956.9574
 -25353284.24248 -19697425.66046  20780839.8204                   20780837.6684
  22504396.59846  17613349.90243  23718415.0864                   23718413.6174
   1009226.71147   1143904.17645  21776989.5784                   21776987.9064
  29941511.203 6                  25085657.703
 -42726397.89147 -33235706.44145  22057371.5634                   22057367.9694
 11  8 15  3  3  0.0000000  0  8G25G12G26G05G15G29G21G02
  -9831819.94148  -7623987.99646  21758716.7034                   21758717.7344
 -23427898.34847 -18217244.10945  22246623.9774                   22246622.0554
  11706189.01246   9156868.35544  22799263.8674                   22799263.1214
 -25382475.76248 -19720172.30946  20775284.7974                   20775282.8524
  22328306.28546  17476136.74643  23684905.7504                   23684905.1334
    855877.12947   1024411.05545  21747808.0634                   21747806.5234
  29805125.50445  24132166.14852  25059703.4064                   25059702.4344
 -42761888.80947 -33263361.66045  22050617.9534                   22050614.0274
 11  8 15  3  3 30.0000000  0  8G25G12G26G05G15G29G21G02
  -9880089.81648  -7661600.87146  21749531.4384                   21749532.2854
 -23425009.47347 -18214993.03145  22247173.4144                   22247171.4184
  11539910.67646   9027300.86344  22767622.1414                   22767621.9654
 -25411232.59048 -19742580.22346  20769812.6954                   20769810.5084
  22152246.12946  17338947.06644  23651403.6644                   23651401.8714
    702739.41847    905083.02045  21718666.5554                   21718665.2854
  29668765.01646  24025911.31642  25033754.1954                   25033755.2464
 -42797270.62547 -33290931.85545  22043884.8914                   22043880.9534
 11  8 15  3  4  0.0000000  0  8G25G12G26G05G15G29G21G02
  -9927828.43748  -7698799.78546  21740446.9614                   21740447.8054
 -23421829.24247 -18212514.92245  22247778.8914                   22247776.8364
  11373903.49246   8897944.65244  22736032.1174                   22736031.4454
 -25439559.77748 -19764653.35946  20764422.1254                   20764419.5634
  21976216.39846  17201781.10944  23617905.7734                   23617904.4224
    549812.98047    785919.60545  21689565.8364                   21689564.1884
  29532426.97346  23919674.03942  25007810.1804                   25007810.0634
 -42832545.80147 -33318418.95745  22037172.6024                   22037167.8244
 11  8 15  3  4 30.0000000  0  8G25G12G26G05G15G29G21G02
  -9975041.17648  -7735588.91446  21731463.1024                   21731463.5554
 -23418364.50047 -18209815.13345  22248437.7584                   22248436.2704
  11208167.59847   8768799.86744  22704494.2274                   22704492.9104
 -25467463.30948 -19786396.37946  20759112.1644                   20759109.6764
  21800216.49246  17064638.39543  23584413.9454                   23584412.6884
    397096.73847    666919.98845  21660504.7894                   21660503.6724
  29396106.83646  23813450.71942  24981869.0554                   24981869.3404
 -42867718.16047 -33345825.94545  22030479.7194                   22030475.0944
 11  8 15  3  5  0.0000000  0  8G25G12G26G05G15G29G21G02
 -10021725.95348  -7771966.66046  21722578.9224                   21722579.4384
 -23414614.12947 -18206892.78545  22249151.4844                   22249150.3954
  11042710.68847   8639872.48844  22673008.6334                   22673007.3714
 -25494941.55948 -19807808.00846  20753883.5944                   20753881.2304
  21624253.36346  16927524.33644  23550929.0394                   23550927.9694
    244596.76647    548088.88745  21631484.7424                   21631483.7544
  29259808.23446  23707244.08242  24955932.2194                   24955932.3634
 -42902783.29347 -33373149.37545  22023806.2344                   22023802.4654
 11  8 15  3  5 30.0000000  0  8G25G12G26G05G15G29G21G02
 -10067889.20748  -7807938.02046  21713794.3364                   21713795.4574
 -23410586.05147 -18203754.03545  22249918.1644                   22249916.5084
  10877531.72747   8511161.68444  22641575.4304                   22641574.8014
 -25522001.39548 -19828893.59446  20748734.2814                   20748731.6844
  21448325.27346  16790437.61343  23517450.8364                   23517449.5314
     92310.76647    429424.51645  21602505.9384                   21602504.4264
  29123525.64846  23601050.05543  24929998.8914                   24929999.1844
 -42937745.73447 -33400392.80145  22017153.0554                   22017149.3134
 11  8 15  3  6  0.0000000  0  8G25G12G26G05G15G29G21G02
 -10113531.55548  -7843503.47346  21705109.0554                   21705109.9614
 -23406281.29747 -18200399.67245  22250737.6804                   22250735.7974
  10712635.48047   8382671.16844  22610197.2194                   22610196.2584
 -25548643.84048 -19849653.94546  20743664.2424                   20743661.7624
  21272436.38346  16653381.41444  23483980.5704                   23483979.1994
    -59757.63747    310929.70745  21573568.2974                   21573566.8164
  28987260.10546  23494869.21543  24904068.5234                   24904068.0434
 -42972604.02047 -33427555.06245  22010519.9614                   22010515.5944
 11  8 15  3  6 30.0000000  0  8G25G12G26G05G15G29G21G02
 -10158658.47748  -7878667.30146  21696521.1484                   21696522.7234
 -23401707.39847 -18196835.59845  22251607.8674                   22251605.8954
  10548022.29347   8254401.23044  22578872.7114                   22578871.3674
 -25574874.93447 -19870093.75046  20738672.4304                   20738670.1334
  21096585.84447  16516355.09044  23450517.0944                   23450515.9344
   -211609.66847    192603.48845  21544671.7034                   21544670.2194
  28851007.36346  23388698.38743  24878140.6484                   24878139.5164
 -43007361.65647 -33454638.90645  22003905.6414                   22003902.0004
 11  8 15  3  7  0.0000000  0  8G25G12G26G05G15G29G21G02
 -10203273.75848  -7913432.44145  21688031.2974                   21688032.5354
 -23396869.12147 -18193065.50845  22252528.7194                   22252527.0274
  10383693.65647   8126353.01644  22547601.7664                   22547600.1604
 -25600699.00848 -19890216.39846  20733758.3914                   20733756.3364
  20920774.94947  16379359.64144  23417060.9384                   23417060.2734
   -363245.25047     74445.93445  21515816.7734                   21515814.6024
  28714765.18046  23282535.72743  24852213.8364                   24852213.1564
 -43042020.21947 -33481645.56245  21997310.4224                   21997306.8674
 11  8 15  3  7 30.0000000  0  8G25G12G26G05G15G29G21G02
 -10247374.98848  -7947797.03546  21679639.1644                   21679640.3674
 -23391764.64147 -18189088.01245  22253500.2424                   22253498.4494
  10219657.94147   7998533.03144  22516387.0314                   22516384.7894
 -25626113.53148 -19910019.91846  20728921.9144                   20728919.8874
  20745010.94146  16242400.73444  23383614.7894                   23383613.6454
   -514657.69147    -43537.74246  21487003.6884                   21487001.7304
  28578537.16046  23176384.13743  24826290.0634                   24826289.7074
 -43076575.27047 -33508571.55945  21990735.0394                   21990730.9804
 11  8 15  3  8  0.0000000  0  8G25G12G26G05G15G29G21G02
 -10290964.71548  -7981763.03946  21671344.9844                   21671345.5904
 -23386398.00847 -18184906.23045  22254521.1644                   22254519.9144
  10055918.04747   7870943.53544  22485228.0864                   22485226.3204
 -25651121.81648 -19929506.88346  20724163.1414                   20724160.7814
  20569295.85547  16105479.94944  23350176.9924                   23350175.6524
   -665845.20747   -161346.16046  21458233.6484                   21458231.7774
  28442322.21946  23070242.73443  24800369.3134                   24800368.7704
 -43111026.96547 -33535417.02045  21984178.8524                   21984175.5044
 11  8 15  3  8 30.0000000  0  8G25G12G26G05G15G29G21G02
  -8758625.64548  -6787732.59445  21962938.8524                   21962939.5784
 -21805354.61747 -16952924.38745  22555383.5554                   22555381.8634
  11467900.86347   8971189.94544  22753919.0164                   22753917.8714
 -24100307.67248 -18721080.27346  21019273.2894                   21019271.1414
  21969057.14147  17196203.07844  23616542.0004                   23616541.3164
    758617.06348    948624.47745  21729299.0084                   21729297.7734
  29881542.31646  24191713.03143  25074243.9844                   25074243.3914
 -41569956.50447 -32334582.87945  22277434.7974                   22277431.2664
 11  8 15  3  9  0.0000000  0  8G25G12G26G05G15G29G21G02
  -8801201.69548  -6820908.71546  21954837.2814                   21954837.7114
 -21799476.00047 -16948343.64845  22556502.4694                   22556500.4414
  11304760.23047   8844067.39844  22722874.4454                   22722873.1254
 -24124513.73048 -18739942.12546  21014666.5234                   21014664.6484
  21793446.55546  17059363.71144  23583125.4064                   23583123.5004
    607882.63348    831169.11746  21700615.6954                   21700614.1174
  29745348.58246  24085588.12543  25048327.2734                   25048326.8134
 -41604204.76647 -32361269.82045  22270918.1484                   22270914.0004
 11  8 15  3  9 30.0000000  0  8G25G12G26G05G15G29G21G02
  -8843272.47348  -6853691.13746  21946831.3284                   21946832.4064
 -21793344.54347 -16943565.89145  22557669.1644                   22557667.2274
  11141926.15647   8717183.71944  22691888.1094                   22691887.1954
 -24148320.86348 -18758493.12946  21010136.8204                   21010134.3794
  21617893.65246  16922569.27344  23549718.7584                   23549717.2814
    457379.82448    713894.24646  21671976.1564                   21671974.0394
  29609166.33646  23979472.15243  25022412.5314                   25022411.2234
 -41638349.51647 -32387876.09845  22264420.2504                   22264416.2894
 11  8 15  3 10  0.0000000  0  8G25G12G26G05G15G29G21G02
  -8884843.31248  -6886083.99246  21938920.4064                   21938921.4694
 -21786966.57447 -16938596.06245  22558882.7274                   22558880.8954
  10979399.07447   8590539.25844  22660960.2734                   22660959.4184
 -24171734.86748 -18776737.79346  21005681.0634                   21005678.4344
  21442398.54346  16785819.89844  23516322.5234                   23516321.4884
    307107.35947    596798.86346  21643380.0554                   21643378.5944
  29472991.28546  23873361.78943  24996499.4614                   24996498.3134
 -41672393.91847 -32414404.18445  22257941.5474                   22257938.3364
 11  8 15  3 10 30.0000000  0  8G25G12G26G05G15G29G21G02
  -8925910.88748  -6918084.68045  21931105.2274                   21931106.5434
 -21780339.67247 -16933432.23845  22560143.8134                   22560142.0704
  10817188.18047   8464141.14844  22630092.7034                   22630091.2384
 -24194752.18448 -18794673.34846  21001301.2974                   21001298.6684
  21266969.47746  16649121.97344  23482939.8284                   23482938.0594
    157073.10947    479889.10545  21614829.3444                   21614827.6024
  29336828.50446  23767261.05943  24970588.3364                   24970586.9844
 -41706332.20347 -32440849.59445  22251483.5634                   22251479.3984
 11  8 15  3 11  0.0000000  0  8G25G12G26G05G15G29G21G02
  -8966480.25448  -6949697.17646  21923385.8984                   21923386.5204
 -21773469.98047 -16928079.25045  22561451.4924                   22561450.1174
  10655293.89147   8337989.74644  22599285.2194                   22599284.0354
 -24217378.62148 -18812304.34046  20996995.5164                   20996993.1884
  21091606.45346  16512475.51644  23449568.9384                   23449567.6174
      7276.26648    363164.34045  21586324.2194                   21586322.6804
  29200674.15246  23661166.82842  24944678.1174                   24944678.1764
 -41740167.52047 -32467214.75445  22245045.0234                   22245040.7344
 11  8 15  3 11 30.0000000  0  8G25G12G26G05G15G29G21G02
  -9006554.96148  -6980924.21945  21915759.7194                   21915760.2504
 -21766361.73447 -16922540.36345  22562803.7194                   22562802.5234
  10493718.25847   8212086.64544  22568538.0004                   22568536.9024
 -24239617.95347 -18829633.67646  20992763.3674                   20992761.0704
  20916310.86746  16375881.61744  23416211.4454                   23416210.0234
   -142282.18048    246625.34446  21557863.4224                   21557862.1054
  29064526.57846  23555077.89843  24918771.1094                   24918770.5354
 -41773900.64847 -32493500.28545  22238625.7344                   22238621.6094
 11  8 15  3 12  0.0000000  0  8G25G12G26G05G15G29G21G02
  -9046135.30548  -7011766.03145  21908227.5704                   21908228.0944
 -21759016.71947 -16916817.00445  22564201.5944                   22564199.9144
  10332467.26247   8086436.51644  22537853.3834                   22537852.3134
 -24261470.77048 -18846661.83246  20988605.0234                   20988602.8874
  20741087.71946  16239344.13744  23382867.3134                   23382866.2974
   -291598.29348    130275.18046  21529450.3204                   21529448.1564
  28928387.18446  23448995.35542  24892864.1644                   24892863.4144
 -41807529.60547 -32519704.65645  22232226.6414                   22232221.7504
 11  8 15  3 12 30.0000000  0  8G25G12G26G05G15G29G21G02
  -9085221.89848  -7042223.12545  21900789.7344                   21900790.5944
 -21751436.33647 -16910910.21945  22565644.1334                   22565642.4264
  10171545.79347   7961043.12944  22507230.7974                   22507230.5164
 -24282937.61348 -18863389.23846  20984520.1724                   20984517.4804
  20565941.44146  16102866.56344  23349538.2114                   23349536.5084
   -440668.00048     14117.01246  21501083.0474                   21501081.4454
  28792256.88746  23342919.87942  24866958.5394                   24866958.7854
 -41841052.85947 -32545826.64145  22225847.1254                   22225842.8444
 11  8 15  3 13  0.0000000  0  8G25G12G26G05G15G29G21G02
  -9123822.69948  -7072301.67245  21893443.8834                   21893444.8874
 -21743629.42247 -16904826.91445  22567129.8134                   22567127.9024
  10010951.72347   7835904.86744  22476670.7194                   22476670.1844
 -24304027.21947 -18879822.69546  20980506.3984                   20980504.6564
  20390868.86346  15966446.42244  23316223.0474                   23316221.9144
   -589494.68048   -101851.78146  21472762.2034                   21472760.1604
  28656128.98446  23236846.30142  24841054.8594                   24841054.6254
 -41874475.91047 -32571870.56645  22219486.8674                   22219483.0004
 11  8 15  3 13 30.0000000  0  8G25G12G26G05G15G29G21G02
  -9161936.07848  -7102000.40645  21886191.5704                   21886191.9414
 -21735595.12147 -16898566.45345  22568658.7894                   22568656.7734
   9850692.52747   7711027.55144  22446174.8754                   22446173.8164
 -24324738.00447 -18895960.96146  20976565.5704                   20976563.6454
  20215877.54346  15830089.59444  23282923.3134                   23282921.8204
   -738072.56648   -217626.70746  21444488.5864                   21444486.6724
  28520006.95746  23130777.24642  24815151.6094                   24815151.1764
 -41907794.52347 -32597833.10945  22213146.2664                   22213142.4184
 11  8 15  3 14  0.0000000  0  8G25G12G26G05G15G29G21G02
  -9199562.68448  -7131319.84445  21879030.9304                   21879031.9104
 -21727334.89547 -16892129.92245  22570230.1094                   22570228.9224
   9690773.31347   7586415.15244  22415743.1484                   22415742.2504
 -24345070.75848 -18911804.66046  20972696.5864                   20972694.2234
  20040971.29746  15693799.04744  23249639.1954                   23249637.9654
   -886397.73448   -333204.70346  21416263.0634                   21416261.5824
  28383891.76646  23024713.57042  24789249.0004                   24789249.8134
 -41941007.05147 -32623712.98445  22206826.2424                   22206822.0664
 11  8 15  3 14 30.0000000  0  8G25G12G26G05G15G29G21G02
  -9236709.05148  -7160265.05945  21871962.6174                   21871963.8094
 -21718856.20747 -16885523.17645  22571843.6024                   22571841.7234
   9531193.63347   7462067.30944  22385375.9694                   22385375.1724
 -24365032.09048 -18927358.93746  20968897.9534                   20968895.6214
  19866149.42647  15557574.25044  23216372.6094                   23216371.0124
  -1034472.27047   -448587.42245  21388085.3594                   21388083.6804
  28247778.58246  22918651.41042  24763347.5084                   24763349.5204
 -41974117.66847 -32649513.45345  22200525.2114                   22200521.4884
 11  8 15  3 15  0.0000000  0  8G25G12G26G05G15G29G21G02
  -9273378.91048  -7188838.98445  21864984.7894                   21864985.0704
 -21710163.76647 -16878749.86345  22573497.9844                   22573495.9804
   9371955.30547   7337985.47744  22355074.2344                   22355073.2114
 -24384626.09448 -18942626.99246  20965169.5004                   20965167.1334
  19691413.29347  15421416.25444  23183121.2584                   23183119.0204
  -1182295.09848   -563773.98846  21359955.6254                   21359953.7664
  28111665.56646  22812589.41042  24737446.3914                   24737447.6054
 -42007127.62547 -32675235.48445  22194243.8754                   22194240.0314
 11  8 15  3 15 30.0000000  0  8G25G12G26G05G15G29G21G02
  -9309568.66848  -7217038.80145  21858098.2974                   21858098.5164
 -21701254.82447 -16871807.83645  22575193.6804                   22575191.5944
   9213068.09447   7214177.26644  22324839.0314                   22324837.8794
 -24403849.43448 -18957606.21546  20961511.5474                   20961508.9574
  19516771.76247  15285331.96544  23149888.0394                   23149885.8794
  -1329858.06648   -678758.09046  21331875.5864                   21331873.4064
  27975557.87946  22706531.56342  24711545.7424                   24711546.1414
 -42040031.02347 -32700874.48445  22187982.5004                   22187978.7344
 11  8 15  3 16  0.0000000  0  8G25G12G26G05G15G29G21G02
  -9345279.43748  -7244865.36745  21851302.2814                   21851303.0514
 -21692131.30147 -16864698.60245  22576929.9144                   22576927.8134
   9054536.66447   7090646.27044  22294671.4454                   22294670.4384
 -24422703.52747 -18972297.70746  20957923.5084                   20957921.0234
  19342229.04347  15149324.69944  23116674.2114                   23116671.8244
  -1477158.04748   -793537.24646  21303845.4064                   21303843.2814
  27839455.87546  22600478.13742  24685647.2274                   24685646.2814
 -42072825.99247 -32726429.00445  22181741.8284                   22181737.4024
 11  8 15  3 16 30.0000000  0  8G25G12G26G05G15G29G21G02
  -9380521.79747  -7272326.94545  21844596.0944                   21844597.1214
 -21682804.32847 -16857430.84445  22578704.6564                   22578702.5984
   8896356.16047   6967388.74244  22264570.4064                   22264569.2894
 -24441198.59047 -18986709.44146  20954403.9144                   20954401.6724
  19167779.81347  15013390.26244  23083476.8054                   23083475.0354
  -1624200.56248   -908115.78946  21275863.7894                   21275861.8874
  27703351.12546  22494422.58242  24659746.7734                   24659746.2814
 -42105520.57847 -32751905.30945  22175520.2194                   22175515.8754
 11  8 15  3 17  0.0000000  0  8G25G12G26G05G15G29G21G02
  -9415294.14548  -7299422.28945  21837979.3594                   21837979.8404
 -21673273.33247 -16850004.10945  22580518.1644                   22580516.3754
   8738534.35247   6844410.73444  22234537.8674                   22234536.8284
 -24459333.53148 -19000840.56246  20950952.7894                   20950950.5664
  18993430.76647  14877533.92244  23050298.7664                   23050297.8284
  -1770979.59448  -1022489.02046  21247932.6094                   21247930.8984
  27567246.81646  22388367.33642  24633846.9304                   24633845.9924
 -42138110.83247 -32777300.30545  22169318.8054                   22169314.3834
 11  8 15  3 17 30.0000000  0  8G25G12G26G05G15G29G21G02
  -9449593.75848  -7326149.25845  21831452.1884                   21831452.8484
 -21663536.27047 -16842416.80945  22582370.9454                   22582369.2504
   8581079.82047   6721718.91444  22204575.2584                   22204574.5234
 -24477105.70747 -19014688.99646  20947571.0234                   20947569.2464
  18819190.40647  14741762.25844  23017142.5164                   23017140.5554
  -1917487.78148  -1136651.20746  21220053.0314                   21220051.0164
  27431147.49646  22282316.00443  24607948.5944                   24607947.1414
 -42170591.44147 -32802609.85245  22163137.6564                   22163133.9024
 11  8 15  3 18  0.0000000  0  8G25G12G26G05G15G29G21G02
  -9483426.74648  -7352512.64145  21825013.6174                   21825014.5984
 -21653600.02347 -16834674.30145  22584261.7194                   22584260.3674
   8423992.24647   6599313.05144  22174682.6564                   22174681.8714
 -24494521.28548 -19028259.58246  20944257.2424                   20944254.8834
  18645057.88347  14606074.61744  22984005.6334                   22984004.2854
  -2063726.60948  -1250603.50846  21192224.9454                   21192223.0704
  27295048.89846  22176265.23843  24582048.8134                   24582048.4844
 -42202965.71547 -32827836.54745  22156977.2194                   22156973.3054
 11  8 15  3 18 30.0000000  0  8G25G12G26G05G15G29G21G02
  -7941378.77048  -6150916.82445  22118455.7664                   22118456.3634
 -20068052.39147 -15599182.65645  22885981.8834                   22885980.1884
   9842696.18847   7704796.68444  22444653.0084                   22444651.8674
 -22936166.46148 -17813957.10546  21240802.1334                   21240799.5784
  20046457.51647  15698074.37544  23250684.0394                   23250681.5704
   -634273.14548   -136743.62546  21464240.7664                   21464239.1174
  28734370.72746  23297814.75843  24855943.5164                   24855942.6804
 -40659816.93747 -31625382.93745  22450628.5864                   22450624.2814
 11  8 15  3 19  0.0000000  0  8G25G12G26G05G15G29G21G02
  -7974290.59048  -6176562.39545  22112192.5394                   22112193.4344
 -20057732.08647 -15591140.87945  22887946.0314                   22887943.6524
   9686348.44547   7582967.31344  22414900.4224                   22414899.1764
 -22952881.17648 -17826981.55546  21237621.1954                   21237619.2814
  19872544.65647  15562557.92644  23217589.0164                   23217587.0634
   -779970.96548   -250274.35246  21436515.5004                   21436513.3134
  28598267.16846  23191760.17643  24830042.9064                   24830042.8834
 -40691983.12147 -31650447.48045  22444507.2584                   22444503.4964
 11  8 15  3 19 30.0000000  0  8G25G12G26G05G15G29G21G02
  -8006744.49648  -6201851.16045  22106017.2114                   22106018.0004
 -20047223.42647 -15582952.33245  22889945.3984                   22889943.9224
   9530376.86747   7461431.05944  22385220.1644                   22385219.2194
 -22969248.45747 -17839735.26646  21234506.6484                   21234504.3834
  19698747.09047  15427131.28944  23184516.5164                   23184514.7074
   -925393.98447   -363590.95746  21408842.2274                   21408840.1254
  28462161.13746  23085703.61343  24804142.9064                   24804142.0784
 -40724043.91047 -31675429.91045  22438406.3834                   22438402.8914
 11  8 15  3 20  0.0000000  0  8G25G12G26G05G15G29G21G02
  -8038745.65248  -6226787.13746  22099927.5944                   22099928.2894
 -20036532.23047 -15574621.54745  22891979.9774                   22891978.1374
   9374782.37147   7340188.65244  22355611.3284                   22355610.5234
 -22985273.08248 -17852221.98046  21231457.2584                   21231454.7624
  19525065.32847  15291794.87944  23151465.6254                   23151464.0594
  -1070542.57448   -476693.73046  21381221.4144                   21381219.5434
  28326049.36746  22979642.57843  24778240.1564                   24778241.1804
 -40756001.71147 -31700332.06645  22432325.3524                   22432320.8834
 11  8 15  3 20 30.0000000  0  8G25G12G26G05G15G29G21G02
  -8070292.05548  -6251368.75845  22093924.0634                   22093924.9614
 -20025657.28547 -15566147.58245  22894049.4694                   22894047.3014
   9219572.87547   7219246.24644  22326076.3054                   22326075.3594
 -23000953.35547 -17864440.37546  21228473.5004                   21228471.1054
  19351506.67647  15156554.43044  23118438.9384                   23118436.9924
  -1215410.02748   -589577.42246  21353654.0164                   21353651.9494
  28189935.94946  22873580.25043  24752340.4064                   24752339.8364
 -40787851.63347 -31725150.17645  22426264.0944                   22426260.5044
 11  8 15  3 21  0.0000000  0  8G25G12G26G05G15G29G21G02
  -8101395.11748  -6275604.91445  22088005.7504                   22088006.2234
 -20014610.80147 -15557539.94145  22896151.4534                   22896149.4384
   9064742.90647   7098599.59044  22296612.9774                   22296611.7624
 -23016300.73848 -17876399.36746  21225552.8444                   21225550.6884
  19178065.34047  15021405.39844  23085433.2974                   23085431.9774
  -1360002.73448   -702247.04746  21326138.9454                   21326136.9964
  28053811.32846  22767509.24243  24726436.2034                   24726435.9654
 -40819602.62547 -31749891.18445  22420222.1024                   22420218.6134
 11  8 15  3 21 30.0000000  0  8G25G12G26G05G15G29G21G02
  -8132052.43448  -6299493.73445  22082172.2194                   22082172.5664
 -20003390.70747 -15548797.03145  22898286.0234                   22898284.6804
   8910301.09847   6978255.38744  22267224.0164                   22267223.0084
 -23031312.89848 -17888097.14546  21222696.1414                   21222693.9534
  19004749.24647  14886353.96944  23052452.5004                   23052451.3094
  -1504313.69948   -814697.10946  21298677.2034                   21298675.2464
  27917679.91846  22661432.94143  24700530.7584                   24700530.5084
 -40851249.30947 -31774550.92645  22414200.0164                   22414196.0744
 11  8 15  3 22  0.0000000  0  8G25G12G26G05G15G29G21G02
  -8162263.86348  -6323035.11745  22076422.7424                   22076423.9924
 -19991997.53547 -15539919.24645  22900454.4534                   22900452.4614
   8756253.23847   6858218.14545  22237909.1484                   22237908.1484
 -23045989.47748 -17899533.43046  21219903.1094                   21219901.3164
  18831564.03147  14751404.52344  23019496.6094                   23019495.2734
  -1648338.01248   -926923.81246  21271270.2504                   21271268.7584
  27781543.93446  22555353.03943  24674626.0784                   24674625.4064
 -40882789.18047 -31799127.43445  22408198.4694                   22408194.3554
 11  8 15  3 22 30.0000000  0  9G25G12G18G26G05G15G29G21G02
  -8192036.32048  -6346234.44945  22070757.7114                   22070758.4774
 -19980438.92647 -15530912.54345  22902654.0704                   22902652.3594
  34409410.12556  26845891.44152  24696973.5164                   24696971.8284
   8602598.76647   6738487.44545  22208669.6094                   22208668.4104
 -23060337.42648 -17910713.63746  21217173.0394                   21217170.8554
  18658508.33247  14616555.99244  22986564.8054                   22986563.2034
  -1792077.68048  -1038928.71146  21243917.6414                   21243915.7034
  27645398.37146  22449265.70743  24648717.9844                   24648717.4654
 -40914226.12147 -31823623.74244  22402215.7344                   22402211.8484
 11  8 15  3 23  0.0000000  0  9G25G12G18G26G05G15G29G21G02
  -8221372.46947  -6369093.78545  22065174.6334                   22065175.7624
 -19968718.00047 -15521779.35944  22904884.3594                   22904882.9024
  34240674.08246  26714408.85542  24664864.0944                   24664863.5004
   8449340.80547   6619065.69945  22179506.3054                   22179504.9104
 -23074359.47348 -17921639.90646  21214504.8134                   21214502.3714
  18485584.99647  14481810.59044  22953658.6954                   22953656.9844
  -1935530.56647  -1150710.14846  21216619.6254                   21216617.5044
  27509242.21146  22343170.11743  24622807.8444                   24622807.2544
 -40945559.85247 -31848039.63345  22396253.2424                   22396249.4614
 11  8 15  3 23 30.0000000  0  9G25G12G18G26G05G15G29G21G02
  -8250275.16848  -6391615.38345  22059674.9454                   22059675.6294
 -19956837.92647 -15512522.16844  22907145.1884                   22907143.1564
  34072103.77046  26583055.40242  24632784.8204                   24632786.4104
   8296482.52747   6499955.40245  22150418.2274                   22150416.5124
 -23088058.43748 -17932314.41446  21211897.7894                   21211895.6564
  18312796.85547  14347170.54744  22920778.0864                   22920776.4104
  -2078694.63748  -1262266.53546  21189375.8134                   21189374.3164
  27373074.77046  22237065.73843  24596895.5084                   24596895.2704
 -40976790.47347 -31872375.16845  22390310.3444                   22390306.8874
 11  8 15  3 24  0.0000000  0  9G25G12G18G26G05G15G29G21G02
  -8278745.81248  -6413800.30545  22054256.9614                   22054258.0004
 -19944801.02347 -15503142.77344  22909435.6644                   22909434.0664
  33903701.520 6                  24600739.555
   8144028.78947   6381160.32845  22121407.2734                   22121405.5394
 -23101435.80548 -17942738.32446  21209352.1564                   21209350.4694
  18140148.30147  14212639.27044  22887924.7034                   22887922.8094
  -2221566.31648  -1373595.07446  21162188.5234                   21162186.9384
  27236896.85546  22130953.16443  24570981.9774                   24570981.3954
 -41007916.65247 -31896629.32845  22384386.8754                   22384383.1174
 11  8 15  3 24 30.0000000  0  9G25G12G18G26G05G15G29G21G02
  -8306784.68048  -6435648.78945  22048921.6884                   22048922.2114
 -19932608.28147 -15493641.93044  22911755.7894                   22911754.1374
  33735471.090 6                  24568726.883
   7991985.16047   6262684.84845  22092473.9924                   22092472.6914
 -23114491.50448 -17952911.60246  21206867.8914                   21206865.5314
  17967644.15647  14078220.51244  22855097.7034                   22855096.1174
  -2364140.89848  -1484692.11746  21135057.7424                   21135055.3634
  27100710.30946  22024833.92643  24545066.3674                   24545065.6954
 -41038935.64147 -31920799.95345  22378484.8524                   22378480.3054
 11  8 15  3 25  0.0000000  0  9G25G12G18G26G05G15G29G21G02
  -8334392.37148  -6457161.28945  22043668.2034                   22043668.7274
 -19920260.66047 -15484020.42244  22914105.3444                   22914104.3324
  33567414.926 5                  24536746.992
   7840357.04347   6144533.10945  22063620.3594                   22063618.8984
 -23127226.09848 -17962834.65646  21204444.5314                   21204441.7584
  17795289.92247  13943918.56644  22822299.2274                   22822298.5514
  -2506414.43048  -1595554.57046  21107983.8054                   21107981.7814
  26964516.62946  21918709.07043  24519149.5004                   24519149.0514
 -41069845.20747 -31944885.33245  22372602.7504                   22372598.6054
 11  8 15  3 25 30.0000000  0  9G25G12G18G26G05G15G29G21G02
  -8361572.16448  -6478340.34845  22038495.4694                   22038496.5204
 -19907761.67647 -15474280.97344  22916483.9064                   22916482.2154
  33399534.074 5                  24504798.977
   7689147.53547   6026707.55944  22034845.8674                   22034844.6914
 -23139642.69948 -17972509.92646  21202081.6564                   21202079.6604
  17623087.68447  13809735.04344  22789531.3054                   22789529.4844
  -2648385.16847  -1706181.07846  21080967.9454                   21080965.8204
  26828314.42246  21812577.59043  24493230.9614                   24493230.5634
 -41100645.89547 -31968885.88344  22366741.9384                   22366737.1414
 11  8 15  3 26  0.0000000  0  9G25G12G18G26G05G15G29G21G02
  -8388329.23847  -6499190.02345  22033403.9774                   22033405.1564
 -19895117.28947 -15464428.21944  22918890.1334                   22918888.3914
  33231827.469 6                  24472886.664
   7538357.24247   5909208.68045  22006151.2274                   22006150.3244
 -23151746.61348 -17981941.54746  21199778.6334                   21199776.2074
  17451038.34047  13675670.68044  22756790.6334                   22756789.2734
  -2790053.09448  -1816571.63346  21054009.1884                   21054007.2234
  26692100.76646  21706437.19943  24467310.5554                   24467309.3134
 -41131339.80947 -31992803.23044  22360900.4534                   22360896.3444
 11  8 15  3 26 30.0000000  0  9G25G12G18G26G05G15G29G21G02
  -8414666.35947  -6519712.46545  22028391.8524                   22028393.4104
 -19882330.74647 -15454464.69944  22921323.5164                   22921321.5554
  33064295.99646  26454882.85952  24441006.0314                   24441005.4224
   7387989.45347   5792039.02745  21977537.0314                   21977536.0664
 -23163540.39548 -17991131.51246  21197534.1414                   21197532.0044
  17279144.63347  13541727.57844  22724080.6804                   22724078.4574
  -2931416.24247  -1926724.69146  21027108.0474                   21027106.7664
  26555875.14846  21600287.47743  24441388.2194                   24441387.2544
 -41161926.79347 -32016637.25044  22355079.8054                   22355075.7894
 11  8 15  3 27  0.0000000  0  9G25G12G18G26G05G15G29G21G02
  -8440584.07847  -6539908.11745  22023460.0704                   22023460.9774
 -19869402.76247 -15444390.94944  22923783.1564                   22923781.6094
  32896942.69946  26324477.72342  24409159.9384                   24409159.6914
   7238049.88747   5675203.05145  21949004.7584                   21949003.0744
 -23175024.49248 -18000080.16446  21195348.7664                   21195346.1254
  17107411.80947  13407909.83244  22691401.0864                   22691399.2584
  -3072470.08247  -2036636.73046  21000266.9144                   21000264.6914
  26419638.72746  21494129.30943  24415462.5704                   24415461.7304
 -41192404.52047 -32040386.13344  22349280.5474                   22349276.4924
 11  8 15  3 27 30.0000000  0  9G25G12G18G26G05G15G29G21G02
  -8466085.16448  -6559779.09445  22018607.8204                   22018608.7424
 -19856336.91847 -15434209.80144  22926269.7504                   22926268.3554
  32729769.00446  26194212.56643  24377347.7114                   24377346.7774
   7088541.52047   5558703.08244  21920554.2194                   21920552.6724
 -23186201.58248 -18008789.58646  21193221.7034                   21193219.6414
  16935842.71947  13274219.66444  22658751.7424                   22658750.5434
  -3213212.38748  -2146306.02746  20973484.6884                   20973482.1484
  26283391.28146  21387962.57443  24389535.9614                   24389534.3554
 -41222772.62947 -32064049.59845  22343502.0864                   22343497.9694
 11  8 15  3 28  0.0000000  0  9G25G12G18G26G05G15G29G21G02
  -8491169.21547  -6579325.11345  22013833.9774                   22013835.2274
 -19843133.19547 -15423921.21144  22928782.1414                   22928781.1994
  32562779.10946  26064090.59443  24345570.7814                   24345570.3834
   6939471.15647   5442544.42244  21892186.9144                   21892185.3014
 -23197070.66448 -18017259.00446  21191153.3984                   21191151.1094
  16764443.37547  13140661.77744  22626136.2504                   22626134.6724
  -3353637.98447  -2255728.53546  20946762.4064                   20946760.1914
  26147135.27346  21281789.17643  24363606.9694                   24363605.7584
 -41253027.86747 -32087625.11745  22337744.1954                   22337739.7854
 11  8 15  3 28 30.0000000  0  9G25G12G18G26G05G15G29G21G02
  -6940420.97747  -5370949.87945  22308931.8364                   22308932.6094
 -18254377.81247 -14185930.01644  23231112.6334                   23231111.1604
  33971396.87546  27161714.87943  24613620.8674                   24613621.3444
   8366263.97747   6554331.08244  22163696.3284                   22163694.6644
 -21632217.13747 -16797892.62146  21488935.3364                   21488932.9804
  18168640.21947  14234841.21544  22893345.9454                   22893344.6954
  -1918322.78548  -1137301.06246  21219893.3754                   21219891.5044
  27586291.65246  22403209.79343  24637468.8524                   24637467.5944
 -39707751.71547 -30883513.84444  22631800.5164                   22631795.9734
 11  8 15  3 29  0.0000000  0  9G25G12G18G26G05G15G29G21G02
  -6964684.85247  -5389856.80545  22304314.6334                   22304315.4844
 -18240913.28947 -14175438.19944  23233674.7894                   23233673.3054
  33804772.47746  27031877.73843  24581913.6334                   24581913.1764
   8218073.64147   6438858.14145  22135496.9384                   22135495.2854
 -21642484.22348 -16805892.95346  21486981.7274                   21486979.1764
  17997584.34847  14101550.99244  22860795.1954                   22860793.2114
  -2058113.78147  -1246229.07446  21193292.3524                   21193290.5234
  27450011.15646  22297017.32443  24611535.2424                   24611534.3674
 -39737785.76247 -30906917.02344  22626085.3204                   22626081.5824
 11  8 15  3 29 30.0000000  0  9G25G12G18G26G05G15G29G21G02
  -6988541.83247  -5408446.65245  22299774.2664                   22299775.4614
 -18227321.94147 -14164847.56244  23236261.3674                   23236259.7734
  33638333.34846  26902184.96943  24550242.1254                   24550241.0514
   8070329.28547   6323732.71945  22107381.6804                   22107380.2704
 -21652453.30547 -16813661.07846  21485084.1414                   21485082.1414
  17826705.34047  13968398.58244  22828277.6884                   22828275.9024
  -2197583.07447  -1354906.40646  21166752.0944                   21166750.0634
  27313718.64846  22190815.46943  24585600.3054                   24585599.0124
 -39767708.01247 -30930233.08244  22620391.3834                   22620386.7584
 11  8 15  3 30  0.0000000  0  9G25G12G18G26G05G15G29G21G02
  -7011994.90247  -5426721.78545  22295311.7664                   22295312.7504
 -18213607.22747 -14154160.79344  23238871.5164                   23238869.5664
  33472080.67646  26772637.48443  24518604.9534                   24518604.4574
   7923033.96947   6208957.19945  22079352.3444                   22079351.2074
 -21662126.90648 -16821198.94546  21483243.5784                   21483241.1414
  17656006.29347  13835386.39844  22795794.8914                   22795792.8164
  -2336728.10947  -1463331.07846  21140273.6174                   21140271.9224
  27177413.48046  22084603.71143  24559662.3054                   24559660.5594
 -39797518.42647 -30953462.00044  22614718.6024                   22614713.8094
 11  8 15  3 30 30.0000000  0  9G25G12G18G26G05G15G29G21G02
  -7035044.47747  -5444682.50445  22290925.7584                   22290926.7034
 -18199769.94147 -14143378.51244  23241504.9224                   23241502.6604
  33306017.79746  26643237.90643  24487003.6644                   24487003.0904
   7776193.38347   6094536.00844  22051409.6724                   22051407.8794
 -21671505.37548 -16828506.84846  21481459.2194                   21481456.6134
  17485492.63747  13702518.64844  22763346.7194                   22763345.2734
  -2475545.19948  -1571500.20746  21113858.1564                   21113855.6094
  27041097.51246  21978383.61343  24533721.9384                   24533720.5514
 -39827214.30147 -30976601.67245  22609067.8134                   22609063.6804
 11  8 15  3 31  0.0000000  0  9G25G12G18G26G05G15G29G21G02
  -7057695.35947  -5462332.54345  22286615.2344                   22286615.9104
 -18185815.55547 -14132504.96944  23244159.6804                   23244157.8444
  33140143.52746  26513985.32442  24455438.6334                   24455438.3054
   7629808.88747   5980470.21145  22023553.4064                   22023552.0274
 -21680593.15648 -16835588.24246  21479729.4224                   21479726.9184
  17315165.27047  13569796.02744  22730934.6484                   22730932.4964
  -2614033.64847  -1679413.24246  21087504.1644                   21087502.1414
  26904768.08646  21872152.97343  24507778.9064                   24507778.0634
 -39856797.20747 -30999653.31644  22603438.1884                   22603433.2664
 11  8 15  3 31 30.0000000  0  9G25G12G18G26G05G15G29G21G02
  -7079950.54747  -5479674.25045  22282380.0554                   22282381.0634
 -18171746.93047 -14121542.41844  23246836.9304                   23246834.5634
  32974459.01246  26384880.62142  24423909.9384                   24423909.8284
   7483883.54347   5866762.23045  21995784.7974                   21995783.3674
 -21689393.02047 -16842445.28146  21478054.9064                   21478052.5474
  17145026.97747  13437220.66444  22698558.7114                   22698556.7584
  -2752191.37548  -1787068.58646  21061213.7664                   21061211.5164
  26768424.42646  21765911.26243  24481834.1484                   24481832.7074
 -39886267.29347 -31022617.04744  22597830.4454                   22597826.5164
 11  8 15  3 32  0.0000000  0  9G25G12G18G26G05G15G29G21G02
  -7101812.93447  -5496709.87545  22278219.9454                   22278220.7304
 -18157567.38747 -14110493.43444  23249534.9144                   23249532.7304
  32808965.20745  26255924.51642  24392417.3364                   24392417.9454
   7338420.42247   5753414.38745  21968104.1414                   21968102.7664
 -21697907.60548 -16849080.03146  21476434.6174                   21476432.3284
  16975080.66447  13304794.89145  22666218.6564                   22666217.3674
  -2890016.14148  -1894464.47746  21034986.1954                   21034984.4024
  26632066.34446  21659658.28943  24455885.1024                   24455884.4304
 -39915623.99647 -31045492.43744  22592243.7504                   22592240.3874
 11  8 15  3 32 30.0000000  0  9G25G12G18G26G05G15G29G21G02
  -7123284.73447  -5513441.16045  22274134.3444                   22274135.1524
 -18143279.46146 -14099360.01644  23252254.1644                   23252251.8714
  32643663.93445  26127118.40242  24360961.0084                   24360961.6294
   7193423.56647   5640429.88745  21940511.6174                   21940510.6684
 -21706138.89148 -16855494.01646  21474867.9844                   21474866.1914
  16805330.21947  13172521.73445  22633916.1174                   22633914.7274
  -3027505.23448  -2001598.79746  21008823.3444                   21008820.8754
  26495693.70346  21553393.99643  24429934.4224                   24429933.0824
 -39944866.84847 -31068279.11344  22586678.8914                   22586674.8204
 11  8 15  3 33  0.0000000  0  9G25G12G18G26G05G15G29G21G02
  -7144371.19947  -5529872.17645  22270121.3984                   22270122.8674
 -18128888.84046 -14088146.55144  23254991.9064                   23254990.5554
  32478553.79345  25998461.28142  24329542.4614                   24329542.4064
   7048893.42647   5527809.06645  21913008.7034                   21913006.9494
 -21714091.75048 -16861691.05546  21473355.1094                   21473353.0314
  16635776.13347  13040401.57844  22601651.2194                   22601650.0234
  -3164658.60548  -2108471.52346  20982723.6334                   20982721.4384
  26359303.52046  21447116.04743  24403980.3284                   24403978.8204
 -39973997.69947 -31090978.51244  22581136.0314                   22581131.3164
 11  8 15  3 33 30.0000000  0  9G25G12G18G26G05G15G29G21G02
  -7165072.23047  -5546002.86345  22266182.2424                   22266183.4454
 -18114395.48847 -14076853.04744  23257750.5234                   23257748.3984
  32313639.09046  25869956.32042  24298160.1724                   24298160.4734
   6904836.37547   5415556.88345  21885595.6484                   21885594.1884
 -21721765.93048 -16867670.93446  21471894.3204                   21471892.4454
  16466424.53147  12908439.19544  22569425.3834                   22569423.3284
  -3301470.98447  -2215078.55146  20956688.8364                   20956686.8834
  26222898.27746  21340826.32443  24378023.5004                   24378021.9384
 -40003013.42647 -31113588.20345  22575614.4614                   22575610.3714
 11  8 15  3 34  0.0000000  0  9G25G12G18G26G05G15G29G21G02
  -7185387.27747  -5561832.77745  22262316.5234                   22262317.5434
 -18099799.26246 -14065479.38344  23260527.9614                   23260526.3244
  32148923.89146  25741606.96142  24266815.5634                   24266816.0314
   6761259.05147   5303678.52745  21858273.7504                   21858272.2234
 -21729160.38748 -16873432.85246  21470487.6884                   21470485.2504
  16297281.81647  12776639.59045  22537237.9924                   22537236.7194
  -3437936.67247  -2321415.41846  20930720.5164                   20930718.4884
  26086480.88346  21234527.18443  24352063.5394                   24352062.9384
 -40031910.18047 -31136105.19144  22570115.5944                   22570111.8524
 11  8 15  3 34 30.0000000  0  9G25G12G18G26G05G15G29G21G02
  -7205324.21147  -5577368.06245  22258522.7114                   22258523.8134
 -18085107.91447 -14054031.61344  23263323.7194                   23263322.0044
  31984404.43846  25613410.03942  24235508.8204                   24235508.6684
   6618159.90247   5192172.76645  21831042.8754                   21831041.5234
 -21736282.58648 -16878982.61346  21469132.3204                   21469129.9454
  16128346.16847  12645001.35245  22505090.9534                   22505089.4454
  -3574058.99248  -2427484.73046  20904817.6174                   20904815.1644
  25950046.08646  21128214.45343  24326100.8984                   24326099.7154
 -40060692.76247 -31158533.21944  22564638.6724                   22564634.1994
 11  8 15  3 35  0.0000000  0  9G25G12G18G26G05G15G29G21G02
  -7224884.50847  -5592609.87545  22254800.3134                   22254801.7544
 -18070323.42247 -14042511.25044  23266137.0084                   23266135.5514
  31820083.03146  25485367.43442  24204239.8594                   24204239.1174
   6475543.13347   5081042.90245  21803904.1484                   21803902.5824
 -21743133.82848 -16884321.24646  21467828.6024                   21467826.4964
  15959621.73447  12513527.73845  22472984.3754                   22472982.3484
  -3709833.96548  -2533283.38346  20878980.0554                   20878978.1604
  25813594.30546  21021888.51243  24300134.9454                   24300133.6094
 -40089359.19147 -31180870.72745  22559183.4774                   22559179.2194
 11  8 15  3 35 30.0000000  0  9G25G12G18G26G05G15G29G21G02
  -7244074.23847  -5607562.92645  22251148.9694                   22251150.0354
 -18055451.95347 -14030923.12944  23268967.4774                   23268965.2274
  31655957.78946  25357477.73843  24173007.5004                   24173006.9734
   6333409.09447   4970289.19545  21776856.5704                   21776854.9534
 -21749719.57048 -16889452.98846  21466575.0634                   21466572.7774
  15791108.75447  12382218.94545  22440916.8834                   22440915.3404
  -3845262.39548  -2638812.01246  20853209.1644                   20853206.7274
  25677122.90646  20915547.29743  24274165.4454                   24274163.3164
 -40117912.54347 -31203120.12944  22553750.1334                   22553746.0474
 11  8 15  3 36  0.0000000  0  9G25G12G18G26G05G15G29G21G02
  -7262892.66047  -5622226.64145  22247567.6094                   22247568.6684
 -18040493.25447 -14019267.02044  23271813.8134                   23271811.7504
  31492033.29346  25229744.41043  24141813.1644                   24141813.2854
   6191764.43847   4859916.81345  21749902.6884                   21749900.6524
 -21756039.07048 -16894377.26646  21465372.8054                   21465370.4064
  15622813.93447  12251080.21545  22408891.5784                   22408889.4144
  -3980338.41048  -2744066.03546  20827504.7344                   20827502.5164
  25540634.08646  20809192.48043  24248192.1954                   24248190.4964
 -40146348.96947 -31225278.40644  22548338.4144                   22548334.7114
 11  8 15  3 36 30.0000000  0  9G25G12G18G26G05G15G29G21G02
  -7281342.78947  -5636603.37145  22244056.6334                   22244057.9304
 -18025450.21947 -14007545.18444  23274676.5784                   23274674.3954
  31328310.18846  25102168.09442  24110658.2274                   24110656.9344
   6050612.09047   4749928.05545  21723041.4064                   21723040.7274
 -21762094.93748 -16899096.10946  21464220.4454                   21464218.0634
  15454740.05147  12120113.66445  22376907.8364                   22376905.9574
  -4115060.17248  -2849044.01246  20801868.1254                   20801865.9304
  25404127.75446  20702824.02043  24222215.7734                   24222214.5904
 -40174668.10247 -31247345.28144  22542949.7664                   22542945.3914
 11  8 15  3 37  0.0000000  0  9G25G12G18G26G05G15G29G21G02
  -7299426.11747  -5650694.29745  22240615.3834                   22240616.7344
 -18010324.74647 -13995759.12144  23277554.5704                   23277552.3554
  31164791.20746  24974750.76643  24079541.3364                   24079540.1174
   5909956.62947   4640326.49245  21696275.9534                   21696274.3284
 -21767887.90648 -16903610.11345  21463117.8134                   21463115.8834
  15286891.41447  11989322.62545  22344966.9694                   22344965.1024
  -4249423.72748  -2953742.86346  20776299.5394                   20776297.5204
  25267604.28146  20596442.21543  24196235.9534                   24196234.8874
 -40202868.39847 -31269319.57044  22537583.2584                   22537579.1254
 11  8 15  3 37 30.0000000  0  9G25G12G18G26G05G15G29G21G02
  -7317145.87947  -5664501.91845  22237243.1564                   22237244.6604
 -17995119.75447 -13983911.09444  23280447.7814                   23280446.5084
  31001477.14146  24847493.12143  24048463.3754                   24048462.5124
   5769800.93047   4531114.34045  21669605.6254                   21669603.5744
 -21773421.00848 -16907921.61746  21462065.2664                   21462062.8164
  15119270.52347  11858709.02745  22313069.8754                   22313068.3594
  -4383426.96948  -3058160.96146  20750799.8204                   20750797.0784
  25131063.52346  20490046.91443  24170253.4064                   24170251.5394
 -40230949.40647 -31291200.89544  22532239.5314                   22532235.4884
 11  8 15  3 38  0.0000000  0  9G25G12G18G26G05G15G29G21G02
  -7334506.53147  -5678029.71945  22233939.8284                   22233940.9144
 -17979840.38346 -13972005.10544  23283355.5634                   23283353.2424
  30838367.80946  24720395.06643  24017424.6254                   24017423.8754
   5630146.62947   4422292.90645  21643029.4454                   21643028.3164
 -21778698.18048 -16912033.69946  21461060.3134                   21461058.5164
  14951879.03947  11728274.17645  22281216.7894                   22281214.5204
  -4517069.56248  -3162298.03946  20725368.1954                   20725365.7974
  24994503.57046  20383636.67243  24144266.2274                   24144264.6484
 -40258912.71547 -31312990.51644  22526918.6564                   22526914.6294
 11  8 15  3 38 30.0000000  0  9G25G12G18G26G05G15G29G21G02
  -5776087.63347  -4463677.33245  22530497.1024                   22530498.1334
 -16389067.21946 -12732441.62544  23586069.9534                   23586068.2034
  32250891.73446  25821063.13743  24286218.9774                   24286218.5314
   7066424.19147   5541470.31345  21916344.0554                   21916342.5204
 -20208299.03148 -15688346.04746  21759897.7344                   21759895.3244
  16360148.75447  12825627.24245  22549201.1954                   22549199.2974
  -3074921.96948  -2038546.65246  20999799.8914                   20999797.7544
  26433351.00446  21504816.60943  24418070.7274                   24418068.6054
 -38711334.15247 -30107085.16844  22821412.8134                   22821408.1524
 11  8 15  3 39  0.0000000  0  9G25G12G18G26G05G15G29G21G02
  -5792739.20347  -4476652.58645  22527328.5314                   22527329.6294
 -16373648.13346 -12720426.77744  23589003.7664                   23589001.7234
  32088193.30146  25694285.18843  24255257.8914                   24255257.8674
   6927781.52747   5433437.15245  21889961.1024                   21889959.6334
 -20213072.34048 -15692065.50845  21758989.1254                   21758987.2974
  16193225.80147  12695557.43044  22517437.2734                   22517434.9344
  -3207836.57048  -2142116.45346  20974506.7504                   20974504.8594
  26296750.60946  21398374.85543  24392076.1024                   24392074.5474
 -38739060.98447 -30128690.51644  22816136.5864                   22816132.5234
 11  8 15  3 39 30.0000000  0  9G25G12G18G26G05G15G29G21G02
  -5809039.11747  -4489353.83645  22524226.5634                   22524227.8444
 -16358162.16446 -12708359.81244  23591950.6414                   23591949.1884
  31925703.45746  25567669.83243  24224338.4064                   24224336.4304
   6789650.72747   5325802.84845  21863675.4774                   21863673.7154
 -20217595.92648 -15695590.37545  21758128.8594                   21758126.2344
  16026542.66447  12565674.47745  22485718.4304                   22485716.1134
  -3340382.25848  -2245398.78946  20949284.3134                   20949282.5554
  26160131.00046  21291918.10543  24366077.3984                   24366076.2304
 -38766667.65647 -30150202.23444  22810883.3594                   22810879.0944
 11  8 15  3 40  0.0000000  0  9G25G12G18G26G05G15G29G21G02
  -5824989.23847  -4501782.51645  22521191.4774                   22521192.7734
 -16342611.38746 -12696242.34444  23594909.7974                   23594908.2384
  31763424.59046  25441218.81343  24193457.3204                   24193455.5234
   6652036.10947   5218570.73045  21837488.5634                   21837487.0554
 -20221871.13348 -15698921.69946  21757315.5394                   21757312.9614
  15860103.72147  12435981.79445  22454045.6174                   22454043.7234
  -3472555.85948  -2348391.18046  20924132.6954                   20924130.1174
  26023492.75046  21185446.80543  24340076.8284                   24340075.3874
 -38794152.45347 -30171618.98844  22805652.9774                   22805648.9734
 11  8 15  3 40 30.0000000  0  9G25G12G18G26G05G15G29G21G02
  -5840596.23047  -4513943.81245  22518221.8284                   22518222.4924
 -16327002.52746 -12684079.61344  23597880.6804                   23597878.4654
  31601353.66446  25314929.91443  24162616.7274                   24162614.7194
   6514936.64147   5111740.05145  21811399.1174                   21811397.3324
 -20225904.12548 -15702064.29346  21756547.8914                   21756545.2734
  15693908.39547  12306478.95745  22422419.5084                   22422417.9734
  -3604358.66848  -2451094.64846  20899051.4144                   20899049.0204
  25886831.87546  21078957.86343  24314070.8984                   24314069.3014
 -38821518.97747 -30192943.59444  22800445.1334                   22800441.5634
